Darstellungsparameter: Aktuell verwendete Einstellungen:
Skalierung der Graphiken ... ?
xyx+y,   Skalierungsfaktor:      Skalierung: Modus: x, Faktor: 1
Darstellungszeitraum ... ?
Vom - - bis: - -   Zeitraum: 09.01.2020 - 22.01.2020
Min/Max/Avg-Anzeige ... ?
Zeige MMA aktuell
Zeige MMA Monat
Zeige MMA alles
Zeige --A aktuell
Zeige --A Monat
Zeige --A alles
Keine MMA-Anzeige
MMA:
Keine MMA-Graphiken
MMA-Basis: 09.01.2020 - 22.01.2020
Quicknavigation für Darstellung... ?
Tage:      1T, 2T, 3T, 5T -1T -2T -3T -5T +1T +2T +3T +5T
Wochen: 1W, 2W, 3W -1W -2W -3W +1W +2W +3W
Monate: 1M, 3M, 6M -1M -3M -6M +1M +3M +6M
Jahre:    1J, 3J, 5J, 10J -1J -3J -5J -10J +1J +3J +5J +10J
Nutze für die Darstellung ... ?
Originaldaten oder Mittelwerte auf ...
Stundenbasis Tagesbasis Wochenbasis
Monatsbasis Jahresbasis      Datenbasis: Original-Daten
Darstellen als:
Statistik (Auto) Statistik J:M      Darstellung:
Zur Graphik,    zurück zur Übersicht aller Sensoren.
 
Tabellarische Datenbersicht: ?
 
Sensor: Nr:Datum:Temp:Abs-Feuchte:Windchill:Wind:
Aussen-T/F 1 09-01-2020 00:00:00 10 C 8.93 g/m*3 10 C 0 km/h
2 09-01-2020 00:05:00 10 C 8.93 g/m*3 10 C 0 km/h
3 09-01-2020 00:10:00 10 C 8.93 g/m*3 10 C 0 km/h
4 09-01-2020 00:15:00 9.9 C 8.87 g/m*3 9.9 C 0 km/h
5 09-01-2020 00:20:00 9.9 C 8.87 g/m*3 9.9 C 0 km/h
6 09-01-2020 00:25:00 9.9 C 8.87 g/m*3 9.9 C 0 km/h
7 09-01-2020 00:30:00 9.9 C 8.87 g/m*3 9.9 C 0 km/h
8 09-01-2020 00:35:00 9.9 C 8.87 g/m*3 9.9 C 0 km/h
9 09-01-2020 00:40:00 9.8 C 8.81 g/m*3 9.8 C 0 km/h
10 09-01-2020 00:45:00 9.8 C 8.81 g/m*3 9.8 C 0 km/h
11 09-01-2020 00:50:00 9.8 C 8.91 g/m*3 9.8 C 0 km/h
12 09-01-2020 00:55:00 9.8 C 8.91 g/m*3 9.8 C 0 km/h
13 09-01-2020 01:00:00 9.8 C 8.91 g/m*3 9.8 C 0 km/h
14 09-01-2020 01:05:00 9.8 C 8.91 g/m*3 9.8 C 0 km/h
15 09-01-2020 01:10:00 9.8 C 8.91 g/m*3 9.8 C 0 km/h
16 09-01-2020 01:15:00 9.8 C 8.91 g/m*3 9.8 C 0 km/h
17 09-01-2020 01:20:00 9.8 C 8.91 g/m*3 9.8 C 0 km/h
18 09-01-2020 01:25:00 9.8 C 8.91 g/m*3 9.8 C 0 km/h
19 09-01-2020 01:30:00 9.8 C 8.91 g/m*3 9.8 C 0 km/h
20 09-01-2020 01:35:00 9.8 C 8.91 g/m*3 9.8 C 0 km/h
21 09-01-2020 01:40:00 9.8 C 8.91 g/m*3 9.8 C 0 km/h
22 09-01-2020 01:45:00 9.8 C 8.91 g/m*3 9.8 C 0 km/h
23 09-01-2020 01:50:00 9.7 C 8.85 g/m*3 9.7 C 0 km/h
24 09-01-2020 01:55:00 9.7 C 8.85 g/m*3 9.7 C 0 km/h
25 09-01-2020 02:00:00 9.7 C 8.85 g/m*3 9.7 C 0 km/h
Sensor: Nr:Datum:Temp:Abs-Feuchte:Windchill:Wind:
Aussen-T/F 26 09-01-2020 02:05:00 9.7 C 8.85 g/m*3 9.7 C 0 km/h
27 09-01-2020 02:10:00 9.7 C 8.85 g/m*3 9.7 C 0 km/h
28 09-01-2020 02:15:00 9.6 C 8.79 g/m*3 9.6 C 0 km/h
29 09-01-2020 02:20:00 9.6 C 8.79 g/m*3 9.6 C 0 km/h
30 09-01-2020 02:25:00 9.6 C 8.79 g/m*3 9.6 C 1.6 km/h
31 09-01-2020 02:30:00 9.6 C 8.79 g/m*3 9.6 C 0 km/h
32 09-01-2020 02:35:00 9.6 C 8.79 g/m*3 9.6 C 0 km/h
33 09-01-2020 02:40:00 9.5 C 8.74 g/m*3 9.5 C 1.6 km/h
34 09-01-2020 02:45:00 9.5 C 8.74 g/m*3 9.5 C 4.8 km/h
35 09-01-2020 02:50:00 9.5 C 8.74 g/m*3 9.5 C 4.8 km/h
36 09-01-2020 02:55:00 9.5 C 8.74 g/m*3 9.5 C 4.8 km/h
37 09-01-2020 03:00:00 9.5 C 8.74 g/m*3 9.5 C 1.6 km/h
38 09-01-2020 03:05:00 9.5 C 8.74 g/m*3 9.5 C 0 km/h
39 09-01-2020 03:10:00 9.5 C 8.74 g/m*3 9.5 C 0 km/h
40 09-01-2020 03:15:00 9.5 C 8.74 g/m*3 9.5 C 4.8 km/h
41 09-01-2020 03:20:00 9.4 C 8.68 g/m*3 9.4 C 3.2 km/h
42 09-01-2020 03:25:00 9.4 C 8.68 g/m*3 9.4 C 1.6 km/h
43 09-01-2020 03:30:00 9.4 C 8.68 g/m*3 9.4 C 3.2 km/h
44 09-01-2020 03:35:00 9.4 C 8.68 g/m*3 9.4 C 3.2 km/h
45 09-01-2020 03:40:00 9.4 C 8.68 g/m*3 9.4 C 1.6 km/h
46 09-01-2020 03:45:00 9.4 C 8.68 g/m*3 9.4 C 0 km/h
47 09-01-2020 03:50:00 9.4 C 8.68 g/m*3 9.4 C 0 km/h
48 09-01-2020 03:55:00 9.3 C 8.63 g/m*3 9.3 C 0 km/h
49 09-01-2020 04:00:00 9.3 C 8.63 g/m*3 9.3 C 0 km/h
50 09-01-2020 04:05:00 9.2 C 8.57 g/m*3 9.2 C 0 km/h
Sensor: Nr:Datum:Temp:Abs-Feuchte:Windchill:Wind:
Aussen-T/F 51 09-01-2020 04:10:00 9.2 C 8.57 g/m*3 9.2 C 0 km/h
52 09-01-2020 04:15:00 9.2 C 8.57 g/m*3 9.2 C 0 km/h
53 09-01-2020 04:20:00 9.2 C 8.57 g/m*3 9.2 C 0 km/h
54 09-01-2020 04:25:00 9.2 C 8.57 g/m*3 9.2 C 0 km/h
55 09-01-2020 04:30:00 9.2 C 8.57 g/m*3 9.2 C 0 km/h
56 09-01-2020 04:35:00 9.2 C 8.57 g/m*3 9.2 C 0 km/h
57 09-01-2020 04:40:00 9.2 C 8.66 g/m*3 9.2 C 1.6 km/h
58 09-01-2020 04:45:00 9.3 C 8.72 g/m*3 9.3 C 0 km/h
59 09-01-2020 04:50:00 9.3 C 8.72 g/m*3 9.3 C 0 km/h
60 09-01-2020 04:55:00 9.3 C 8.72 g/m*3 9.3 C 0 km/h
61 09-01-2020 05:00:00 9.3 C 8.72 g/m*3 9.3 C 0 km/h
62 09-01-2020 05:05:00 9.3 C 8.72 g/m*3 9.3 C 0 km/h
63 09-01-2020 05:10:00 9.3 C 8.72 g/m*3 9.3 C 1.6 km/h
64 09-01-2020 05:15:00 9.3 C 8.72 g/m*3 9.3 C 0 km/h
65 09-01-2020 05:20:00 9.3 C 8.72 g/m*3 9.3 C 0 km/h
66 09-01-2020 05:25:00 9.3 C 8.72 g/m*3 9.3 C 1.6 km/h
67 09-01-2020 05:30:00 9.2 C 8.66 g/m*3 9.2 C 0 km/h
68 09-01-2020 05:35:00 9.2 C 8.66 g/m*3 9.2 C 0 km/h
69 09-01-2020 05:40:00 9.2 C 8.66 g/m*3 9.2 C 0 km/h
70 09-01-2020 05:45:00 9.2 C 8.66 g/m*3 9.2 C 0 km/h
71 09-01-2020 05:50:00 9.2 C 8.66 g/m*3 9.2 C 0 km/h
72 09-01-2020 05:55:00 9.2 C 8.66 g/m*3 9.2 C 0 km/h
73 09-01-2020 06:00:00 9.2 C 8.66 g/m*3 9.2 C 0 km/h
74 09-01-2020 06:05:00 9.2 C 8.66 g/m*3 9.2 C 0 km/h
75 09-01-2020 06:10:00 9.2 C 8.66 g/m*3 9.2 C 0 km/h
Sensor: Nr:Datum:Temp:Abs-Feuchte:Windchill:Wind:
Aussen-T/F 76 09-01-2020 06:15:00 9.2 C 8.66 g/m*3 9.2 C 0 km/h
77 09-01-2020 06:20:00 9.2 C 8.66 g/m*3 9.2 C 0 km/h
78 09-01-2020 06:25:00 9.2 C 8.66 g/m*3 9.2 C 0 km/h
79 09-01-2020 06:30:00 9.2 C 8.66 g/m*3 9.2 C 0 km/h
80 09-01-2020 06:35:00 9.2 C 8.66 g/m*3 9.2 C 0 km/h
81 09-01-2020 06:40:00 9.2 C 8.66 g/m*3 9.2 C 0 km/h
82 09-01-2020 06:45:00 9.2 C 8.66 g/m*3 9.2 C 0 km/h
83 09-01-2020 06:50:00 9.3 C 8.72 g/m*3 9.3 C 0 km/h
84 09-01-2020 06:55:00 9.3 C 8.72 g/m*3 9.3 C 3.2 km/h
85 09-01-2020 07:00:00 9.3 C 8.72 g/m*3 9.3 C 3.2 km/h
86 09-01-2020 07:05:00 9.3 C 8.72 g/m*3 9.3 C 0 km/h
87 09-01-2020 07:10:00 9.3 C 8.72 g/m*3 9.3 C 3.2 km/h
88 09-01-2020 07:15:00 9.4 C 8.77 g/m*3 9.4 C 0 km/h
89 09-01-2020 07:20:00 9.4 C 8.77 g/m*3 9.4 C 0 km/h
90 09-01-2020 07:25:00 9.4 C 8.77 g/m*3 9.4 C 0 km/h
91 09-01-2020 07:30:00 9.6 C 8.89 g/m*3 9.6 C 3.2 km/h
92 09-01-2020 07:35:00 9.6 C 8.89 g/m*3 9.6 C 1.6 km/h
93 09-01-2020 07:40:00 9.6 C 8.89 g/m*3 9.6 C 0 km/h
94 09-01-2020 07:45:00 9.6 C 8.89 g/m*3 9.6 C 0 km/h
95 09-01-2020 07:50:00 9.7 C 8.94 g/m*3 9.7 C 3.2 km/h
96 09-01-2020 07:55:00 9.6 C 8.89 g/m*3 9.6 C 0 km/h
97 09-01-2020 08:00:00 9.6 C 8.89 g/m*3 9.6 C 0 km/h
98 09-01-2020 08:05:00 9.6 C 8.89 g/m*3 9.6 C 1.6 km/h
99 09-01-2020 08:10:00 9.6 C 8.89 g/m*3 9.6 C 0 km/h
100 09-01-2020 08:15:00 9.6 C 8.89 g/m*3 9.6 C 0 km/h
Sensor: Nr:Datum:Temp:Abs-Feuchte:Windchill:Wind:
Aussen-T/F 101 09-01-2020 08:20:00 9.7 C 9.03 g/m*3 9.7 C 0 km/h
102 09-01-2020 08:25:00 9.7 C 8.94 g/m*3 9.7 C 0 km/h
103 09-01-2020 08:30:00 9.8 C 9 g/m*3 9.8 C 0 km/h
104 09-01-2020 08:35:00 9.8 C 9.09 g/m*3 9.8 C 0 km/h
105 09-01-2020 08:40:00 9.9 C 9.15 g/m*3 9.9 C 0 km/h
106 09-01-2020 08:45:00 9.9 C 9.15 g/m*3 8.87 C 8.1 km/h
107 09-01-2020 08:50:00 10.1 C 9.27 g/m*3 10.1 C 4.8 km/h
108 09-01-2020 08:55:00 10.2 C 9.33 g/m*3 10.2 C 3.2 km/h
109 09-01-2020 09:00:00 10.2 C 9.33 g/m*3 9.6 C 6.4 km/h
110 09-01-2020 09:05:00 10.3 C 9.39 g/m*3 10.3 C 3.2 km/h
111 09-01-2020 09:10:00 10.4 C 9.44 g/m*3 8.9 C 11.3 km/h
112 09-01-2020 09:15:00 10.6 C 9.57 g/m*3 10.6 C 4.8 km/h
113 09-01-2020 09:20:00 10.6 C 9.57 g/m*3 10.6 C 0 km/h
114 09-01-2020 09:25:00 10.5 C 9.5 g/m*3 10.5 C 4.8 km/h
115 09-01-2020 09:30:00 10.6 C 9.57 g/m*3 9.69 C 8.1 km/h
116 09-01-2020 09:35:00 10.6 C 9.57 g/m*3 10.6 C 1.6 km/h
117 09-01-2020 09:40:00 10.6 C 9.47 g/m*3 10.6 C 0 km/h
118 09-01-2020 09:45:00 10.6 C 9.47 g/m*3 10.6 C 4.8 km/h
119 09-01-2020 09:50:00 10.7 C 9.53 g/m*3 10.7 C 3.2 km/h
120 09-01-2020 09:55:00 10.7 C 9.53 g/m*3 10.7 C 3.2 km/h
121 09-01-2020 10:00:00 10.8 C 9.59 g/m*3 9.16 C 12.9 km/h
122 09-01-2020 10:05:00 10.8 C 9.59 g/m*3 10.8 C 1.6 km/h
123 09-01-2020 10:10:00 10.9 C 9.65 g/m*3 10.9 C 4.8 km/h
124 09-01-2020 10:15:00 10.9 C 9.65 g/m*3 10.9 C 4.8 km/h
125 09-01-2020 10:20:00 11 C 9.71 g/m*3 11 C 4.8 km/h
Sensor: Nr:Datum:Temp:Abs-Feuchte:Windchill:Wind:
Aussen-T/F 126 09-01-2020 10:25:00 11.1 C 9.77 g/m*3 11.1 C 4.8 km/h
127 09-01-2020 10:30:00 11.2 C 9.73 g/m*3 11.2 C 6.4 km/h
128 09-01-2020 10:35:00 11.2 C 9.73 g/m*3 11.2 C 9.7 km/h
129 09-01-2020 10:40:00 11.3 C 9.79 g/m*3 11.3 C 4.8 km/h
130 09-01-2020 10:45:00 11.3 C 9.79 g/m*3 11.3 C 4.8 km/h
131 09-01-2020 10:50:00 11.4 C 9.75 g/m*3 11.4 C 3.2 km/h
132 09-01-2020 10:55:00 11.5 C 9.81 g/m*3 11.5 C 4.8 km/h
133 09-01-2020 11:00:00 11.6 C 9.87 g/m*3 11.6 C 6.4 km/h
134 09-01-2020 11:05:00 11.7 C 9.94 g/m*3 11.7 C 8.1 km/h
135 09-01-2020 11:10:00 11.8 C 9.89 g/m*3 11.8 C 4.8 km/h
136 09-01-2020 11:15:00 11.9 C 9.96 g/m*3 11.9 C 9.7 km/h
137 09-01-2020 11:20:00 12 C 9.91 g/m*3 12 C 11.3 km/h
138 09-01-2020 11:25:00 12.1 C 9.97 g/m*3 12.1 C 9.7 km/h
139 09-01-2020 11:30:00 12.2 C 10.04 g/m*3 12.2 C 11.3 km/h
140 09-01-2020 11:35:00 12.3 C 9.99 g/m*3 12.3 C 9.7 km/h
141 09-01-2020 11:40:00 12.3 C 9.99 g/m*3 12.3 C 16.1 km/h
142 09-01-2020 11:45:00 12.4 C 10.05 g/m*3 12.4 C 16.1 km/h
143 09-01-2020 11:50:00 12.6 C 10.07 g/m*3 12.6 C 14.5 km/h
144 09-01-2020 11:55:00 12.6 C 10.07 g/m*3 12.6 C 8.1 km/h
145 09-01-2020 12:00:00 12.7 C 10.02 g/m*3 12.7 C 12.9 km/h
146 09-01-2020 12:05:00 12.7 C 10.02 g/m*3 12.7 C 8.1 km/h
147 09-01-2020 12:10:00 12.8 C 10.08 g/m*3 12.8 C 11.3 km/h
148 09-01-2020 12:15:00 12.8 C 10.08 g/m*3 12.8 C 9.7 km/h
149 09-01-2020 12:20:00 12.9 C 10.03 g/m*3 12.9 C 9.7 km/h
150 09-01-2020 12:25:00 12.9 C 10.03 g/m*3 12.9 C 19.3 km/h
Sensor: Nr:Datum:Temp:Abs-Feuchte:Windchill:Wind:
Aussen-T/F 151 09-01-2020 12:30:00 13 C 10.09 g/m*3 13 C 19.3 km/h
152 09-01-2020 12:35:00 13.1 C 10.16 g/m*3 13.1 C 11.3 km/h
153 09-01-2020 12:40:00 13.1 C 10.16 g/m*3 13.1 C 14.5 km/h
154 09-01-2020 12:45:00 13.1 C 10.04 g/m*3 13.1 C 12.9 km/h
155 09-01-2020 12:50:00 13.2 C 10.1 g/m*3 13.2 C 19.3 km/h
156 09-01-2020 12:55:00 13.2 C 10.1 g/m*3 13.2 C 17.7 km/h
157 09-01-2020 13:00:00 13.2 C 10.1 g/m*3 13.2 C 12.9 km/h
158 09-01-2020 13:05:00 13.2 C 10.1 g/m*3 13.2 C 16.1 km/h
159 09-01-2020 13:10:00 13.3 C 10.17 g/m*3 13.3 C 14.5 km/h
160 09-01-2020 13:15:00 13.3 C 10.05 g/m*3 13.3 C 24.1 km/h
161 09-01-2020 13:20:00 13.3 C 10.05 g/m*3 13.3 C 16.1 km/h
162 09-01-2020 13:25:00 13.3 C 10.05 g/m*3 13.3 C 16.1 km/h
163 09-01-2020 13:30:00 13.3 C 10.05 g/m*3 13.3 C 20.9 km/h
164 09-01-2020 13:35:00 13.4 C 10.11 g/m*3 13.4 C 9.7 km/h
165 09-01-2020 13:40:00 13.4 C 10.11 g/m*3 13.4 C 12.9 km/h
166 09-01-2020 13:45:00 13.4 C 10.11 g/m*3 13.4 C 19.3 km/h
167 09-01-2020 13:50:00 13.4 C 10.11 g/m*3 13.4 C 11.3 km/h
168 09-01-2020 13:55:00 13.4 C 10.11 g/m*3 13.4 C 11.3 km/h
169 09-01-2020 14:00:00 13.4 C 10.11 g/m*3 13.4 C 12.9 km/h
170 09-01-2020 14:05:00 13.3 C 10.05 g/m*3 13.3 C 9.7 km/h
171 09-01-2020 14:10:00 13.3 C 10.05 g/m*3 13.3 C 16.1 km/h
172 09-01-2020 14:15:00 13.3 C 10.05 g/m*3 13.3 C 14.5 km/h
173 09-01-2020 14:20:00 13.2 C 10.1 g/m*3 13.2 C 8.1 km/h
174 09-01-2020 14:25:00 13.2 C 10.1 g/m*3 13.2 C 6.4 km/h
175 09-01-2020 14:30:00 13.1 C 10.04 g/m*3 13.1 C 9.7 km/h
Sensor: Nr:Datum:Temp:Abs-Feuchte:Windchill:Wind:
Aussen-T/F 176 09-01-2020 14:35:00 13 C 9.98 g/m*3 13 C 8.1 km/h
177 09-01-2020 14:40:00 12.9 C 9.92 g/m*3 12.9 C 11.3 km/h
178 09-01-2020 14:45:00 12.9 C 9.92 g/m*3 12.9 C 9.7 km/h
179 09-01-2020 14:50:00 12.9 C 10.03 g/m*3 12.9 C 8.1 km/h
180 09-01-2020 14:55:00 12.9 C 10.03 g/m*3 12.9 C 4.8 km/h
181 09-01-2020 15:00:00 12.8 C 9.97 g/m*3 12.8 C 4.8 km/h
182 09-01-2020 15:05:00 12.8 C 9.97 g/m*3 12.8 C 14.5 km/h
183 09-01-2020 15:10:00 12.8 C 9.97 g/m*3 12.8 C 12.9 km/h
184 09-01-2020 15:15:00 12.8 C 9.86 g/m*3 12.8 C 12.9 km/h
185 09-01-2020 15:20:00 12.9 C 9.92 g/m*3 12.9 C 9.7 km/h
186 09-01-2020 15:25:00 12.9 C 9.92 g/m*3 12.9 C 8.1 km/h
187 09-01-2020 15:30:00 13.1 C 10.04 g/m*3 13.1 C 9.7 km/h
188 09-01-2020 15:35:00 13.1 C 10.04 g/m*3 13.1 C 8.1 km/h
189 09-01-2020 15:40:00 13.1 C 10.04 g/m*3 13.1 C 12.9 km/h
190 09-01-2020 15:45:00 13 C 9.98 g/m*3 13 C 11.3 km/h
191 09-01-2020 15:50:00 12.9 C 9.92 g/m*3 12.9 C 8.1 km/h
192 09-01-2020 15:55:00 12.9 C 9.92 g/m*3 12.9 C 4.8 km/h
193 09-01-2020 16:00:00 12.9 C 9.92 g/m*3 12.9 C 4.8 km/h
194 09-01-2020 16:05:00 12.8 C 9.86 g/m*3 12.8 C 4.8 km/h
195 09-01-2020 16:10:00 12.8 C 9.86 g/m*3 12.8 C 14.5 km/h
196 09-01-2020 16:15:00 12.9 C 9.92 g/m*3 12.9 C 9.7 km/h
197 09-01-2020 16:20:00 12.8 C 9.86 g/m*3 12.8 C 4.8 km/h
198 09-01-2020 16:25:00 12.8 C 9.86 g/m*3 12.8 C 3.2 km/h
199 09-01-2020 16:30:00 12.8 C 9.86 g/m*3 12.8 C 6.4 km/h
200 09-01-2020 16:35:00 12.8 C 9.86 g/m*3 12.8 C 11.3 km/h
Sensor: Nr:Datum:Temp:Abs-Feuchte:Windchill:Wind:
Aussen-T/F 201 09-01-2020 16:40:00 12.8 C 9.86 g/m*3 12.8 C 8.1 km/h
202 09-01-2020 16:45:00 12.7 C 9.8 g/m*3 12.7 C 4.8 km/h
203 09-01-2020 16:50:00 12.7 C 9.8 g/m*3 12.7 C 1.6 km/h
204 09-01-2020 16:55:00 12.7 C 9.8 g/m*3 12.7 C 3.2 km/h
205 09-01-2020 17:00:00 12.7 C 9.8 g/m*3 12.7 C 6.4 km/h
206 09-01-2020 17:05:00 12.6 C 9.74 g/m*3 12.6 C 3.2 km/h
207 09-01-2020 17:10:00 12.6 C 9.74 g/m*3 12.6 C 1.6 km/h
208 09-01-2020 17:15:00 12.6 C 9.74 g/m*3 12.6 C 20.9 km/h
209 09-01-2020 17:20:00 12.7 C 9.8 g/m*3 12.7 C 8.1 km/h
210 09-01-2020 17:25:00 12.7 C 9.68 g/m*3 12.7 C 0 km/h
211 09-01-2020 17:30:00 12.6 C 9.62 g/m*3 12.6 C 3.2 km/h
212 09-01-2020 17:35:00 12.6 C 9.62 g/m*3 12.6 C 4.8 km/h
213 09-01-2020 17:40:00 12.6 C 9.62 g/m*3 12.6 C 3.2 km/h
214 09-01-2020 17:45:00 12.5 C 9.57 g/m*3 12.5 C 1.6 km/h
215 09-01-2020 17:50:00 12.5 C 9.57 g/m*3 12.5 C 1.6 km/h
216 09-01-2020 17:55:00 12.4 C 9.51 g/m*3 12.4 C 6.4 km/h
217 09-01-2020 18:00:00 12.4 C 9.51 g/m*3 12.4 C 4.8 km/h
218 09-01-2020 18:05:00 12.4 C 9.62 g/m*3 12.4 C 4.8 km/h
219 09-01-2020 18:10:00 12.3 C 9.56 g/m*3 12.3 C 3.2 km/h
220 09-01-2020 18:15:00 12.2 C 9.5 g/m*3 12.2 C 8.1 km/h
221 09-01-2020 18:20:00 12.2 C 9.6 g/m*3 12.2 C 3.2 km/h
222 09-01-2020 18:25:00 12.1 C 9.54 g/m*3 12.1 C 8.1 km/h
223 09-01-2020 18:30:00 12 C 9.48 g/m*3 12 C 1.6 km/h
224 09-01-2020 18:35:00 11.9 C 9.43 g/m*3 11.9 C 6.4 km/h
225 09-01-2020 18:40:00 11.8 C 9.37 g/m*3 11.8 C 3.2 km/h
Sensor: Nr:Datum:Temp:Abs-Feuchte:Windchill:Wind:
Aussen-T/F 226 09-01-2020 18:45:00 11.8 C 9.37 g/m*3 11.8 C 4.8 km/h
227 09-01-2020 18:50:00 11.8 C 9.37 g/m*3 11.8 C 6.4 km/h
228 09-01-2020 18:55:00 11.8 C 9.26 g/m*3 11.8 C 1.6 km/h
229 09-01-2020 19:00:00 11.8 C 9.26 g/m*3 11.8 C 3.2 km/h
230 09-01-2020 19:05:00 11.8 C 9.26 g/m*3 11.8 C 12.9 km/h
231 09-01-2020 19:10:00 11.8 C 9.26 g/m*3 11.8 C 1.6 km/h
232 09-01-2020 19:15:00 11.8 C 9.26 g/m*3 11.8 C 8.1 km/h
233 09-01-2020 19:20:00 11.8 C 9.26 g/m*3 11.8 C 4.8 km/h
234 09-01-2020 19:25:00 11.8 C 9.26 g/m*3 11.8 C 4.8 km/h
235 09-01-2020 19:30:00 11.8 C 9.26 g/m*3 11.8 C 3.2 km/h
236 09-01-2020 19:35:00 11.8 C 9.26 g/m*3 11.8 C 1.6 km/h
237 09-01-2020 19:40:00 11.7 C 9.2 g/m*3 11.7 C 3.2 km/h
238 09-01-2020 19:45:00 11.6 C 9.15 g/m*3 11.6 C 4.8 km/h
239 09-01-2020 19:50:00 11.6 C 9.25 g/m*3 11.6 C 0 km/h
240 09-01-2020 19:55:00 11.5 C 9.19 g/m*3 11.5 C 0 km/h
241 09-01-2020 20:00:00 11.4 C 9.24 g/m*3 11.4 C 0 km/h
242 09-01-2020 20:05:00 11.3 C 9.18 g/m*3 11.3 C 0 km/h
243 09-01-2020 20:10:00 11.1 C 9.07 g/m*3 11.1 C 1.6 km/h
244 09-01-2020 20:15:00 11.1 C 9.17 g/m*3 11.1 C 0 km/h
245 09-01-2020 20:20:00 10.9 C 9.05 g/m*3 10.9 C 4.8 km/h
246 09-01-2020 20:25:00 10.9 C 9.05 g/m*3 10.9 C 1.6 km/h
247 09-01-2020 20:30:00 10.8 C 8.99 g/m*3 10.8 C 1.6 km/h
248 09-01-2020 20:35:00 10.8 C 9.09 g/m*3 10.8 C 4.8 km/h
249 09-01-2020 20:40:00 10.7 C 9.04 g/m*3 9.81 C 8.1 km/h
250 09-01-2020 20:45:00 10.7 C 9.04 g/m*3 10.7 C 4.8 km/h
Sensor: Nr:Datum:Temp:Abs-Feuchte:Windchill:Wind:
Aussen-T/F 251 09-01-2020 20:50:00 10.6 C 8.98 g/m*3 10.6 C 4.8 km/h
252 09-01-2020 20:55:00 10.5 C 8.92 g/m*3 9.02 C 11.3 km/h
253 09-01-2020 21:00:00 10.4 C 8.87 g/m*3 10.4 C 3.2 km/h
254 09-01-2020 21:05:00 10.4 C 8.87 g/m*3 9.83 C 6.4 km/h
255 09-01-2020 21:10:00 10.3 C 8.81 g/m*3 10.3 C 3.2 km/h
256 09-01-2020 21:15:00 10.3 C 8.81 g/m*3 10.3 C 1.6 km/h
257 09-01-2020 21:20:00 10.3 C 8.91 g/m*3 10.3 C 0 km/h
258 09-01-2020 21:25:00 10.2 C 8.85 g/m*3 10.2 C 0 km/h
259 09-01-2020 21:30:00 10.2 C 8.85 g/m*3 10.2 C 3.2 km/h
260 09-01-2020 21:35:00 10.1 C 8.79 g/m*3 10.1 C 3.2 km/h
261 09-01-2020 21:40:00 10.1 C 8.79 g/m*3 8.8 C 9.7 km/h
262 09-01-2020 21:45:00 10.1 C 8.79 g/m*3 10.1 C 1.6 km/h
263 09-01-2020 21:50:00 10.1 C 8.79 g/m*3 10.1 C 1.6 km/h
264 09-01-2020 21:55:00 10.1 C 8.79 g/m*3 10.1 C 1.6 km/h
265 09-01-2020 22:00:00 10 C 8.74 g/m*3 10 C 0 km/h
266 09-01-2020 22:05:00 10 C 8.74 g/m*3 10 C 0 km/h
267 09-01-2020 22:10:00 9.9 C 8.68 g/m*3 9.9 C 0 km/h
268 09-01-2020 22:15:00 9.9 C 8.78 g/m*3 9.9 C 1.6 km/h
269 09-01-2020 22:20:00 9.9 C 8.78 g/m*3 9.9 C 0 km/h
270 09-01-2020 22:25:00 9.9 C 8.78 g/m*3 9.9 C 0 km/h
271 09-01-2020 22:30:00 9.8 C 8.72 g/m*3 9.8 C 0 km/h
272 09-01-2020 22:35:00 9.8 C 8.72 g/m*3 9.8 C 1.6 km/h
273 09-01-2020 22:40:00 9.8 C 8.72 g/m*3 9.8 C 3.2 km/h
274 09-01-2020 22:45:00 9.8 C 8.63 g/m*3 9.8 C 1.6 km/h
275 09-01-2020 22:50:00 9.8 C 8.63 g/m*3 9.8 C 0 km/h
Sensor: Nr:Datum:Temp:Abs-Feuchte:Windchill:Wind:
Aussen-T/F 276 09-01-2020 22:55:00 9.9 C 8.68 g/m*3 9.25 C 6.4 km/h
277 09-01-2020 23:00:00 10 C 8.64 g/m*3 9.37 C 6.4 km/h
278 09-01-2020 23:05:00 10.1 C 8.61 g/m*3 9.48 C 6.4 km/h
279 09-01-2020 23:10:00 10.2 C 8.66 g/m*3 8.66 C 11.3 km/h
280 09-01-2020 23:15:00 10.3 C 8.62 g/m*3 10.3 C 3.2 km/h
281 09-01-2020 23:20:00 10.3 C 8.62 g/m*3 10.3 C 3.2 km/h
282 09-01-2020 23:25:00 10.3 C 8.62 g/m*3 10.3 C 0 km/h
283 09-01-2020 23:30:00 10.3 C 8.62 g/m*3 10.3 C 0 km/h
284 09-01-2020 23:35:00 10.3 C 8.62 g/m*3 10.3 C 3.2 km/h
285 09-01-2020 23:40:00 10.3 C 8.52 g/m*3 9.72 C 6.4 km/h
286 09-01-2020 23:45:00 10.3 C 8.52 g/m*3 9.72 C 6.4 km/h
287 09-01-2020 23:50:00 10.4 C 8.58 g/m*3 8.9 C 11.3 km/h
288 09-01-2020 23:55:00 10.5 C 8.53 g/m*3 8.8 C 12.9 km/h
289 10-01-2020 00:00:00 10.6 C 8.59 g/m*3 9.69 C 8.1 km/h
290 10-01-2020 00:05:00 10.6 C 8.59 g/m*3 9.14 C 11.3 km/h
291 10-01-2020 00:10:00 10.6 C 8.59 g/m*3 10.06 C 6.4 km/h
292 10-01-2020 00:15:00 10.6 C 8.59 g/m*3 9.69 C 8.1 km/h
293 10-01-2020 00:20:00 10.6 C 8.59 g/m*3 10.6 C 0 km/h
294 10-01-2020 00:25:00 10.6 C 8.59 g/m*3 10.6 C 1.6 km/h
295 10-01-2020 00:30:00 10.5 C 8.53 g/m*3 10.5 C 0 km/h
296 10-01-2020 00:35:00 10.5 C 8.53 g/m*3 10.5 C 0 km/h
297 10-01-2020 00:40:00 10.4 C 8.58 g/m*3 10.4 C 0 km/h
298 10-01-2020 00:45:00 10.4 C 8.58 g/m*3 10.4 C 0 km/h
299 10-01-2020 00:50:00 10.3 C 8.52 g/m*3 10.3 C 3.2 km/h
300 10-01-2020 00:55:00 10.3 C 8.52 g/m*3 10.3 C 4.8 km/h
Sensor: Nr:Datum:Temp:Abs-Feuchte:Windchill:Wind:
Aussen-T/F 301 10-01-2020 01:00:00 10.2 C 8.47 g/m*3 10.2 C 3.2 km/h
302 10-01-2020 01:05:00 10.2 C 8.47 g/m*3 10.2 C 3.2 km/h
303 10-01-2020 01:10:00 10.3 C 8.52 g/m*3 10.3 C 3.2 km/h
304 10-01-2020 01:15:00 10.3 C 8.52 g/m*3 10.3 C 1.6 km/h
305 10-01-2020 01:20:00 10.3 C 8.52 g/m*3 10.3 C 1.6 km/h
306 10-01-2020 01:25:00 10.3 C 8.52 g/m*3 10.3 C 4.8 km/h
307 10-01-2020 01:30:00 10.3 C 8.52 g/m*3 10.3 C 3.2 km/h
308 10-01-2020 01:35:00 10.3 C 8.52 g/m*3 10.3 C 4.8 km/h
309 10-01-2020 01:40:00 10.3 C 8.43 g/m*3 9.34 C 8.1 km/h
310 10-01-2020 01:45:00 10.3 C 8.52 g/m*3 10.3 C 3.2 km/h
311 10-01-2020 01:50:00 10.3 C 8.52 g/m*3 10.3 C 4.8 km/h
312 10-01-2020 01:55:00 10.3 C 8.52 g/m*3 10.3 C 4.8 km/h
313 10-01-2020 02:00:00 10.2 C 8.47 g/m*3 8.92 C 9.7 km/h
314 10-01-2020 02:05:00 10.2 C 8.47 g/m*3 9.6 C 6.4 km/h
315 10-01-2020 02:10:00 10.2 C 8.47 g/m*3 9.22 C 8.1 km/h
316 10-01-2020 02:15:00 10.2 C 8.47 g/m*3 10.2 C 4.8 km/h
317 10-01-2020 02:20:00 10.2 C 8.47 g/m*3 9.6 C 6.4 km/h
318 10-01-2020 02:25:00 10.2 C 8.47 g/m*3 8.66 C 11.3 km/h
319 10-01-2020 02:30:00 10.3 C 8.52 g/m*3 9.04 C 9.7 km/h
320 10-01-2020 02:35:00 10.3 C 8.52 g/m*3 9.34 C 8.1 km/h
321 10-01-2020 02:40:00 10.3 C 8.43 g/m*3 8.55 C 12.9 km/h
322 10-01-2020 02:45:00 10.3 C 8.43 g/m*3 9.34 C 8.1 km/h
323 10-01-2020 02:50:00 10.2 C 8.37 g/m*3 10.2 C 4.8 km/h
324 10-01-2020 02:55:00 10.2 C 8.47 g/m*3 10.2 C 3.2 km/h
325 10-01-2020 03:00:00 10.2 C 8.37 g/m*3 8.43 C 12.9 km/h
Sensor: Nr:Datum:Temp:Abs-Feuchte:Windchill:Wind:
Aussen-T/F 326 10-01-2020 03:05:00 10.2 C 8.47 g/m*3 9.22 C 8.1 km/h
327 10-01-2020 03:10:00 10.2 C 8.37 g/m*3 9.6 C 6.4 km/h
328 10-01-2020 03:15:00 10.3 C 8.43 g/m*3 9.72 C 6.4 km/h
329 10-01-2020 03:20:00 10.3 C 8.43 g/m*3 10.3 C 4.8 km/h
330 10-01-2020 03:25:00 10.3 C 8.43 g/m*3 10.3 C 3.2 km/h
331 10-01-2020 03:30:00 10.2 C 8.37 g/m*3 8.92 C 9.7 km/h
332 10-01-2020 03:35:00 10.3 C 8.33 g/m*3 8.34 C 14.5 km/h
333 10-01-2020 03:40:00 10.4 C 8.38 g/m*3 10.4 C 4.8 km/h
334 10-01-2020 03:45:00 10.4 C 8.29 g/m*3 8.9 C 11.3 km/h
335 10-01-2020 03:50:00 10.4 C 8.29 g/m*3 9.83 C 6.4 km/h
336 10-01-2020 03:55:00 10.3 C 8.14 g/m*3 10.3 C 4.8 km/h
337 10-01-2020 04:00:00 10.3 C 8.14 g/m*3 8.78 C 11.3 km/h
338 10-01-2020 04:05:00 10.3 C 8.14 g/m*3 8.78 C 11.3 km/h
339 10-01-2020 04:10:00 10.4 C 8.1 g/m*3 8.28 C 16.1 km/h
340 10-01-2020 04:15:00 10.4 C 8.1 g/m*3 8.67 C 12.9 km/h
341 10-01-2020 04:20:00 10.4 C 8 g/m*3 8.28 C 16.1 km/h
342 10-01-2020 04:25:00 10.3 C 7.95 g/m*3 8.78 C 11.3 km/h
343 10-01-2020 04:30:00 10.3 C 7.95 g/m*3 8.78 C 11.3 km/h
344 10-01-2020 04:35:00 10.3 C 7.95 g/m*3 9.34 C 8.1 km/h
345 10-01-2020 04:40:00 10.3 C 7.95 g/m*3 9.04 C 9.7 km/h
346 10-01-2020 04:45:00 10.3 C 7.95 g/m*3 9.04 C 9.7 km/h
347 10-01-2020 04:50:00 10.3 C 7.95 g/m*3 9.34 C 8.1 km/h
348 10-01-2020 04:55:00 10.3 C 7.95 g/m*3 10.3 C 4.8 km/h
349 10-01-2020 05:00:00 10.2 C 7.9 g/m*3 9.22 C 8.1 km/h
350 10-01-2020 05:05:00 10.2 C 7.9 g/m*3 8.92 C 9.7 km/h
Sensor: Nr:Datum:Temp:Abs-Feuchte:Windchill:Wind:
Aussen-T/F 351 10-01-2020 05:10:00 10.1 C 7.85 g/m*3 8.8 C 9.7 km/h
352 10-01-2020 05:15:00 10.1 C 7.85 g/m*3 8.8 C 9.7 km/h
353 10-01-2020 05:20:00 10.1 C 7.85 g/m*3 8.8 C 9.7 km/h
354 10-01-2020 05:25:00 10.2 C 7.9 g/m*3 9.22 C 8.1 km/h
355 10-01-2020 05:30:00 10.1 C 7.85 g/m*3 9.1 C 8.1 km/h
356 10-01-2020 05:35:00 9.9 C 7.84 g/m*3 8.56 C 9.7 km/h
357 10-01-2020 05:40:00 9.9 C 7.75 g/m*3 9.9 C 4.8 km/h
358 10-01-2020 05:45:00 9.9 C 7.84 g/m*3 9.9 C 0 km/h
359 10-01-2020 05:50:00 9.8 C 7.79 g/m*3 9.8 C 3.2 km/h
360 10-01-2020 05:55:00 9.8 C 7.89 g/m*3 9.8 C 4.8 km/h
361 10-01-2020 06:00:00 9.8 C 7.89 g/m*3 9.8 C 1.6 km/h
362 10-01-2020 06:05:00 9.7 C 7.84 g/m*3 9.7 C 3.2 km/h
363 10-01-2020 06:10:00 9.7 C 7.84 g/m*3 9.7 C 1.6 km/h
364 10-01-2020 06:15:00 9.7 C 7.93 g/m*3 9.7 C 4.8 km/h
365 10-01-2020 06:20:00 9.7 C 7.93 g/m*3 9.7 C 4.8 km/h
366 10-01-2020 06:25:00 9.7 C 8.02 g/m*3 9.7 C 3.2 km/h
367 10-01-2020 06:30:00 9.7 C 8.11 g/m*3 9.7 C 0 km/h
368 10-01-2020 06:35:00 9.6 C 8.15 g/m*3 9.6 C 1.6 km/h
369 10-01-2020 06:40:00 9.4 C 8.14 g/m*3 9.4 C 1.6 km/h
370 10-01-2020 06:45:00 9.3 C 8.18 g/m*3 9.3 C 0 km/h
371 10-01-2020 06:50:00 9.2 C 8.13 g/m*3 9.2 C 0 km/h
372 10-01-2020 06:55:00 9.1 C 8.07 g/m*3 9.1 C 1.6 km/h
373 10-01-2020 07:00:00 8.9 C 8.06 g/m*3 8.9 C 0 km/h
374 10-01-2020 07:05:00 8.9 C 8.06 g/m*3 8.9 C 0 km/h
375 10-01-2020 07:10:00 8.9 C 8.06 g/m*3 8.9 C 0 km/h
Sensor: Nr:Datum:Temp:Abs-Feuchte:Windchill:Wind:
Aussen-T/F 376 10-01-2020 07:15:00 8.8 C 8.09 g/m*3 8.8 C 0 km/h
377 10-01-2020 07:20:00 8.8 C 8.09 g/m*3 8.8 C 0 km/h
378 10-01-2020 07:25:00 8.7 C 8.04 g/m*3 8.7 C 0 km/h
379 10-01-2020 07:30:00 8.7 C 8.04 g/m*3 8.7 C 0 km/h
380 10-01-2020 07:35:00 8.6 C 7.99 g/m*3 8.6 C 1.6 km/h
381 10-01-2020 07:40:00 8.6 C 7.99 g/m*3 8.6 C 1.6 km/h
382 10-01-2020 07:45:00 8.6 C 8.08 g/m*3 8.6 C 0 km/h
383 10-01-2020 07:50:00 8.6 C 8.08 g/m*3 8.6 C 0 km/h
384 10-01-2020 07:55:00 8.5 C 8.03 g/m*3 8.5 C 0 km/h
385 10-01-2020 08:00:00 8.5 C 8.03 g/m*3 8.5 C 0 km/h
386 10-01-2020 08:05:00 8.4 C 7.97 g/m*3 8.4 C 0 km/h
387 10-01-2020 08:10:00 8.4 C 7.97 g/m*3 8.4 C 0 km/h
388 10-01-2020 08:15:00 8.4 C 7.97 g/m*3 8.4 C 0 km/h
389 10-01-2020 08:20:00 8.4 C 7.97 g/m*3 8.4 C 0 km/h
390 10-01-2020 08:25:00 8.4 C 7.97 g/m*3 8.4 C 0 km/h
391 10-01-2020 08:30:00 8.4 C 7.97 g/m*3 8.4 C 0 km/h
392 10-01-2020 08:35:00 8.4 C 7.97 g/m*3 8.4 C 0 km/h
393 10-01-2020 08:40:00 8.4 C 7.97 g/m*3 8.4 C 1.6 km/h
394 10-01-2020 08:45:00 8.4 C 7.97 g/m*3 8.4 C 1.6 km/h
395 10-01-2020 08:50:00 8.5 C 8.03 g/m*3 8.5 C 0 km/h
396 10-01-2020 08:55:00 8.6 C 7.99 g/m*3 8.6 C 0 km/h
397 10-01-2020 09:00:00 8.6 C 7.99 g/m*3 8.6 C 1.6 km/h
398 10-01-2020 09:05:00 8.6 C 7.99 g/m*3 7.34 C 8.1 km/h
399 10-01-2020 09:10:00 8.7 C 7.96 g/m*3 8.7 C 1.6 km/h
400 10-01-2020 09:15:00 8.8 C 8.01 g/m*3 8.8 C 0 km/h
Sensor: Nr:Datum:Temp:Abs-Feuchte:Windchill:Wind:
Aussen-T/F 401 10-01-2020 09:20:00 8.8 C 8.01 g/m*3 8.8 C 0 km/h
402 10-01-2020 09:25:00 8.9 C 7.97 g/m*3 7.37 C 9.7 km/h
403 10-01-2020 09:30:00 9.1 C 8.07 g/m*3 9.1 C 1.6 km/h
404 10-01-2020 09:35:00 9.2 C 8.13 g/m*3 9.2 C 0 km/h
405 10-01-2020 09:40:00 9.2 C 8.04 g/m*3 9.2 C 3.2 km/h
406 10-01-2020 09:45:00 9.3 C 8.09 g/m*3 9.3 C 1.6 km/h
407 10-01-2020 09:50:00 9.3 C 8.09 g/m*3 9.3 C 3.2 km/h
408 10-01-2020 09:55:00 9.4 C 8.05 g/m*3 9.4 C 3.2 km/h
409 10-01-2020 10:00:00 9.5 C 8.1 g/m*3 9.5 C 3.2 km/h
410 10-01-2020 10:05:00 9.6 C 8.15 g/m*3 9.6 C 1.6 km/h
411 10-01-2020 10:10:00 9.6 C 8.06 g/m*3 9.6 C 1.6 km/h
412 10-01-2020 10:15:00 9.6 C 8.06 g/m*3 9.6 C 3.2 km/h
413 10-01-2020 10:20:00 9.6 C 8.15 g/m*3 9.6 C 0 km/h
414 10-01-2020 10:25:00 9.7 C 8.11 g/m*3 9.7 C 3.2 km/h
415 10-01-2020 10:30:00 9.7 C 8.11 g/m*3 9.7 C 0 km/h
416 10-01-2020 10:35:00 9.7 C 8.11 g/m*3 9.7 C 4.8 km/h
417 10-01-2020 10:40:00 9.7 C 8.11 g/m*3 8.63 C 8.1 km/h
418 10-01-2020 10:45:00 9.8 C 8.16 g/m*3 9.8 C 3.2 km/h
419 10-01-2020 10:50:00 9.8 C 8.07 g/m*3 9.8 C 3.2 km/h
420 10-01-2020 10:55:00 9.8 C 8.07 g/m*3 9.8 C 3.2 km/h
421 10-01-2020 11:00:00 9.9 C 8.12 g/m*3 9.25 C 6.4 km/h
422 10-01-2020 11:05:00 10.1 C 8.13 g/m*3 9.48 C 6.4 km/h
423 10-01-2020 11:10:00 10.2 C 8.18 g/m*3 9.22 C 8.1 km/h
424 10-01-2020 11:15:00 10.3 C 8.24 g/m*3 8.55 C 12.9 km/h
425 10-01-2020 11:20:00 10.4 C 8.19 g/m*3 8.9 C 11.3 km/h
Sensor: Nr:Datum:Temp:Abs-Feuchte:Windchill:Wind:
Aussen-T/F 426 10-01-2020 11:25:00 10.4 C 8.29 g/m*3 8.9 C 11.3 km/h
427 10-01-2020 11:30:00 10.4 C 8.29 g/m*3 9.83 C 6.4 km/h
428 10-01-2020 11:35:00 10.5 C 8.34 g/m*3 8.8 C 12.9 km/h
429 10-01-2020 11:40:00 10.6 C 8.3 g/m*3 8.92 C 12.9 km/h
430 10-01-2020 11:45:00 10.6 C 8.39 g/m*3 9.4 C 9.7 km/h
431 10-01-2020 11:50:00 10.6 C 8.39 g/m*3 9.14 C 11.3 km/h
432 10-01-2020 11:55:00 10.7 C 8.45 g/m*3 9.26 C 11.3 km/h
433 10-01-2020 12:00:00 10.7 C 8.45 g/m*3 9.26 C 11.3 km/h
434 10-01-2020 12:05:00 10.8 C 8.4 g/m*3 9.16 C 12.9 km/h
435 10-01-2020 12:10:00 10.8 C 8.4 g/m*3 8.96 C 14.5 km/h
436 10-01-2020 12:15:00 10.8 C 8.5 g/m*3 8.17 C 22.5 km/h
437 10-01-2020 12:20:00 10.8 C 8.4 g/m*3 8.3 C 20.9 km/h
438 10-01-2020 12:25:00 10.7 C 8.45 g/m*3 8.65 C 16.1 km/h
439 10-01-2020 12:30:00 10.7 C 8.45 g/m*3 9.26 C 11.3 km/h
440 10-01-2020 12:35:00 10.6 C 8.39 g/m*3 9.14 C 11.3 km/h
441 10-01-2020 12:40:00 10.7 C 8.55 g/m*3 9.04 C 12.9 km/h
442 10-01-2020 12:45:00 10.7 C 8.55 g/m*3 9.26 C 11.3 km/h
443 10-01-2020 12:50:00 10.7 C 8.55 g/m*3 8.84 C 14.5 km/h
444 10-01-2020 12:55:00 10.5 C 8.53 g/m*3 8.23 C 17.7 km/h
445 10-01-2020 13:00:00 10.2 C 8.37 g/m*3 8.22 C 14.5 km/h
446 10-01-2020 13:05:00 9.9 C 8.31 g/m*3 9.25 C 6.4 km/h
447 10-01-2020 13:10:00 9.7 C 8.2 g/m*3 8.06 C 11.3 km/h
448 10-01-2020 13:15:00 9.4 C 8.05 g/m*3 9.4 C 4.8 km/h
449 10-01-2020 13:20:00 9.3 C 8.09 g/m*3 9.3 C 1.6 km/h
450 10-01-2020 13:25:00 9.3 C 8.09 g/m*3 9.3 C 1.6 km/h
Sensor: Nr:Datum:Temp:Abs-Feuchte:Windchill:Wind:
Aussen-T/F 451 10-01-2020 13:30:00 9.2 C 8.13 g/m*3 9.2 C 1.6 km/h
452 10-01-2020 13:35:00 9.2 C 8.13 g/m*3 9.2 C 4.8 km/h
453 10-01-2020 13:40:00 9.2 C 8.13 g/m*3 9.2 C 1.6 km/h
454 10-01-2020 13:45:00 9.2 C 8.22 g/m*3 9.2 C 3.2 km/h
455 10-01-2020 13:50:00 9.2 C 8.22 g/m*3 9.2 C 0 km/h
456 10-01-2020 13:55:00 9.2 C 8.22 g/m*3 9.2 C 0 km/h
457 10-01-2020 14:00:00 9.1 C 8.16 g/m*3 7.93 C 8.1 km/h
458 10-01-2020 14:05:00 9 C 7.93 g/m*3 6.75 C 14.5 km/h
459 10-01-2020 14:10:00 9 C 7.93 g/m*3 8.21 C 6.4 km/h
460 10-01-2020 14:15:00 9.1 C 7.99 g/m*3 9.1 C 4.8 km/h
461 10-01-2020 14:20:00 9.1 C 7.99 g/m*3 9.1 C 4.8 km/h
462 10-01-2020 14:25:00 9.1 C 7.99 g/m*3 7.93 C 8.1 km/h
463 10-01-2020 14:30:00 9.1 C 7.9 g/m*3 9.1 C 4.8 km/h
464 10-01-2020 14:35:00 9.1 C 7.81 g/m*3 9.1 C 3.2 km/h
465 10-01-2020 14:40:00 9.1 C 7.72 g/m*3 7.61 C 9.7 km/h
466 10-01-2020 14:45:00 9.1 C 7.72 g/m*3 7.93 C 8.1 km/h
467 10-01-2020 14:50:00 9.2 C 7.59 g/m*3 6.99 C 14.5 km/h
468 10-01-2020 14:55:00 9.2 C 7.59 g/m*3 7.46 C 11.3 km/h
469 10-01-2020 15:00:00 9.2 C 7.59 g/m*3 7.73 C 9.7 km/h
470 10-01-2020 15:05:00 9.2 C 7.59 g/m*3 7.73 C 9.7 km/h
471 10-01-2020 15:10:00 9.2 C 7.5 g/m*3 8.05 C 8.1 km/h
472 10-01-2020 15:15:00 9.2 C 7.5 g/m*3 7.73 C 9.7 km/h
473 10-01-2020 15:20:00 9.2 C 7.59 g/m*3 8.45 C 6.4 km/h
474 10-01-2020 15:25:00 9.2 C 7.5 g/m*3 8.45 C 6.4 km/h
475 10-01-2020 15:30:00 9.2 C 7.5 g/m*3 6.79 C 16.1 km/h
Sensor: Nr:Datum:Temp:Abs-Feuchte:Windchill:Wind:
Aussen-T/F 476 10-01-2020 15:35:00 9.2 C 7.5 g/m*3 6.99 C 14.5 km/h
477 10-01-2020 15:40:00 9.1 C 7.54 g/m*3 8.33 C 6.4 km/h
478 10-01-2020 15:45:00 9.1 C 7.54 g/m*3 7.93 C 8.1 km/h
479 10-01-2020 15:50:00 9.1 C 7.54 g/m*3 8.33 C 6.4 km/h
480 10-01-2020 15:55:00 9 C 7.49 g/m*3 7.81 C 8.1 km/h
481 10-01-2020 16:00:00 9 C 7.49 g/m*3 7.49 C 9.7 km/h
482 10-01-2020 16:05:00 8.9 C 7.53 g/m*3 7.37 C 9.7 km/h
483 10-01-2020 16:10:00 8.9 C 7.62 g/m*3 7.37 C 9.7 km/h
484 10-01-2020 16:15:00 8.8 C 7.57 g/m*3 6.97 C 11.3 km/h
485 10-01-2020 16:20:00 8.7 C 7.61 g/m*3 7.87 C 6.4 km/h
486 10-01-2020 16:25:00 8.6 C 7.65 g/m*3 7.75 C 6.4 km/h
487 10-01-2020 16:30:00 8.4 C 7.55 g/m*3 6.01 C 14.5 km/h
488 10-01-2020 16:35:00 8.4 C 7.47 g/m*3 6.01 C 14.5 km/h
489 10-01-2020 16:40:00 8.3 C 7.42 g/m*3 6.66 C 9.7 km/h
490 10-01-2020 16:45:00 8.2 C 7.45 g/m*3 5.76 C 14.5 km/h
491 10-01-2020 16:50:00 8.1 C 7.41 g/m*3 6.42 C 9.7 km/h
492 10-01-2020 16:55:00 7.9 C 7.31 g/m*3 5.18 C 16.1 km/h
493 10-01-2020 17:00:00 7.9 C 7.39 g/m*3 5.89 C 11.3 km/h
494 10-01-2020 17:05:00 7.8 C 7.35 g/m*3 6.06 C 9.7 km/h
495 10-01-2020 17:10:00 7.8 C 7.35 g/m*3 7.8 C 4.8 km/h
496 10-01-2020 17:15:00 7.8 C 7.35 g/m*3 6.06 C 9.7 km/h
497 10-01-2020 17:20:00 7.8 C 7.26 g/m*3 5.77 C 11.3 km/h
498 10-01-2020 17:25:00 7.8 C 7.26 g/m*3 5.77 C 11.3 km/h
499 10-01-2020 17:30:00 7.8 C 7.26 g/m*3 6.06 C 9.7 km/h
500 10-01-2020 17:35:00 7.7 C 7.14 g/m*3 6.28 C 8.1 km/h
Sensor: Nr:Datum:Temp:Abs-Feuchte:Windchill:Wind:
Aussen-T/F 501 10-01-2020 17:40:00 7.6 C 7.09 g/m*3 5.82 C 9.7 km/h
502 10-01-2020 17:45:00 7.6 C 7.09 g/m*3 5.82 C 9.7 km/h
503 10-01-2020 17:50:00 7.7 C 7.14 g/m*3 5.38 C 12.9 km/h
504 10-01-2020 17:55:00 7.7 C 7.14 g/m*3 5.65 C 11.3 km/h
505 10-01-2020 18:00:00 7.7 C 7.14 g/m*3 6.71 C 6.4 km/h
506 10-01-2020 18:05:00 7.7 C 7.14 g/m*3 6.71 C 6.4 km/h
507 10-01-2020 18:10:00 7.7 C 7.14 g/m*3 7.7 C 4.8 km/h
508 10-01-2020 18:15:00 7.7 C 7.14 g/m*3 5.65 C 11.3 km/h
509 10-01-2020 18:20:00 7.7 C 7.22 g/m*3 7.7 C 4.8 km/h
510 10-01-2020 18:25:00 7.7 C 7.22 g/m*3 5.94 C 9.7 km/h
511 10-01-2020 18:30:00 7.7 C 7.14 g/m*3 5.65 C 11.3 km/h
512 10-01-2020 18:35:00 7.7 C 7.14 g/m*3 6.28 C 8.1 km/h
513 10-01-2020 18:40:00 7.7 C 7.14 g/m*3 6.71 C 6.4 km/h
514 10-01-2020 18:45:00 7.7 C 7.14 g/m*3 7.7 C 3.2 km/h
515 10-01-2020 18:50:00 7.7 C 7.14 g/m*3 5.65 C 11.3 km/h
516 10-01-2020 18:55:00 7.7 C 7.22 g/m*3 5.65 C 11.3 km/h
517 10-01-2020 19:00:00 7.6 C 7.17 g/m*3 5.53 C 11.3 km/h
518 10-01-2020 19:05:00 7.5 C 7.12 g/m*3 5.14 C 12.9 km/h
519 10-01-2020 19:10:00 7.4 C 7.08 g/m*3 5.02 C 12.9 km/h
520 10-01-2020 19:15:00 7.3 C 7.11 g/m*3 4.66 C 14.5 km/h
521 10-01-2020 19:20:00 7.3 C 7.19 g/m*3 5.47 C 9.7 km/h
522 10-01-2020 19:25:00 7.2 C 7.14 g/m*3 4.77 C 12.9 km/h
523 10-01-2020 19:30:00 7.2 C 7.06 g/m*3 6.13 C 6.4 km/h
524 10-01-2020 19:35:00 7.1 C 7.1 g/m*3 4.92 C 11.3 km/h
525 10-01-2020 19:40:00 7.1 C 7.1 g/m*3 7.1 C 3.2 km/h
Sensor: Nr:Datum:Temp:Abs-Feuchte:Windchill:Wind:
Aussen-T/F 526 10-01-2020 19:45:00 7.1 C 7.1 g/m*3 7.1 C 0 km/h
527 10-01-2020 19:50:00 7 C 7.05 g/m*3 5.9 C 6.4 km/h
528 10-01-2020 19:55:00 6.9 C 7.01 g/m*3 6.9 C 1.6 km/h
529 10-01-2020 20:00:00 6.9 C 7.01 g/m*3 5.79 C 6.4 km/h
530 10-01-2020 20:05:00 6.9 C 7.01 g/m*3 6.9 C 0 km/h
531 10-01-2020 20:10:00 6.9 C 7.08 g/m*3 5.79 C 6.4 km/h
532 10-01-2020 20:15:00 6.9 C 7.01 g/m*3 5.79 C 6.4 km/h
533 10-01-2020 20:20:00 6.9 C 7.01 g/m*3 6.9 C 3.2 km/h
534 10-01-2020 20:25:00 6.9 C 6.93 g/m*3 6.9 C 4.8 km/h
535 10-01-2020 20:30:00 6.9 C 6.93 g/m*3 4.68 C 11.3 km/h
536 10-01-2020 20:35:00 6.9 C 6.85 g/m*3 4.99 C 9.7 km/h
537 10-01-2020 20:40:00 6.9 C 6.85 g/m*3 5.34 C 8.1 km/h
538 10-01-2020 20:45:00 6.9 C 6.77 g/m*3 6.9 C 4.8 km/h
539 10-01-2020 20:50:00 6.9 C 6.77 g/m*3 6.9 C 3.2 km/h
540 10-01-2020 20:55:00 6.9 C 6.77 g/m*3 6.9 C 4.8 km/h
541 10-01-2020 21:00:00 6.9 C 6.77 g/m*3 6.9 C 1.6 km/h
542 10-01-2020 21:05:00 6.8 C 6.73 g/m*3 6.8 C 1.6 km/h
543 10-01-2020 21:10:00 6.8 C 6.81 g/m*3 6.8 C 3.2 km/h
544 10-01-2020 21:15:00 6.8 C 6.81 g/m*3 6.8 C 1.6 km/h
545 10-01-2020 21:20:00 6.7 C 6.76 g/m*3 6.7 C 0 km/h
546 10-01-2020 21:25:00 6.6 C 6.72 g/m*3 6.6 C 4.8 km/h
547 10-01-2020 21:30:00 6.6 C 6.72 g/m*3 6.6 C 0 km/h
548 10-01-2020 21:35:00 6.6 C 6.72 g/m*3 6.6 C 3.2 km/h
549 10-01-2020 21:40:00 6.5 C 6.67 g/m*3 6.5 C 4.8 km/h
550 10-01-2020 21:45:00 6.5 C 6.6 g/m*3 4.87 C 8.1 km/h
Sensor: Nr:Datum:Temp:Abs-Feuchte:Windchill:Wind:
Aussen-T/F 551 10-01-2020 21:50:00 6.6 C 6.72 g/m*3 6.6 C 0 km/h
552 10-01-2020 21:55:00 6.6 C 6.64 g/m*3 6.6 C 3.2 km/h
553 10-01-2020 22:00:00 6.6 C 6.64 g/m*3 6.6 C 1.6 km/h
554 10-01-2020 22:05:00 6.6 C 6.64 g/m*3 6.6 C 1.6 km/h
555 10-01-2020 22:10:00 6.6 C 6.64 g/m*3 6.6 C 3.2 km/h
556 10-01-2020 22:15:00 6.6 C 6.64 g/m*3 5.44 C 6.4 km/h
557 10-01-2020 22:20:00 6.6 C 6.64 g/m*3 6.6 C 3.2 km/h
558 10-01-2020 22:25:00 6.6 C 6.64 g/m*3 6.6 C 3.2 km/h
559 10-01-2020 22:30:00 6.7 C 6.69 g/m*3 5.56 C 6.4 km/h
560 10-01-2020 22:35:00 6.7 C 6.69 g/m*3 6.7 C 3.2 km/h
561 10-01-2020 22:40:00 6.7 C 6.69 g/m*3 5.56 C 6.4 km/h
562 10-01-2020 22:45:00 6.7 C 6.61 g/m*3 4.75 C 9.7 km/h
563 10-01-2020 22:50:00 6.8 C 6.65 g/m*3 5.22 C 8.1 km/h
564 10-01-2020 22:55:00 6.8 C 6.65 g/m*3 6.8 C 3.2 km/h
565 10-01-2020 23:00:00 6.8 C 6.65 g/m*3 6.8 C 3.2 km/h
566 10-01-2020 23:05:00 6.8 C 6.65 g/m*3 5.22 C 8.1 km/h
567 10-01-2020 23:10:00 6.8 C 6.65 g/m*3 5.67 C 6.4 km/h
568 10-01-2020 23:15:00 6.8 C 6.65 g/m*3 6.8 C 3.2 km/h
569 10-01-2020 23:20:00 6.8 C 6.65 g/m*3 5.67 C 6.4 km/h
570 10-01-2020 23:25:00 6.8 C 6.65 g/m*3 6.8 C 4.8 km/h
571 10-01-2020 23:30:00 6.8 C 6.65 g/m*3 6.8 C 4.8 km/h
572 10-01-2020 23:35:00 6.8 C 6.65 g/m*3 6.8 C 4.8 km/h
573 10-01-2020 23:40:00 6.8 C 6.65 g/m*3 5.22 C 8.1 km/h
574 10-01-2020 23:45:00 6.7 C 6.53 g/m*3 5.56 C 6.4 km/h
575 10-01-2020 23:50:00 6.7 C 6.53 g/m*3 5.56 C 6.4 km/h
Sensor: Nr:Datum:Temp:Abs-Feuchte:Windchill:Wind:
Aussen-T/F 576 10-01-2020 23:55:00 6.7 C 6.61 g/m*3 5.56 C 6.4 km/h
577 11-01-2020 00:00:00 6.6 C 6.57 g/m*3 5.44 C 6.4 km/h
578 11-01-2020 00:05:00 6.5 C 6.52 g/m*3 6.5 C 4.8 km/h
579 11-01-2020 00:10:00 6.4 C 6.48 g/m*3 6.4 C 1.6 km/h
580 11-01-2020 00:15:00 6.4 C 6.48 g/m*3 6.4 C 4.8 km/h
581 11-01-2020 00:20:00 6.3 C 6.44 g/m*3 5.1 C 6.4 km/h
582 11-01-2020 00:25:00 6.3 C 6.44 g/m*3 6.3 C 3.2 km/h
583 11-01-2020 00:30:00 6.3 C 6.44 g/m*3 6.3 C 1.6 km/h
584 11-01-2020 00:35:00 6.2 C 6.4 g/m*3 6.2 C 0 km/h
585 11-01-2020 00:40:00 6.1 C 6.36 g/m*3 4.86 C 6.4 km/h
586 11-01-2020 00:45:00 6 C 6.31 g/m*3 6 C 0 km/h
587 11-01-2020 00:50:00 5.8 C 6.23 g/m*3 5.8 C 1.6 km/h
588 11-01-2020 00:55:00 5.6 C 6.22 g/m*3 5.6 C 1.6 km/h
589 11-01-2020 01:00:00 5.4 C 6.14 g/m*3 5.4 C 3.2 km/h
590 11-01-2020 01:05:00 5.2 C 6.06 g/m*3 5.2 C 0 km/h
591 11-01-2020 01:10:00 4.9 C 6.01 g/m*3 4.9 C 0 km/h
592 11-01-2020 01:15:00 4.8 C 6.04 g/m*3 4.8 C 0 km/h
593 11-01-2020 01:20:00 4.8 C 6.1 g/m*3 4.8 C 0 km/h
594 11-01-2020 01:25:00 4.8 C 6.1 g/m*3 4.8 C 0 km/h
595 11-01-2020 01:30:00 4.8 C 6.17 g/m*3 4.8 C 0 km/h
596 11-01-2020 01:35:00 4.9 C 6.21 g/m*3 4.9 C 0 km/h
597 11-01-2020 01:40:00 4.9 C 6.21 g/m*3 4.9 C 0 km/h
598 11-01-2020 01:45:00 4.9 C 6.21 g/m*3 4.9 C 0 km/h
599 11-01-2020 01:50:00 4.9 C 6.21 g/m*3 4.9 C 0 km/h
600 11-01-2020 01:55:00 4.9 C 6.21 g/m*3 4.9 C 0 km/h
Sensor: Nr:Datum:Temp:Abs-Feuchte:Windchill:Wind:
Aussen-T/F 601 11-01-2020 02:00:00 4.9 C 6.21 g/m*3 4.9 C 0 km/h
602 11-01-2020 02:05:00 4.9 C 6.14 g/m*3 4.9 C 0 km/h
603 11-01-2020 02:10:00 4.8 C 6.1 g/m*3 4.8 C 0 km/h
604 11-01-2020 02:15:00 4.7 C 6.06 g/m*3 4.7 C 1.6 km/h
605 11-01-2020 02:20:00 4.5 C 5.98 g/m*3 4.5 C 1.6 km/h
606 11-01-2020 02:25:00 4.4 C 6.01 g/m*3 4.4 C 0 km/h
607 11-01-2020 02:30:00 4.3 C 5.9 g/m*3 4.3 C 0 km/h
608 11-01-2020 02:35:00 4.2 C 5.93 g/m*3 4.2 C 0 km/h
609 11-01-2020 02:40:00 4.1 C 5.89 g/m*3 4.1 C 0 km/h
610 11-01-2020 02:45:00 4.1 C 5.89 g/m*3 4.1 C 0 km/h
611 11-01-2020 02:50:00 4 C 5.91 g/m*3 4 C 3.2 km/h
612 11-01-2020 02:55:00 3.9 C 5.87 g/m*3 3.9 C 1.6 km/h
613 11-01-2020 03:00:00 3.9 C 5.87 g/m*3 3.9 C 0 km/h
614 11-01-2020 03:05:00 3.8 C 5.83 g/m*3 3.8 C 0 km/h
615 11-01-2020 03:10:00 3.8 C 5.83 g/m*3 3.8 C 3.2 km/h
616 11-01-2020 03:15:00 3.6 C 5.76 g/m*3 3.6 C 1.6 km/h
617 11-01-2020 03:20:00 3.5 C 5.72 g/m*3 3.5 C 0 km/h
618 11-01-2020 03:25:00 3.4 C 5.68 g/m*3 3.4 C 0 km/h
619 11-01-2020 03:30:00 3.4 C 5.68 g/m*3 3.4 C 3.2 km/h
620 11-01-2020 03:35:00 3.4 C 5.74 g/m*3 3.4 C 3.2 km/h
621 11-01-2020 03:40:00 3.4 C 5.74 g/m*3 3.4 C 1.6 km/h
622 11-01-2020 03:45:00 3.6 C 5.82 g/m*3 3.6 C 0 km/h
623 11-01-2020 03:50:00 3.6 C 5.88 g/m*3 3.6 C 0 km/h
624 11-01-2020 03:55:00 3.7 C 5.92 g/m*3 3.7 C 0 km/h
625 11-01-2020 04:00:00 3.7 C 5.92 g/m*3 3.7 C 0 km/h
Sensor: Nr:Datum:Temp:Abs-Feuchte:Windchill:Wind:
Aussen-T/F 626 11-01-2020 04:05:00 3.7 C 5.92 g/m*3 3.7 C 0 km/h
627 11-01-2020 04:10:00 3.7 C 5.92 g/m*3 3.7 C 0 km/h
628 11-01-2020 04:15:00 3.7 C 5.92 g/m*3 3.7 C 0 km/h
629 11-01-2020 04:20:00 3.8 C 5.96 g/m*3 3.8 C 0 km/h
630 11-01-2020 04:25:00 3.8 C 5.96 g/m*3 3.8 C 0 km/h
631 11-01-2020 04:30:00 3.8 C 5.96 g/m*3 3.8 C 3.2 km/h
632 11-01-2020 04:35:00 3.9 C 6 g/m*3 3.9 C 3.2 km/h
633 11-01-2020 04:40:00 3.9 C 6 g/m*3 3.9 C 0 km/h
634 11-01-2020 04:45:00 3.9 C 6 g/m*3 3.9 C 3.2 km/h
635 11-01-2020 04:50:00 3.9 C 6 g/m*3 3.9 C 0 km/h
636 11-01-2020 04:55:00 3.9 C 6 g/m*3 3.9 C 0 km/h
637 11-01-2020 05:00:00 3.9 C 6 g/m*3 3.9 C 1.6 km/h
638 11-01-2020 05:05:00 3.9 C 6 g/m*3 3.9 C 0 km/h
639 11-01-2020 05:10:00 3.8 C 5.96 g/m*3 3.8 C 0 km/h
640 11-01-2020 05:15:00 3.8 C 5.9 g/m*3 3.8 C 0 km/h
641 11-01-2020 05:20:00 3.8 C 5.9 g/m*3 3.8 C 0 km/h
642 11-01-2020 05:25:00 3.7 C 5.86 g/m*3 3.7 C 0 km/h
643 11-01-2020 05:30:00 3.6 C 5.82 g/m*3 3.6 C 1.6 km/h
644 11-01-2020 05:35:00 3.6 C 5.88 g/m*3 3.6 C 0 km/h
645 11-01-2020 05:40:00 3.6 C 5.88 g/m*3 3.6 C 3.2 km/h
646 11-01-2020 05:45:00 3.6 C 5.88 g/m*3 3.6 C 1.6 km/h
647 11-01-2020 05:50:00 3.7 C 5.92 g/m*3 2.09 C 6.4 km/h
648 11-01-2020 05:55:00 3.7 C 5.92 g/m*3 3.7 C 3.2 km/h
649 11-01-2020 06:00:00 3.7 C 5.92 g/m*3 3.7 C 3.2 km/h
650 11-01-2020 06:05:00 3.7 C 5.92 g/m*3 3.7 C 4.8 km/h
Sensor: Nr:Datum:Temp:Abs-Feuchte:Windchill:Wind:
Aussen-T/F 651 11-01-2020 06:10:00 3.6 C 5.88 g/m*3 1.46 C 8.1 km/h
652 11-01-2020 06:15:00 3.6 C 5.88 g/m*3 3.6 C 1.6 km/h
653 11-01-2020 06:20:00 3.6 C 5.88 g/m*3 3.6 C 1.6 km/h
654 11-01-2020 06:25:00 3.6 C 5.88 g/m*3 3.6 C 1.6 km/h
655 11-01-2020 06:30:00 3.6 C 5.88 g/m*3 3.6 C 3.2 km/h
656 11-01-2020 06:35:00 3.6 C 5.88 g/m*3 1.98 C 6.4 km/h
657 11-01-2020 06:40:00 3.6 C 5.88 g/m*3 3.6 C 3.2 km/h
658 11-01-2020 06:45:00 3.5 C 5.84 g/m*3 3.5 C 1.6 km/h
659 11-01-2020 06:50:00 3.5 C 5.84 g/m*3 3.5 C 1.6 km/h
660 11-01-2020 06:55:00 3.5 C 5.84 g/m*3 3.5 C 3.2 km/h
661 11-01-2020 07:00:00 3.5 C 5.84 g/m*3 1.86 C 6.4 km/h
662 11-01-2020 07:05:00 3.5 C 5.84 g/m*3 3.5 C 1.6 km/h
663 11-01-2020 07:10:00 3.5 C 5.84 g/m*3 3.5 C 0 km/h
664 11-01-2020 07:15:00 3.4 C 5.8 g/m*3 3.4 C 0 km/h
665 11-01-2020 07:20:00 3.4 C 5.74 g/m*3 1.75 C 6.4 km/h
666 11-01-2020 07:25:00 3.4 C 5.74 g/m*3 3.4 C 0 km/h
667 11-01-2020 07:30:00 3.4 C 5.74 g/m*3 1.75 C 6.4 km/h
668 11-01-2020 07:35:00 3.3 C 5.7 g/m*3 3.3 C 3.2 km/h
669 11-01-2020 07:40:00 3.3 C 5.7 g/m*3 1.63 C 6.4 km/h
670 11-01-2020 07:45:00 3.2 C 5.66 g/m*3 3.2 C 0 km/h
671 11-01-2020 07:50:00 3.1 C 5.63 g/m*3 3.1 C 1.6 km/h
672 11-01-2020 07:55:00 2.8 C 5.51 g/m*3 2.8 C 0 km/h
673 11-01-2020 08:00:00 2.6 C 5.38 g/m*3 2.6 C 0 km/h
674 11-01-2020 08:05:00 2.3 C 5.27 g/m*3 2.3 C 0 km/h
675 11-01-2020 08:10:00 2.2 C 5.29 g/m*3 2.2 C 1.6 km/h
Sensor: Nr:Datum:Temp:Abs-Feuchte:Windchill:Wind:
Aussen-T/F 676 11-01-2020 08:15:00 2 C 5.22 g/m*3 2 C 0 km/h
677 11-01-2020 08:20:00 1.9 C 5.19 g/m*3 1.9 C 1.6 km/h
678 11-01-2020 08:25:00 1.8 C 5.15 g/m*3 1.8 C 0 km/h
679 11-01-2020 08:30:00 1.7 C 5.12 g/m*3 -0.22 C 6.4 km/h
680 11-01-2020 08:35:00 1.7 C 5.12 g/m*3 1.7 C 1.6 km/h
681 11-01-2020 08:40:00 1.8 C 5.21 g/m*3 -1.09 C 9.7 km/h
682 11-01-2020 08:45:00 1.8 C 5.21 g/m*3 1.8 C 0 km/h
683 11-01-2020 08:50:00 1.8 C 5.21 g/m*3 1.8 C 0 km/h
684 11-01-2020 08:55:00 1.7 C 5.17 g/m*3 1.7 C 0 km/h
685 11-01-2020 09:00:00 1.6 C 5.14 g/m*3 -0.33 C 6.4 km/h
686 11-01-2020 09:05:00 1.7 C 5.17 g/m*3 -0.22 C 6.4 km/h
687 11-01-2020 09:10:00 1.8 C 5.21 g/m*3 1.8 C 3.2 km/h
688 11-01-2020 09:15:00 1.8 C 5.21 g/m*3 1.8 C 3.2 km/h
689 11-01-2020 09:20:00 1.9 C 5.24 g/m*3 1.9 C 4.8 km/h
690 11-01-2020 09:25:00 2.1 C 5.37 g/m*3 0.24 C 6.4 km/h
691 11-01-2020 09:30:00 2.3 C 5.44 g/m*3 0.47 C 6.4 km/h
692 11-01-2020 09:35:00 2.4 C 5.48 g/m*3 2.4 C 4.8 km/h
693 11-01-2020 09:40:00 2.5 C 5.52 g/m*3 2.5 C 3.2 km/h
694 11-01-2020 09:45:00 2.6 C 5.56 g/m*3 0.82 C 6.4 km/h
695 11-01-2020 09:50:00 2.6 C 5.5 g/m*3 0.29 C 8.1 km/h
696 11-01-2020 09:55:00 2.6 C 5.5 g/m*3 2.6 C 3.2 km/h
697 11-01-2020 10:00:00 2.6 C 5.5 g/m*3 0.29 C 8.1 km/h
698 11-01-2020 10:05:00 2.7 C 5.54 g/m*3 0.94 C 6.4 km/h
699 11-01-2020 10:10:00 2.7 C 5.54 g/m*3 0.4 C 8.1 km/h
700 11-01-2020 10:15:00 2.7 C 5.54 g/m*3 0.4 C 8.1 km/h
Sensor: Nr:Datum:Temp:Abs-Feuchte:Windchill:Wind:
Aussen-T/F 701 11-01-2020 10:20:00 2.8 C 5.57 g/m*3 1.05 C 6.4 km/h
702 11-01-2020 10:25:00 2.8 C 5.57 g/m*3 1.05 C 6.4 km/h
703 11-01-2020 10:30:00 2.9 C 5.61 g/m*3 2.9 C 4.8 km/h
704 11-01-2020 10:35:00 2.9 C 5.61 g/m*3 2.9 C 4.8 km/h
705 11-01-2020 10:40:00 2.9 C 5.61 g/m*3 2.9 C 1.6 km/h
706 11-01-2020 10:45:00 3 C 5.65 g/m*3 3 C 0 km/h
707 11-01-2020 10:50:00 3.1 C 5.69 g/m*3 3.1 C 0 km/h
708 11-01-2020 10:55:00 3.1 C 5.69 g/m*3 3.1 C 0 km/h
709 11-01-2020 11:00:00 3.2 C 5.72 g/m*3 3.2 C 1.6 km/h
710 11-01-2020 11:05:00 3.3 C 5.76 g/m*3 3.3 C 0 km/h
711 11-01-2020 11:10:00 3.5 C 5.84 g/m*3 3.5 C 0 km/h
712 11-01-2020 11:15:00 3.7 C 5.92 g/m*3 3.7 C 0 km/h
713 11-01-2020 11:20:00 3.8 C 5.9 g/m*3 3.8 C 0 km/h
714 11-01-2020 11:25:00 3.9 C 5.94 g/m*3 3.9 C 0 km/h
715 11-01-2020 11:30:00 4 C 5.98 g/m*3 4 C 0 km/h
716 11-01-2020 11:35:00 4.1 C 6.02 g/m*3 4.1 C 3.2 km/h
717 11-01-2020 11:40:00 4.2 C 6.06 g/m*3 4.2 C 3.2 km/h
718 11-01-2020 11:45:00 4.4 C 6.07 g/m*3 4.4 C 1.6 km/h
719 11-01-2020 11:50:00 4.5 C 6.05 g/m*3 4.5 C 0 km/h
720 11-01-2020 11:55:00 4.7 C 6.13 g/m*3 4.7 C 0 km/h
721 11-01-2020 12:00:00 4.8 C 6.17 g/m*3 4.8 C 1.6 km/h
722 11-01-2020 12:05:00 5 C 6.25 g/m*3 5 C 0 km/h
723 11-01-2020 12:10:00 5.2 C 6.27 g/m*3 5.2 C 0 km/h
724 11-01-2020 12:15:00 5.3 C 6.31 g/m*3 5.3 C 0 km/h
725 11-01-2020 12:20:00 5.4 C 6.28 g/m*3 5.4 C 4.8 km/h
Sensor: Nr:Datum:Temp:Abs-Feuchte:Windchill:Wind:
Aussen-T/F 726 11-01-2020 12:25:00 5.8 C 6.23 g/m*3 5.8 C 4.8 km/h
727 11-01-2020 12:30:00 6.1 C 6.36 g/m*3 6.1 C 0 km/h
728 11-01-2020 12:35:00 6.3 C 6.22 g/m*3 6.3 C 4.8 km/h
729 11-01-2020 12:40:00 6.4 C 6.04 g/m*3 5.21 C 6.4 km/h
730 11-01-2020 12:45:00 6.7 C 6 g/m*3 5.56 C 6.4 km/h
731 11-01-2020 12:50:00 6.8 C 6.04 g/m*3 6.8 C 4.8 km/h
732 11-01-2020 12:55:00 6.9 C 6 g/m*3 6.9 C 4.8 km/h
733 11-01-2020 13:00:00 7.1 C 6.01 g/m*3 6.02 C 6.4 km/h
734 11-01-2020 13:05:00 7.1 C 6.01 g/m*3 7.1 C 4.8 km/h
735 11-01-2020 13:10:00 7.2 C 6.04 g/m*3 7.2 C 4.8 km/h
736 11-01-2020 13:15:00 7.2 C 6.04 g/m*3 7.2 C 4.8 km/h
737 11-01-2020 13:20:00 7.3 C 6 g/m*3 5.47 C 9.7 km/h
738 11-01-2020 13:25:00 7.2 C 5.89 g/m*3 4.53 C 14.5 km/h
739 11-01-2020 13:30:00 7.2 C 5.89 g/m*3 4.77 C 12.9 km/h
740 11-01-2020 13:35:00 7.2 C 5.89 g/m*3 5.04 C 11.3 km/h
741 11-01-2020 13:40:00 7.1 C 5.85 g/m*3 4.92 C 11.3 km/h
742 11-01-2020 13:45:00 7.1 C 5.85 g/m*3 4.92 C 11.3 km/h
743 11-01-2020 13:50:00 7.1 C 5.85 g/m*3 4.92 C 11.3 km/h
744 11-01-2020 13:55:00 7.1 C 5.77 g/m*3 4.65 C 12.9 km/h
745 11-01-2020 14:00:00 7.1 C 5.85 g/m*3 5.58 C 8.1 km/h
746 11-01-2020 14:05:00 7.1 C 5.85 g/m*3 7.1 C 3.2 km/h
747 11-01-2020 14:10:00 7.1 C 5.85 g/m*3 4.41 C 14.5 km/h
748 11-01-2020 14:15:00 7.1 C 5.85 g/m*3 4.92 C 11.3 km/h
749 11-01-2020 14:20:00 7.1 C 5.85 g/m*3 5.58 C 8.1 km/h
750 11-01-2020 14:25:00 7.1 C 5.85 g/m*3 5.23 C 9.7 km/h
Sensor: Nr:Datum:Temp:Abs-Feuchte:Windchill:Wind:
Aussen-T/F 751 11-01-2020 14:30:00 7.1 C 5.93 g/m*3 7.1 C 4.8 km/h
752 11-01-2020 14:35:00 7.1 C 5.93 g/m*3 5.23 C 9.7 km/h
753 11-01-2020 14:40:00 7.1 C 5.93 g/m*3 6.02 C 6.4 km/h
754 11-01-2020 14:45:00 7 C 5.81 g/m*3 5.9 C 6.4 km/h
755 11-01-2020 14:50:00 7 C 5.89 g/m*3 7 C 4.8 km/h
756 11-01-2020 14:55:00 7 C 5.89 g/m*3 5.9 C 6.4 km/h
757 11-01-2020 15:00:00 7 C 5.89 g/m*3 5.11 C 9.7 km/h
758 11-01-2020 15:05:00 7 C 5.89 g/m*3 7 C 4.8 km/h
759 11-01-2020 15:10:00 7 C 5.89 g/m*3 7 C 4.8 km/h
760 11-01-2020 15:15:00 6.9 C 5.85 g/m*3 5.79 C 6.4 km/h
761 11-01-2020 15:20:00 6.9 C 5.93 g/m*3 6.9 C 4.8 km/h
762 11-01-2020 15:25:00 6.9 C 5.93 g/m*3 6.9 C 1.6 km/h
763 11-01-2020 15:30:00 6.9 C 5.93 g/m*3 6.9 C 0 km/h
764 11-01-2020 15:35:00 6.9 C 5.93 g/m*3 6.9 C 4.8 km/h
765 11-01-2020 15:40:00 6.9 C 5.93 g/m*3 6.9 C 4.8 km/h
766 11-01-2020 15:45:00 6.9 C 6 g/m*3 6.9 C 0 km/h
767 11-01-2020 15:50:00 6.9 C 6 g/m*3 6.9 C 0 km/h
768 11-01-2020 15:55:00 6.9 C 6 g/m*3 6.9 C 1.6 km/h
769 11-01-2020 16:00:00 6.9 C 6 g/m*3 6.9 C 3.2 km/h
770 11-01-2020 16:05:00 6.9 C 5.93 g/m*3 5.79 C 6.4 km/h
771 11-01-2020 16:10:00 6.9 C 6 g/m*3 6.9 C 3.2 km/h
772 11-01-2020 16:15:00 6.9 C 6 g/m*3 6.9 C 4.8 km/h
773 11-01-2020 16:20:00 6.8 C 5.97 g/m*3 6.8 C 0 km/h
774 11-01-2020 16:25:00 6.8 C 5.97 g/m*3 5.67 C 6.4 km/h
775 11-01-2020 16:30:00 6.8 C 5.89 g/m*3 4.87 C 9.7 km/h
Sensor: Nr:Datum:Temp:Abs-Feuchte:Windchill:Wind:
Aussen-T/F 776 11-01-2020 16:35:00 6.7 C 5.93 g/m*3 6.7 C 3.2 km/h
777 11-01-2020 16:40:00 6.7 C 5.93 g/m*3 6.7 C 0 km/h
778 11-01-2020 16:45:00 6.6 C 5.89 g/m*3 4.99 C 8.1 km/h
779 11-01-2020 16:50:00 6.6 C 5.81 g/m*3 4.63 C 9.7 km/h
780 11-01-2020 16:55:00 6.6 C 5.81 g/m*3 4.32 C 11.3 km/h
781 11-01-2020 17:00:00 6.6 C 5.81 g/m*3 4.99 C 8.1 km/h
782 11-01-2020 17:05:00 6.5 C 5.85 g/m*3 5.33 C 6.4 km/h
783 11-01-2020 17:10:00 6.5 C 5.77 g/m*3 4.87 C 8.1 km/h
784 11-01-2020 17:15:00 6.5 C 5.85 g/m*3 6.5 C 3.2 km/h
785 11-01-2020 17:20:00 6.4 C 5.81 g/m*3 6.4 C 0 km/h
786 11-01-2020 17:25:00 6.3 C 5.77 g/m*3 5.1 C 6.4 km/h
787 11-01-2020 17:30:00 6.3 C 5.85 g/m*3 6.3 C 1.6 km/h
788 11-01-2020 17:35:00 6.2 C 5.88 g/m*3 6.2 C 4.8 km/h
789 11-01-2020 17:40:00 6.1 C 5.84 g/m*3 6.1 C 0 km/h
790 11-01-2020 17:45:00 6 C 5.81 g/m*3 6 C 0 km/h
791 11-01-2020 17:50:00 5.9 C 5.77 g/m*3 4.63 C 6.4 km/h
792 11-01-2020 17:55:00 5.9 C 5.84 g/m*3 5.9 C 1.6 km/h
793 11-01-2020 18:00:00 5.8 C 5.8 g/m*3 5.8 C 1.6 km/h
794 11-01-2020 18:05:00 5.8 C 5.8 g/m*3 5.8 C 4.8 km/h
795 11-01-2020 18:10:00 5.7 C 5.76 g/m*3 5.7 C 0 km/h
796 11-01-2020 18:15:00 5.7 C 5.69 g/m*3 5.7 C 4.8 km/h
797 11-01-2020 18:20:00 5.7 C 5.76 g/m*3 5.7 C 1.6 km/h
798 11-01-2020 18:25:00 5.7 C 5.84 g/m*3 5.7 C 0 km/h
799 11-01-2020 18:30:00 5.6 C 5.8 g/m*3 5.6 C 0 km/h
800 11-01-2020 18:35:00 5.3 C 5.75 g/m*3 5.3 C 0 km/h
Sensor: Nr:Datum:Temp:Abs-Feuchte:Windchill:Wind:
Aussen-T/F 801 11-01-2020 18:40:00 5.2 C 5.71 g/m*3 5.2 C 3.2 km/h
802 11-01-2020 18:45:00 5.1 C 5.75 g/m*3 5.1 C 0 km/h
803 11-01-2020 18:50:00 4.9 C 5.67 g/m*3 4.9 C 0 km/h
804 11-01-2020 18:55:00 4.8 C 5.7 g/m*3 4.8 C 0 km/h
805 11-01-2020 19:00:00 4.7 C 5.73 g/m*3 4.7 C 1.6 km/h
806 11-01-2020 19:05:00 4.6 C 5.69 g/m*3 4.6 C 0 km/h
807 11-01-2020 19:10:00 4.4 C 5.68 g/m*3 4.4 C 1.6 km/h
808 11-01-2020 19:15:00 4.3 C 5.64 g/m*3 4.3 C 3.2 km/h
809 11-01-2020 19:20:00 4.1 C 5.57 g/m*3 4.1 C 3.2 km/h
810 11-01-2020 19:25:00 3.9 C 5.56 g/m*3 3.9 C 1.6 km/h
811 11-01-2020 19:30:00 3.8 C 5.52 g/m*3 3.8 C 3.2 km/h
812 11-01-2020 19:35:00 3.7 C 5.55 g/m*3 3.7 C 3.2 km/h
813 11-01-2020 19:40:00 3.6 C 5.51 g/m*3 3.6 C 3.2 km/h
814 11-01-2020 19:45:00 3.5 C 5.47 g/m*3 3.5 C 0 km/h
815 11-01-2020 19:50:00 3.4 C 5.44 g/m*3 3.4 C 3.2 km/h
816 11-01-2020 19:55:00 3.4 C 5.5 g/m*3 3.4 C 3.2 km/h
817 11-01-2020 20:00:00 3.4 C 5.5 g/m*3 3.4 C 3.2 km/h
818 11-01-2020 20:05:00 3.3 C 5.46 g/m*3 3.3 C 1.6 km/h
819 11-01-2020 20:10:00 3.3 C 5.46 g/m*3 3.3 C 0 km/h
820 11-01-2020 20:15:00 3.3 C 5.46 g/m*3 1.63 C 6.4 km/h
821 11-01-2020 20:20:00 3.3 C 5.46 g/m*3 3.3 C 3.2 km/h
822 11-01-2020 20:25:00 3.3 C 5.46 g/m*3 3.3 C 1.6 km/h
823 11-01-2020 20:30:00 3.3 C 5.46 g/m*3 3.3 C 1.6 km/h
824 11-01-2020 20:35:00 3.2 C 5.42 g/m*3 3.2 C 3.2 km/h
825 11-01-2020 20:40:00 3.1 C 5.39 g/m*3 3.1 C 3.2 km/h
Sensor: Nr:Datum:Temp:Abs-Feuchte:Windchill:Wind:
Aussen-T/F 826 11-01-2020 20:45:00 3 C 5.35 g/m*3 3 C 0 km/h
827 11-01-2020 20:50:00 2.9 C 5.32 g/m*3 2.9 C 3.2 km/h
828 11-01-2020 20:55:00 2.9 C 5.32 g/m*3 2.9 C 3.2 km/h
829 11-01-2020 21:00:00 2.8 C 5.34 g/m*3 2.8 C 1.6 km/h
830 11-01-2020 21:05:00 2.7 C 5.3 g/m*3 2.7 C 3.2 km/h
831 11-01-2020 21:10:00 2.7 C 5.3 g/m*3 2.7 C 3.2 km/h
832 11-01-2020 21:15:00 2.8 C 5.34 g/m*3 2.8 C 3.2 km/h
833 11-01-2020 21:20:00 2.8 C 5.34 g/m*3 2.8 C 1.6 km/h
834 11-01-2020 21:25:00 2.8 C 5.34 g/m*3 2.8 C 3.2 km/h
835 11-01-2020 21:30:00 2.7 C 5.3 g/m*3 2.7 C 3.2 km/h
836 11-01-2020 21:35:00 2.7 C 5.3 g/m*3 2.7 C 0 km/h
837 11-01-2020 21:40:00 2.6 C 5.27 g/m*3 2.6 C 0 km/h
838 11-01-2020 21:45:00 2.5 C 5.23 g/m*3 2.5 C 1.6 km/h
839 11-01-2020 21:50:00 2.5 C 5.29 g/m*3 2.5 C 1.6 km/h
840 11-01-2020 21:55:00 2.5 C 5.29 g/m*3 2.5 C 3.2 km/h
841 11-01-2020 22:00:00 2.5 C 5.29 g/m*3 2.5 C 1.6 km/h
842 11-01-2020 22:05:00 2.4 C 5.25 g/m*3 2.4 C 1.6 km/h
843 11-01-2020 22:10:00 2.4 C 5.25 g/m*3 2.4 C 0 km/h
844 11-01-2020 22:15:00 2.3 C 5.22 g/m*3 2.3 C 0 km/h
845 11-01-2020 22:20:00 2.3 C 5.22 g/m*3 2.3 C 0 km/h
846 11-01-2020 22:25:00 2.3 C 5.22 g/m*3 2.3 C 0 km/h
847 11-01-2020 22:30:00 2.2 C 5.18 g/m*3 2.2 C 0 km/h
848 11-01-2020 22:35:00 2.2 C 5.18 g/m*3 2.2 C 0 km/h
849 11-01-2020 22:40:00 2.2 C 5.24 g/m*3 2.2 C 3.2 km/h
850 11-01-2020 22:45:00 2.3 C 5.27 g/m*3 2.3 C 1.6 km/h
Sensor: Nr:Datum:Temp:Abs-Feuchte:Windchill:Wind:
Aussen-T/F 851 11-01-2020 22:50:00 2.2 C 5.24 g/m*3 2.2 C 0 km/h
852 11-01-2020 22:55:00 2.2 C 5.24 g/m*3 2.2 C 1.6 km/h
853 11-01-2020 23:00:00 2.1 C 5.15 g/m*3 2.1 C 1.6 km/h
854 11-01-2020 23:05:00 2.1 C 5.2 g/m*3 2.1 C 0 km/h
855 11-01-2020 23:10:00 2.2 C 5.29 g/m*3 -0.61 C 9.7 km/h
856 11-01-2020 23:15:00 2.4 C 5.31 g/m*3 2.4 C 1.6 km/h
857 11-01-2020 23:20:00 2.4 C 5.31 g/m*3 2.4 C 1.6 km/h
858 11-01-2020 23:25:00 2.3 C 5.22 g/m*3 2.3 C 0 km/h
859 11-01-2020 23:30:00 2.2 C 5.18 g/m*3 2.2 C 0 km/h
860 11-01-2020 23:35:00 2.1 C 5.15 g/m*3 2.1 C 0 km/h
861 11-01-2020 23:40:00 2.1 C 5.15 g/m*3 2.1 C 0 km/h
862 11-01-2020 23:45:00 1.9 C 5.08 g/m*3 1.9 C 0 km/h
863 11-01-2020 23:50:00 1.8 C 5.04 g/m*3 1.8 C 1.6 km/h
864 11-01-2020 23:55:00 1.8 C 5.1 g/m*3 1.8 C 0 km/h
865 12-01-2020 00:00:00 1.8 C 5.1 g/m*3 1.8 C 3.2 km/h
866 12-01-2020 00:05:00 1.8 C 5.1 g/m*3 -0.1 C 6.4 km/h
867 12-01-2020 00:10:00 1.8 C 5.1 g/m*3 1.8 C 1.6 km/h
868 12-01-2020 00:15:00 1.9 C 5.19 g/m*3 1.9 C 4.8 km/h
869 12-01-2020 00:20:00 2 C 5.17 g/m*3 2 C 3.2 km/h
870 12-01-2020 00:25:00 2 C 5.17 g/m*3 2 C 1.6 km/h
871 12-01-2020 00:30:00 2.1 C 5.2 g/m*3 2.1 C 3.2 km/h
872 12-01-2020 00:35:00 2.1 C 5.2 g/m*3 2.1 C 3.2 km/h
873 12-01-2020 00:40:00 2.1 C 5.2 g/m*3 2.1 C 0 km/h
874 12-01-2020 00:45:00 2 C 5.17 g/m*3 2 C 1.6 km/h
875 12-01-2020 00:50:00 1.9 C 5.13 g/m*3 1.9 C 3.2 km/h
Sensor: Nr:Datum:Temp:Abs-Feuchte:Windchill:Wind:
Aussen-T/F 876 12-01-2020 00:55:00 1.9 C 5.13 g/m*3 1.9 C 3.2 km/h
877 12-01-2020 01:00:00 1.9 C 5.13 g/m*3 1.9 C 1.6 km/h
878 12-01-2020 01:05:00 1.9 C 5.13 g/m*3 1.9 C 0 km/h
879 12-01-2020 01:10:00 1.9 C 5.13 g/m*3 1.9 C 4.8 km/h
880 12-01-2020 01:15:00 1.9 C 5.13 g/m*3 1.9 C 1.6 km/h
881 12-01-2020 01:20:00 1.9 C 5.13 g/m*3 1.9 C 1.6 km/h
882 12-01-2020 01:25:00 1.9 C 5.13 g/m*3 1.9 C 3.2 km/h
883 12-01-2020 01:30:00 2 C 5.22 g/m*3 2 C 1.6 km/h
884 12-01-2020 01:35:00 2 C 5.17 g/m*3 2 C 0 km/h
885 12-01-2020 01:40:00 2 C 5.17 g/m*3 2 C 3.2 km/h
886 12-01-2020 01:45:00 2.1 C 5.2 g/m*3 2.1 C 3.2 km/h
887 12-01-2020 01:50:00 2.1 C 5.2 g/m*3 2.1 C 1.6 km/h
888 12-01-2020 01:55:00 2.3 C 5.33 g/m*3 2.3 C 4.8 km/h
889 12-01-2020 02:00:00 2.3 C 5.27 g/m*3 2.3 C 1.6 km/h
890 12-01-2020 02:05:00 2.3 C 5.27 g/m*3 2.3 C 4.8 km/h
891 12-01-2020 02:10:00 2.4 C 5.31 g/m*3 2.4 C 1.6 km/h
892 12-01-2020 02:15:00 2.4 C 5.31 g/m*3 2.4 C 3.2 km/h
893 12-01-2020 02:20:00 2.5 C 5.35 g/m*3 2.5 C 3.2 km/h
894 12-01-2020 02:25:00 2.4 C 5.25 g/m*3 2.4 C 1.6 km/h
895 12-01-2020 02:30:00 2.4 C 5.25 g/m*3 2.4 C 0 km/h
896 12-01-2020 02:35:00 2.5 C 5.35 g/m*3 2.5 C 1.6 km/h
897 12-01-2020 02:40:00 2.6 C 5.38 g/m*3 2.6 C 4.8 km/h
898 12-01-2020 02:45:00 2.6 C 5.32 g/m*3 2.6 C 4.8 km/h
899 12-01-2020 02:50:00 2.6 C 5.32 g/m*3 2.6 C 1.6 km/h
900 12-01-2020 02:55:00 2.6 C 5.32 g/m*3 2.6 C 0 km/h
Sensor: Nr:Datum:Temp:Abs-Feuchte:Windchill:Wind:
Aussen-T/F 901 12-01-2020 03:00:00 2.6 C 5.32 g/m*3 2.6 C 3.2 km/h
902 12-01-2020 03:05:00 2.6 C 5.32 g/m*3 2.6 C 1.6 km/h
903 12-01-2020 03:10:00 2.6 C 5.32 g/m*3 2.6 C 1.6 km/h
904 12-01-2020 03:15:00 2.6 C 5.32 g/m*3 2.6 C 4.8 km/h
905 12-01-2020 03:20:00 2.6 C 5.32 g/m*3 2.6 C 1.6 km/h
906 12-01-2020 03:25:00 2.6 C 5.32 g/m*3 2.6 C 4.8 km/h
907 12-01-2020 03:30:00 2.5 C 5.23 g/m*3 2.5 C 1.6 km/h
908 12-01-2020 03:35:00 2.4 C 5.25 g/m*3 2.4 C 4.8 km/h
909 12-01-2020 03:40:00 2.4 C 5.25 g/m*3 2.4 C 0 km/h
910 12-01-2020 03:45:00 2.3 C 5.22 g/m*3 2.3 C 1.6 km/h
911 12-01-2020 03:50:00 2.3 C 5.22 g/m*3 2.3 C 3.2 km/h
912 12-01-2020 03:55:00 2.3 C 5.22 g/m*3 2.3 C 1.6 km/h
913 12-01-2020 04:00:00 2.3 C 5.27 g/m*3 2.3 C 0 km/h
914 12-01-2020 04:05:00 2.3 C 5.27 g/m*3 2.3 C 1.6 km/h
915 12-01-2020 04:10:00 2.4 C 5.31 g/m*3 2.4 C 0 km/h
916 12-01-2020 04:15:00 2.4 C 5.31 g/m*3 2.4 C 0 km/h
917 12-01-2020 04:20:00 2.4 C 5.31 g/m*3 2.4 C 0 km/h
918 12-01-2020 04:25:00 2.4 C 5.31 g/m*3 2.4 C 0 km/h
919 12-01-2020 04:30:00 2.6 C 5.38 g/m*3 2.6 C 0 km/h
920 12-01-2020 04:35:00 2.7 C 5.42 g/m*3 2.7 C 1.6 km/h
921 12-01-2020 04:40:00 2.8 C 5.46 g/m*3 2.8 C 0 km/h
922 12-01-2020 04:45:00 2.8 C 5.46 g/m*3 2.8 C 0 km/h
923 12-01-2020 04:50:00 2.9 C 5.49 g/m*3 2.9 C 4.8 km/h
924 12-01-2020 04:55:00 3.1 C 5.57 g/m*3 3.1 C 0 km/h
925 12-01-2020 05:00:00 3.2 C 5.6 g/m*3 3.2 C 1.6 km/h
Sensor: Nr:Datum:Temp:Abs-Feuchte:Windchill:Wind:
Aussen-T/F 926 12-01-2020 05:05:00 3.3 C 5.58 g/m*3 3.3 C 1.6 km/h
927 12-01-2020 05:10:00 3.4 C 5.62 g/m*3 3.4 C 3.2 km/h
928 12-01-2020 05:15:00 3.6 C 5.63 g/m*3 3.6 C 3.2 km/h
929 12-01-2020 05:20:00 3.7 C 5.61 g/m*3 3.7 C 3.2 km/h
930 12-01-2020 05:25:00 3.8 C 5.65 g/m*3 3.8 C 1.6 km/h
931 12-01-2020 05:30:00 3.8 C 5.65 g/m*3 3.8 C 0 km/h
932 12-01-2020 05:35:00 3.9 C 5.68 g/m*3 3.9 C 0 km/h
933 12-01-2020 05:40:00 3.9 C 5.62 g/m*3 3.9 C 3.2 km/h
934 12-01-2020 05:45:00 4 C 5.66 g/m*3 4 C 4.8 km/h
935 12-01-2020 05:50:00 4.1 C 5.63 g/m*3 1.65 C 9.7 km/h
936 12-01-2020 05:55:00 4.1 C 5.63 g/m*3 4.1 C 1.6 km/h
937 12-01-2020 06:00:00 4.2 C 5.67 g/m*3 1.77 C 9.7 km/h
938 12-01-2020 06:05:00 4.2 C 5.67 g/m*3 4.2 C 4.8 km/h
939 12-01-2020 06:10:00 4.3 C 5.71 g/m*3 4.3 C 1.6 km/h
940 12-01-2020 06:15:00 4.3 C 5.64 g/m*3 2.78 C 6.4 km/h
941 12-01-2020 06:20:00 4.3 C 5.64 g/m*3 2.78 C 6.4 km/h
942 12-01-2020 06:25:00 4.3 C 5.64 g/m*3 2.78 C 6.4 km/h
943 12-01-2020 06:30:00 4.2 C 5.61 g/m*3 2.17 C 8.1 km/h
944 12-01-2020 06:35:00 4.3 C 5.64 g/m*3 1.89 C 9.7 km/h
945 12-01-2020 06:40:00 4.3 C 5.64 g/m*3 0.97 C 14.5 km/h
946 12-01-2020 06:45:00 4.3 C 5.64 g/m*3 2.29 C 8.1 km/h
947 12-01-2020 06:50:00 4.3 C 5.64 g/m*3 1.55 C 11.3 km/h
948 12-01-2020 06:55:00 4.3 C 5.64 g/m*3 2.78 C 6.4 km/h
949 12-01-2020 07:00:00 4.3 C 5.64 g/m*3 2.29 C 8.1 km/h
950 12-01-2020 07:05:00 4.3 C 5.64 g/m*3 0.49 C 17.7 km/h
Sensor: Nr:Datum:Temp:Abs-Feuchte:Windchill:Wind:
Aussen-T/F 951 12-01-2020 07:10:00 4.3 C 5.64 g/m*3 1.24 C 12.9 km/h
952 12-01-2020 07:15:00 4.3 C 5.64 g/m*3 1.89 C 9.7 km/h
953 12-01-2020 07:20:00 4.3 C 5.64 g/m*3 2.78 C 6.4 km/h
954 12-01-2020 07:25:00 4.3 C 5.64 g/m*3 2.29 C 8.1 km/h
955 12-01-2020 07:30:00 4.3 C 5.64 g/m*3 2.29 C 8.1 km/h
956 12-01-2020 07:35:00 4.3 C 5.64 g/m*3 2.29 C 8.1 km/h
957 12-01-2020 07:40:00 4.3 C 5.64 g/m*3 1.24 C 12.9 km/h
958 12-01-2020 07:45:00 4.4 C 5.62 g/m*3 0.84 C 16.1 km/h
959 12-01-2020 07:50:00 4.4 C 5.62 g/m*3 1.36 C 12.9 km/h
960 12-01-2020 07:55:00 4.4 C 5.62 g/m*3 0.84 C 16.1 km/h
961 12-01-2020 08:00:00 4.4 C 5.62 g/m*3 2.4 C 8.1 km/h
962 12-01-2020 08:05:00 4.3 C 5.58 g/m*3 1.24 C 12.9 km/h
963 12-01-2020 08:10:00 4.3 C 5.58 g/m*3 1.55 C 11.3 km/h
964 12-01-2020 08:15:00 4.3 C 5.58 g/m*3 1.24 C 12.9 km/h
965 12-01-2020 08:20:00 4.3 C 5.58 g/m*3 2.29 C 8.1 km/h
966 12-01-2020 08:25:00 4.3 C 5.58 g/m*3 2.78 C 6.4 km/h
967 12-01-2020 08:30:00 4.4 C 5.62 g/m*3 1.36 C 12.9 km/h
968 12-01-2020 08:35:00 4.4 C 5.62 g/m*3 2.4 C 8.1 km/h
969 12-01-2020 08:40:00 4.5 C 5.65 g/m*3 0.33 C 20.9 km/h
970 12-01-2020 08:45:00 4.6 C 5.69 g/m*3 1.34 C 14.5 km/h
971 12-01-2020 08:50:00 4.6 C 5.62 g/m*3 1.61 C 12.9 km/h
972 12-01-2020 08:55:00 4.7 C 5.66 g/m*3 0.58 C 20.9 km/h
973 12-01-2020 09:00:00 4.7 C 5.66 g/m*3 0.58 C 20.9 km/h
974 12-01-2020 09:05:00 4.7 C 5.66 g/m*3 1.73 C 12.9 km/h
975 12-01-2020 09:10:00 4.7 C 5.66 g/m*3 2.76 C 8.1 km/h
Sensor: Nr:Datum:Temp:Abs-Feuchte:Windchill:Wind:
Aussen-T/F 976 12-01-2020 09:15:00 4.8 C 5.7 g/m*3 1.11 C 17.7 km/h
977 12-01-2020 09:20:00 4.8 C 5.7 g/m*3 2.15 C 11.3 km/h
978 12-01-2020 09:25:00 4.8 C 5.7 g/m*3 2.49 C 9.7 km/h
979 12-01-2020 09:50:00 5 C 5.71 g/m*3 1.36 C 17.7 km/h
980 12-01-2020 09:55:00 5.1 C 5.75 g/m*3 1.09 C 20.9 km/h
981 12-01-2020 10:00:00 5.2 C 5.78 g/m*3 2.63 C 11.3 km/h
982 12-01-2020 10:05:00 5.2 C 5.78 g/m*3 3.34 C 8.1 km/h
983 12-01-2020 10:10:00 5.3 C 5.82 g/m*3 1.34 C 20.9 km/h
984 12-01-2020 10:15:00 5.3 C 5.82 g/m*3 2.2 C 14.5 km/h
985 12-01-2020 10:20:00 5.3 C 5.82 g/m*3 3.08 C 9.7 km/h
986 12-01-2020 10:25:00 5.3 C 5.82 g/m*3 1.96 C 16.1 km/h
987 12-01-2020 10:30:00 5.3 C 5.82 g/m*3 2.75 C 11.3 km/h
988 12-01-2020 10:35:00 5.4 C 5.79 g/m*3 2.08 C 16.1 km/h
989 12-01-2020 10:40:00 5.4 C 5.79 g/m*3 2.87 C 11.3 km/h
990 12-01-2020 10:45:00 5.4 C 5.79 g/m*3 2.08 C 16.1 km/h
991 12-01-2020 10:50:00 5.4 C 5.79 g/m*3 2.32 C 14.5 km/h
992 12-01-2020 10:55:00 5.4 C 5.79 g/m*3 3.2 C 9.7 km/h
993 12-01-2020 11:00:00 5.5 C 5.83 g/m*3 3.32 C 9.7 km/h
994 12-01-2020 11:05:00 5.6 C 5.87 g/m*3 3.44 C 9.7 km/h
995 12-01-2020 11:10:00 5.6 C 5.87 g/m*3 5.6 C 4.8 km/h
996 12-01-2020 11:15:00 5.6 C 5.87 g/m*3 3.44 C 9.7 km/h
997 12-01-2020 11:20:00 5.7 C 5.91 g/m*3 4.4 C 6.4 km/h
998 12-01-2020 11:25:00 5.7 C 5.84 g/m*3 3.93 C 8.1 km/h
999 12-01-2020 11:30:00 5.7 C 5.84 g/m*3 2.03 C 19.3 km/h
1000 12-01-2020 11:35:00 5.7 C 5.84 g/m*3 2.24 C 17.7 km/h
Sensor: Nr:Datum:Temp:Abs-Feuchte:Windchill:Wind:
Aussen-T/F 1001 12-01-2020 11:40:00 5.8 C 5.87 g/m*3 1.97 C 20.9 km/h
1002 12-01-2020 11:45:00 5.8 C 5.87 g/m*3 2.36 C 17.7 km/h
1003 12-01-2020 11:50:00 5.8 C 5.87 g/m*3 3.36 C 11.3 km/h
1004 12-01-2020 11:55:00 5.9 C 5.91 g/m*3 2.29 C 19.3 km/h
1005 12-01-2020 12:00:00 5.9 C 5.91 g/m*3 2.93 C 14.5 km/h
1006 12-01-2020 12:05:00 6.1 C 5.99 g/m*3 3.43 C 12.9 km/h
1007 12-01-2020 12:10:00 6.1 C 5.99 g/m*3 2.54 C 19.3 km/h
1008 12-01-2020 12:15:00 6.1 C 5.99 g/m*3 2.95 C 16.1 km/h
1009 12-01-2020 12:20:00 6.2 C 6.03 g/m*3 2.48 C 20.9 km/h
1010 12-01-2020 12:25:00 6.2 C 6.03 g/m*3 3.3 C 14.5 km/h
1011 12-01-2020 12:30:00 6.3 C 6.07 g/m*3 3.68 C 12.9 km/h
1012 12-01-2020 12:35:00 6.4 C 6.04 g/m*3 2.91 C 19.3 km/h
1013 12-01-2020 12:40:00 6.4 C 6.04 g/m*3 4.08 C 11.3 km/h
1014 12-01-2020 12:45:00 6.5 C 6.07 g/m*3 3.67 C 14.5 km/h
1015 12-01-2020 12:50:00 6.5 C 6.07 g/m*3 3.67 C 14.5 km/h
1016 12-01-2020 12:55:00 6.5 C 6.07 g/m*3 3.04 C 19.3 km/h
1017 12-01-2020 13:00:00 6.5 C 6.07 g/m*3 4.2 C 11.3 km/h
1018 12-01-2020 13:05:00 6.6 C 6.19 g/m*3 4.63 C 9.7 km/h
1019 12-01-2020 13:10:00 6.6 C 6.19 g/m*3 3.79 C 14.5 km/h
1020 12-01-2020 13:15:00 6.7 C 6.23 g/m*3 3.69 C 16.1 km/h
1021 12-01-2020 13:20:00 6.7 C 6.23 g/m*3 3.69 C 16.1 km/h
1022 12-01-2020 13:25:00 6.7 C 6.23 g/m*3 3.92 C 14.5 km/h
1023 12-01-2020 13:30:00 6.8 C 6.27 g/m*3 5.22 C 8.1 km/h
1024 12-01-2020 13:35:00 6.8 C 6.19 g/m*3 4.29 C 12.9 km/h
1025 12-01-2020 13:40:00 6.9 C 6.31 g/m*3 5.34 C 8.1 km/h
Sensor: Nr:Datum:Temp:Abs-Feuchte:Windchill:Wind:
Aussen-T/F 1026 12-01-2020 13:45:00 6.9 C 6.31 g/m*3 4.41 C 12.9 km/h
1027 12-01-2020 13:50:00 6.9 C 6.31 g/m*3 4.99 C 9.7 km/h
1028 12-01-2020 13:55:00 7 C 6.35 g/m*3 3.17 C 24.1 km/h
1029 12-01-2020 14:00:00 7.1 C 6.4 g/m*3 3.98 C 17.7 km/h
1030 12-01-2020 14:05:00 7.1 C 6.4 g/m*3 3.3 C 24.1 km/h
1031 12-01-2020 14:10:00 7.2 C 6.44 g/m*3 4.77 C 12.9 km/h
1032 12-01-2020 14:15:00 7.2 C 6.44 g/m*3 4.53 C 14.5 km/h
1033 12-01-2020 14:20:00 7.2 C 6.44 g/m*3 5.04 C 11.3 km/h
1034 12-01-2020 14:25:00 7.2 C 6.44 g/m*3 5.04 C 11.3 km/h
1035 12-01-2020 14:30:00 7.2 C 6.44 g/m*3 4.53 C 14.5 km/h
1036 12-01-2020 14:35:00 7.2 C 6.44 g/m*3 4.53 C 14.5 km/h
1037 12-01-2020 14:40:00 7.2 C 6.44 g/m*3 4.77 C 12.9 km/h
1038 12-01-2020 14:45:00 7.2 C 6.52 g/m*3 5.04 C 11.3 km/h
1039 12-01-2020 14:50:00 7.2 C 6.52 g/m*3 3.92 C 19.3 km/h
1040 12-01-2020 14:55:00 7.2 C 6.52 g/m*3 5.04 C 11.3 km/h
1041 12-01-2020 15:00:00 7.2 C 6.52 g/m*3 4.31 C 16.1 km/h
1042 12-01-2020 15:05:00 7.2 C 6.52 g/m*3 4.11 C 17.7 km/h
1043 12-01-2020 15:10:00 7.2 C 6.52 g/m*3 4.31 C 16.1 km/h
1044 12-01-2020 15:15:00 7.2 C 6.59 g/m*3 3.92 C 19.3 km/h
1045 12-01-2020 15:20:00 7.2 C 6.59 g/m*3 4.53 C 14.5 km/h
1046 12-01-2020 15:25:00 7.2 C 6.59 g/m*3 3.13 C 27.4 km/h
1047 12-01-2020 15:30:00 7.2 C 6.59 g/m*3 3.75 C 20.9 km/h
1048 12-01-2020 15:35:00 7.2 C 6.59 g/m*3 4.77 C 12.9 km/h
1049 12-01-2020 15:40:00 7.2 C 6.59 g/m*3 3.92 C 19.3 km/h
1050 12-01-2020 15:45:00 7.2 C 6.59 g/m*3 5.35 C 9.7 km/h
Sensor: Nr:Datum:Temp:Abs-Feuchte:Windchill:Wind:
Aussen-T/F 1051 12-01-2020 15:50:00 7.1 C 6.55 g/m*3 3.62 C 20.9 km/h
1052 12-01-2020 15:55:00 7.1 C 6.55 g/m*3 3.8 C 19.3 km/h
1053 12-01-2020 16:00:00 7.1 C 6.55 g/m*3 3.15 C 25.7 km/h
1054 12-01-2020 16:05:00 7.1 C 6.55 g/m*3 3.8 C 19.3 km/h
1055 12-01-2020 16:10:00 7.1 C 6.55 g/m*3 3.45 C 22.5 km/h
1056 12-01-2020 16:15:00 7 C 6.51 g/m*3 3.17 C 24.1 km/h
1057 12-01-2020 16:20:00 7 C 6.59 g/m*3 3.86 C 17.7 km/h
1058 12-01-2020 16:25:00 6.9 C 6.54 g/m*3 3.2 C 22.5 km/h
1059 12-01-2020 16:30:00 6.8 C 6.5 g/m*3 4.56 C 11.3 km/h
1060 12-01-2020 16:35:00 6.8 C 6.58 g/m*3 4.04 C 14.5 km/h
1061 12-01-2020 16:40:00 6.7 C 6.53 g/m*3 2.94 C 22.5 km/h
1062 12-01-2020 16:45:00 6.7 C 6.61 g/m*3 3.69 C 16.1 km/h
1063 12-01-2020 16:50:00 6.7 C 6.53 g/m*3 3.11 C 20.9 km/h
1064 12-01-2020 16:55:00 6.7 C 6.61 g/m*3 3.29 C 19.3 km/h
1065 12-01-2020 17:00:00 6.6 C 6.57 g/m*3 2.99 C 20.9 km/h
1066 12-01-2020 17:05:00 6.6 C 6.57 g/m*3 3.17 C 19.3 km/h
1067 12-01-2020 17:10:00 6.6 C 6.57 g/m*3 3.57 C 16.1 km/h
1068 12-01-2020 17:15:00 6.6 C 6.57 g/m*3 3.17 C 19.3 km/h
1069 12-01-2020 17:20:00 6.6 C 6.57 g/m*3 2.82 C 22.5 km/h
1070 12-01-2020 17:25:00 6.6 C 6.64 g/m*3 3.17 C 19.3 km/h
1071 12-01-2020 17:30:00 6.6 C 6.57 g/m*3 2.99 C 20.9 km/h
1072 12-01-2020 17:35:00 6.5 C 6.6 g/m*3 3.23 C 17.7 km/h
1073 12-01-2020 17:40:00 6.5 C 6.6 g/m*3 2.38 C 25.7 km/h
1074 12-01-2020 17:45:00 6.4 C 6.56 g/m*3 2.73 C 20.9 km/h
1075 12-01-2020 17:50:00 6.4 C 6.56 g/m*3 2.25 C 25.7 km/h
Sensor: Nr:Datum:Temp:Abs-Feuchte:Windchill:Wind:
Aussen-T/F 1076 12-01-2020 17:55:00 6.3 C 6.51 g/m*3 2.79 C 19.3 km/h
1077 12-01-2020 18:00:00 6.3 C 6.51 g/m*3 2.61 C 20.9 km/h
1078 12-01-2020 18:05:00 6.2 C 6.47 g/m*3 3.3 C 14.5 km/h
1079 12-01-2020 18:10:00 6.2 C 6.55 g/m*3 2.66 C 19.3 km/h
1080 12-01-2020 18:15:00 6.1 C 6.5 g/m*3 3.43 C 12.9 km/h
1081 12-01-2020 18:20:00 6.1 C 6.5 g/m*3 2.73 C 17.7 km/h
1082 12-01-2020 18:25:00 6.1 C 6.5 g/m*3 4.4 C 8.1 km/h
1083 12-01-2020 18:30:00 6.1 C 6.5 g/m*3 3.18 C 14.5 km/h
1084 12-01-2020 18:35:00 6.1 C 6.5 g/m*3 3.43 C 12.9 km/h
1085 12-01-2020 18:40:00 6.1 C 6.5 g/m*3 4.4 C 8.1 km/h
1086 12-01-2020 18:45:00 6.1 C 6.5 g/m*3 3.43 C 12.9 km/h
1087 12-01-2020 18:50:00 6.2 C 6.55 g/m*3 3.56 C 12.9 km/h
1088 12-01-2020 18:55:00 6.3 C 6.59 g/m*3 3.96 C 11.3 km/h
1089 12-01-2020 19:00:00 6.2 C 6.55 g/m*3 4.52 C 8.1 km/h
1090 12-01-2020 19:05:00 6.2 C 6.55 g/m*3 4.52 C 8.1 km/h
1091 12-01-2020 19:10:00 6.1 C 6.5 g/m*3 4.4 C 8.1 km/h
1092 12-01-2020 19:15:00 6.1 C 6.5 g/m*3 4.86 C 6.4 km/h
1093 12-01-2020 19:20:00 6 C 6.46 g/m*3 6 C 3.2 km/h
1094 12-01-2020 19:25:00 5.9 C 6.49 g/m*3 5.9 C 3.2 km/h
1095 12-01-2020 19:30:00 6 C 6.6 g/m*3 4.28 C 8.1 km/h
1096 12-01-2020 19:35:00 6.1 C 6.65 g/m*3 6.1 C 4.8 km/h
1097 12-01-2020 19:40:00 6.2 C 6.69 g/m*3 4.15 C 9.7 km/h
1098 12-01-2020 19:45:00 6.3 C 6.74 g/m*3 4.64 C 8.1 km/h
1099 12-01-2020 19:50:00 6.4 C 6.71 g/m*3 3.11 C 17.7 km/h
1100 12-01-2020 19:55:00 6.5 C 6.75 g/m*3 4.51 C 9.7 km/h
Sensor: Nr:Datum:Temp:Abs-Feuchte:Windchill:Wind:
Aussen-T/F 1101 12-01-2020 20:00:00 6.5 C 6.75 g/m*3 3.67 C 14.5 km/h
1102 12-01-2020 20:05:00 6.6 C 6.79 g/m*3 4.04 C 12.9 km/h
1103 12-01-2020 20:10:00 6.6 C 6.79 g/m*3 4.99 C 8.1 km/h
1104 12-01-2020 20:15:00 6.6 C 6.79 g/m*3 4.99 C 8.1 km/h
1105 12-01-2020 20:20:00 6.4 C 6.71 g/m*3 4.08 C 11.3 km/h
1106 12-01-2020 20:25:00 6.4 C 6.71 g/m*3 3.8 C 12.9 km/h
1107 12-01-2020 20:30:00 6.3 C 6.66 g/m*3 4.27 C 9.7 km/h
1108 12-01-2020 20:35:00 6.3 C 6.66 g/m*3 3.96 C 11.3 km/h
1109 12-01-2020 20:40:00 6.3 C 6.74 g/m*3 3.68 C 12.9 km/h
1110 12-01-2020 20:45:00 6.2 C 6.69 g/m*3 4.52 C 8.1 km/h
1111 12-01-2020 20:50:00 6.3 C 6.74 g/m*3 3.96 C 11.3 km/h
1112 12-01-2020 20:55:00 6.3 C 6.74 g/m*3 4.27 C 9.7 km/h
1113 12-01-2020 21:00:00 6.4 C 6.78 g/m*3 3.55 C 14.5 km/h
1114 12-01-2020 21:05:00 6.4 C 6.78 g/m*3 4.75 C 8.1 km/h
1115 12-01-2020 21:10:00 6.4 C 6.78 g/m*3 6.4 C 4.8 km/h
1116 12-01-2020 21:15:00 6.5 C 6.82 g/m*3 4.2 C 11.3 km/h
1117 12-01-2020 21:20:00 6.6 C 6.87 g/m*3 3.79 C 14.5 km/h
1118 12-01-2020 21:25:00 6.7 C 6.91 g/m*3 4.44 C 11.3 km/h
1119 12-01-2020 21:30:00 6.7 C 6.91 g/m*3 5.56 C 6.4 km/h
1120 12-01-2020 21:35:00 6.7 C 6.91 g/m*3 3.92 C 14.5 km/h
1121 12-01-2020 21:40:00 6.7 C 6.91 g/m*3 3.92 C 14.5 km/h
1122 12-01-2020 21:45:00 6.8 C 6.96 g/m*3 4.87 C 9.7 km/h
1123 12-01-2020 21:50:00 6.9 C 7.01 g/m*3 4.41 C 12.9 km/h
1124 12-01-2020 21:55:00 7 C 7.05 g/m*3 4.29 C 14.5 km/h
1125 12-01-2020 22:00:00 7 C 7.05 g/m*3 4.53 C 12.9 km/h
Sensor: Nr:Datum:Temp:Abs-Feuchte:Windchill:Wind:
Aussen-T/F 1126 12-01-2020 22:05:00 7 C 6.97 g/m*3 5.11 C 9.7 km/h
1127 12-01-2020 22:10:00 6.9 C 6.93 g/m*3 4.68 C 11.3 km/h
1128 12-01-2020 22:15:00 6.8 C 6.88 g/m*3 4.56 C 11.3 km/h
1129 12-01-2020 22:20:00 6.8 C 6.88 g/m*3 4.56 C 11.3 km/h
1130 12-01-2020 22:25:00 6.7 C 6.91 g/m*3 5.56 C 6.4 km/h
1131 12-01-2020 22:30:00 6.7 C 6.91 g/m*3 5.11 C 8.1 km/h
1132 12-01-2020 22:35:00 6.7 C 6.91 g/m*3 4.17 C 12.9 km/h
1133 12-01-2020 22:40:00 6.8 C 6.96 g/m*3 5.67 C 6.4 km/h
1134 12-01-2020 22:45:00 6.8 C 6.96 g/m*3 4.87 C 9.7 km/h
1135 12-01-2020 22:50:00 6.8 C 6.96 g/m*3 5.67 C 6.4 km/h
1136 12-01-2020 22:55:00 6.7 C 6.91 g/m*3 6.7 C 4.8 km/h
1137 12-01-2020 23:00:00 6.7 C 6.91 g/m*3 5.56 C 6.4 km/h
1138 12-01-2020 23:05:00 6.6 C 6.87 g/m*3 5.44 C 6.4 km/h
1139 12-01-2020 23:10:00 6.5 C 6.82 g/m*3 5.33 C 6.4 km/h
1140 12-01-2020 23:15:00 6.4 C 6.78 g/m*3 6.4 C 1.6 km/h
1141 12-01-2020 23:20:00 6.2 C 6.62 g/m*3 6.2 C 1.6 km/h
1142 12-01-2020 23:25:00 6.1 C 6.72 g/m*3 4.4 C 8.1 km/h
1143 12-01-2020 23:30:00 6.1 C 6.72 g/m*3 4.86 C 6.4 km/h
1144 12-01-2020 23:35:00 6.2 C 6.77 g/m*3 4.98 C 6.4 km/h
1145 12-01-2020 23:40:00 6.4 C 6.85 g/m*3 3.8 C 12.9 km/h
1146 12-01-2020 23:45:00 6.4 C 6.85 g/m*3 6.4 C 3.2 km/h
1147 12-01-2020 23:50:00 6.3 C 6.74 g/m*3 5.1 C 6.4 km/h
1148 12-01-2020 23:55:00 6.3 C 6.81 g/m*3 3.43 C 14.5 km/h
1149 13-01-2020 00:00:00 6.4 C 6.78 g/m*3 3.55 C 14.5 km/h
1150 13-01-2020 00:05:00 6.6 C 6.95 g/m*3 4.32 C 11.3 km/h
Sensor: Nr:Datum:Temp:Abs-Feuchte:Windchill:Wind:
Aussen-T/F 1151 13-01-2020 00:10:00 6.7 C 6.91 g/m*3 4.75 C 9.7 km/h
1152 13-01-2020 00:15:00 6.7 C 6.91 g/m*3 6.7 C 4.8 km/h
1153 13-01-2020 00:20:00 6.7 C 6.91 g/m*3 4.17 C 12.9 km/h
1154 13-01-2020 00:25:00 6.7 C 6.91 g/m*3 4.75 C 9.7 km/h
1155 13-01-2020 00:30:00 6.8 C 6.96 g/m*3 4.87 C 9.7 km/h
1156 13-01-2020 00:35:00 6.9 C 7.01 g/m*3 5.34 C 8.1 km/h
1157 13-01-2020 00:40:00 7 C 7.05 g/m*3 5.11 C 9.7 km/h
1158 13-01-2020 00:45:00 7.1 C 7.1 g/m*3 4.19 C 16.1 km/h
1159 13-01-2020 00:50:00 7.1 C 7.1 g/m*3 5.58 C 8.1 km/h
1160 13-01-2020 00:55:00 7.1 C 7.1 g/m*3 5.58 C 8.1 km/h
1161 13-01-2020 01:00:00 7.1 C 7.1 g/m*3 7.1 C 3.2 km/h
1162 13-01-2020 01:05:00 7.1 C 7.1 g/m*3 6.02 C 6.4 km/h
1163 13-01-2020 01:10:00 7 C 7.13 g/m*3 5.11 C 9.7 km/h
1164 13-01-2020 01:15:00 6.9 C 7.08 g/m*3 5.34 C 8.1 km/h
1165 13-01-2020 01:20:00 6.9 C 7.08 g/m*3 6.9 C 0 km/h
1166 13-01-2020 01:25:00 6.8 C 7.04 g/m*3 6.8 C 3.2 km/h
1167 13-01-2020 01:30:00 6.7 C 6.99 g/m*3 6.7 C 3.2 km/h
1168 13-01-2020 01:35:00 6.7 C 6.99 g/m*3 6.7 C 1.6 km/h
1169 13-01-2020 01:40:00 6.6 C 7.02 g/m*3 6.6 C 3.2 km/h
1170 13-01-2020 01:45:00 6.6 C 7.02 g/m*3 6.6 C 3.2 km/h
1171 13-01-2020 01:50:00 6.5 C 6.97 g/m*3 6.5 C 1.6 km/h
1172 13-01-2020 01:55:00 6.4 C 6.93 g/m*3 6.4 C 3.2 km/h
1173 13-01-2020 02:00:00 6.4 C 6.93 g/m*3 6.4 C 4.8 km/h
1174 13-01-2020 02:05:00 6.5 C 7.05 g/m*3 6.5 C 4.8 km/h
1175 13-01-2020 02:10:00 6.5 C 7.05 g/m*3 6.5 C 4.8 km/h
Sensor: Nr:Datum:Temp:Abs-Feuchte:Windchill:Wind:
Aussen-T/F 1176 13-01-2020 02:15:00 6.6 C 7.1 g/m*3 5.44 C 6.4 km/h
1177 13-01-2020 02:20:00 6.6 C 7.1 g/m*3 6.6 C 4.8 km/h
1178 13-01-2020 02:25:00 6.6 C 7.1 g/m*3 6.6 C 4.8 km/h
1179 13-01-2020 02:30:00 6.6 C 7.1 g/m*3 6.6 C 4.8 km/h
1180 13-01-2020 02:35:00 6.6 C 7.1 g/m*3 6.6 C 3.2 km/h
1181 13-01-2020 02:40:00 6.6 C 7.1 g/m*3 6.6 C 3.2 km/h
1182 13-01-2020 02:45:00 6.6 C 7.1 g/m*3 6.6 C 1.6 km/h
1183 13-01-2020 02:50:00 6.6 C 7.1 g/m*3 6.6 C 0 km/h
1184 13-01-2020 02:55:00 6.6 C 7.1 g/m*3 6.6 C 1.6 km/h
1185 13-01-2020 03:00:00 6.5 C 7.05 g/m*3 6.5 C 1.6 km/h
1186 13-01-2020 03:05:00 6.4 C 7 g/m*3 6.4 C 1.6 km/h
1187 13-01-2020 03:10:00 6.4 C 7 g/m*3 6.4 C 1.6 km/h
1188 13-01-2020 03:15:00 6.4 C 7 g/m*3 6.4 C 1.6 km/h
1189 13-01-2020 03:20:00 6.4 C 7 g/m*3 6.4 C 1.6 km/h
1190 13-01-2020 03:25:00 6.3 C 6.96 g/m*3 6.3 C 0 km/h
1191 13-01-2020 03:30:00 6.2 C 6.84 g/m*3 6.2 C 1.6 km/h
1192 13-01-2020 03:35:00 5.9 C 6.71 g/m*3 5.9 C 0 km/h
1193 13-01-2020 03:40:00 5.7 C 6.62 g/m*3 5.7 C 0 km/h
1194 13-01-2020 03:45:00 5.6 C 6.57 g/m*3 5.6 C 0 km/h
1195 13-01-2020 03:50:00 5.4 C 6.49 g/m*3 5.4 C 0 km/h
1196 13-01-2020 03:55:00 5.2 C 6.4 g/m*3 5.2 C 0 km/h
1197 13-01-2020 04:00:00 5.1 C 6.36 g/m*3 5.1 C 0 km/h
1198 13-01-2020 04:05:00 5 C 6.39 g/m*3 5 C 0 km/h
1199 13-01-2020 04:10:00 4.9 C 6.35 g/m*3 4.9 C 3.2 km/h
1200 13-01-2020 04:15:00 4.8 C 6.3 g/m*3 4.8 C 1.6 km/h
Sensor: Nr:Datum:Temp:Abs-Feuchte:Windchill:Wind:
Aussen-T/F 1201 13-01-2020 04:20:00 4.8 C 6.3 g/m*3 3.36 C 6.4 km/h
1202 13-01-2020 04:25:00 4.8 C 6.3 g/m*3 4.8 C 3.2 km/h
1203 13-01-2020 04:30:00 4.8 C 6.3 g/m*3 4.8 C 3.2 km/h
1204 13-01-2020 04:35:00 4.7 C 6.26 g/m*3 4.7 C 3.2 km/h
1205 13-01-2020 04:40:00 4.7 C 6.33 g/m*3 4.7 C 3.2 km/h
1206 13-01-2020 04:45:00 4.7 C 6.33 g/m*3 4.7 C 3.2 km/h
1207 13-01-2020 04:50:00 4.7 C 6.33 g/m*3 4.7 C 1.6 km/h
1208 13-01-2020 04:55:00 4.7 C 6.33 g/m*3 4.7 C 1.6 km/h
1209 13-01-2020 05:00:00 4.7 C 6.33 g/m*3 4.7 C 1.6 km/h
1210 13-01-2020 05:05:00 4.8 C 6.37 g/m*3 4.8 C 3.2 km/h
1211 13-01-2020 05:10:00 4.9 C 6.48 g/m*3 4.9 C 1.6 km/h
1212 13-01-2020 05:15:00 5 C 6.52 g/m*3 5 C 1.6 km/h
1213 13-01-2020 05:20:00 5 C 6.46 g/m*3 5 C 1.6 km/h
1214 13-01-2020 05:25:00 5.1 C 6.5 g/m*3 5.1 C 1.6 km/h
1215 13-01-2020 05:30:00 5.1 C 6.57 g/m*3 5.1 C 1.6 km/h
1216 13-01-2020 05:35:00 5.2 C 6.61 g/m*3 5.2 C 0 km/h
1217 13-01-2020 05:40:00 5.2 C 6.61 g/m*3 5.2 C 1.6 km/h
1218 13-01-2020 05:45:00 5.3 C 6.65 g/m*3 5.3 C 1.6 km/h
1219 13-01-2020 05:50:00 5.3 C 6.65 g/m*3 5.3 C 0 km/h
1220 13-01-2020 05:55:00 5.4 C 6.7 g/m*3 5.4 C 0 km/h
1221 13-01-2020 06:00:00 5.4 C 6.7 g/m*3 5.4 C 0 km/h
1222 13-01-2020 06:05:00 5.5 C 6.74 g/m*3 5.5 C 0 km/h
1223 13-01-2020 06:10:00 5.6 C 6.79 g/m*3 5.6 C 0 km/h
1224 13-01-2020 06:15:00 5.6 C 6.79 g/m*3 5.6 C 0 km/h
1225 13-01-2020 06:20:00 5.5 C 6.74 g/m*3 5.5 C 3.2 km/h
Sensor: Nr:Datum:Temp:Abs-Feuchte:Windchill:Wind:
Aussen-T/F 1226 13-01-2020 06:25:00 5.4 C 6.63 g/m*3 5.4 C 0 km/h
1227 13-01-2020 06:30:00 5.3 C 6.58 g/m*3 5.3 C 0 km/h
1228 13-01-2020 06:35:00 5.2 C 6.54 g/m*3 5.2 C 0 km/h
1229 13-01-2020 06:40:00 5.1 C 6.5 g/m*3 5.1 C 0 km/h
1230 13-01-2020 06:45:00 5 C 6.46 g/m*3 5 C 0 km/h
1231 13-01-2020 06:50:00 4.9 C 6.41 g/m*3 4.9 C 0 km/h
1232 13-01-2020 06:55:00 4.9 C 6.41 g/m*3 2.99 C 8.1 km/h
1233 13-01-2020 07:00:00 4.9 C 6.41 g/m*3 4.9 C 4.8 km/h
1234 13-01-2020 07:05:00 4.9 C 6.41 g/m*3 3.48 C 6.4 km/h
1235 13-01-2020 07:10:00 4.8 C 6.37 g/m*3 4.8 C 4.8 km/h
1236 13-01-2020 07:15:00 4.8 C 6.37 g/m*3 4.8 C 4.8 km/h
1237 13-01-2020 07:20:00 4.8 C 6.37 g/m*3 2.87 C 8.1 km/h
1238 13-01-2020 07:25:00 4.8 C 6.37 g/m*3 4.8 C 1.6 km/h
1239 13-01-2020 07:30:00 4.7 C 6.33 g/m*3 4.7 C 1.6 km/h
1240 13-01-2020 07:35:00 4.7 C 6.33 g/m*3 4.7 C 0 km/h
1241 13-01-2020 07:40:00 4.7 C 6.33 g/m*3 4.7 C 0 km/h
1242 13-01-2020 07:45:00 4.7 C 6.33 g/m*3 4.7 C 0 km/h
1243 13-01-2020 07:50:00 4.7 C 6.33 g/m*3 4.7 C 0 km/h
1244 13-01-2020 07:55:00 4.7 C 6.33 g/m*3 4.7 C 0 km/h
1245 13-01-2020 08:00:00 4.7 C 6.33 g/m*3 4.7 C 0 km/h
1246 13-01-2020 08:05:00 4.7 C 6.33 g/m*3 4.7 C 0 km/h
1247 13-01-2020 08:10:00 4.7 C 6.33 g/m*3 4.7 C 1.6 km/h
1248 13-01-2020 08:15:00 4.7 C 6.33 g/m*3 4.7 C 0 km/h
1249 13-01-2020 08:20:00 4.8 C 6.37 g/m*3 4.8 C 0 km/h
1250 13-01-2020 08:25:00 4.8 C 6.37 g/m*3 4.8 C 1.6 km/h
Sensor: Nr:Datum:Temp:Abs-Feuchte:Windchill:Wind:
Aussen-T/F 1251 13-01-2020 08:30:00 4.8 C 6.37 g/m*3 4.8 C 0 km/h
1252 13-01-2020 08:35:00 4.9 C 6.48 g/m*3 4.9 C 3.2 km/h
1253 13-01-2020 08:40:00 5 C 6.46 g/m*3 5 C 3.2 km/h
1254 13-01-2020 08:45:00 5.1 C 6.57 g/m*3 5.1 C 3.2 km/h
1255 13-01-2020 08:50:00 5.2 C 6.61 g/m*3 5.2 C 1.6 km/h
1256 13-01-2020 08:55:00 5.2 C 6.61 g/m*3 5.2 C 0 km/h
1257 13-01-2020 09:00:00 5.3 C 6.65 g/m*3 5.3 C 3.2 km/h
1258 13-01-2020 09:05:00 5.3 C 6.58 g/m*3 5.3 C 1.6 km/h
1259 13-01-2020 09:10:00 5.4 C 6.7 g/m*3 5.4 C 1.6 km/h
1260 13-01-2020 09:15:00 5.5 C 6.67 g/m*3 5.5 C 1.6 km/h
1261 13-01-2020 09:20:00 5.6 C 6.72 g/m*3 5.6 C 1.6 km/h
1262 13-01-2020 09:25:00 5.6 C 6.72 g/m*3 5.6 C 3.2 km/h
1263 13-01-2020 09:30:00 5.6 C 6.72 g/m*3 5.6 C 3.2 km/h
1264 13-01-2020 09:35:00 5.8 C 6.81 g/m*3 4.52 C 6.4 km/h
1265 13-01-2020 09:40:00 5.8 C 6.81 g/m*3 5.8 C 4.8 km/h
1266 13-01-2020 09:45:00 5.9 C 6.85 g/m*3 5.9 C 3.2 km/h
1267 13-01-2020 09:50:00 6 C 6.82 g/m*3 6 C 3.2 km/h
1268 13-01-2020 09:55:00 6.1 C 6.87 g/m*3 6.1 C 3.2 km/h
1269 13-01-2020 10:00:00 6.2 C 6.91 g/m*3 6.2 C 1.6 km/h
1270 13-01-2020 10:05:00 6.2 C 6.91 g/m*3 6.2 C 1.6 km/h
1271 13-01-2020 10:10:00 6.3 C 6.96 g/m*3 6.3 C 4.8 km/h
1272 13-01-2020 10:15:00 6.3 C 6.96 g/m*3 6.3 C 3.2 km/h
1273 13-01-2020 10:20:00 6.4 C 7 g/m*3 6.4 C 3.2 km/h
1274 13-01-2020 10:25:00 6.5 C 6.97 g/m*3 6.5 C 4.8 km/h
1275 13-01-2020 10:30:00 6.7 C 7.07 g/m*3 6.7 C 4.8 km/h
Sensor: Nr:Datum:Temp:Abs-Feuchte:Windchill:Wind:
Aussen-T/F 1276 13-01-2020 10:35:00 6.8 C 7.11 g/m*3 6.8 C 3.2 km/h
1277 13-01-2020 10:40:00 6.9 C 7.08 g/m*3 6.9 C 4.8 km/h
1278 13-01-2020 10:45:00 7 C 7.13 g/m*3 5.9 C 6.4 km/h
1279 13-01-2020 10:50:00 7.1 C 7.1 g/m*3 4.92 C 11.3 km/h
1280 13-01-2020 10:55:00 7.2 C 7.14 g/m*3 5.35 C 9.7 km/h
1281 13-01-2020 11:00:00 7.2 C 7.14 g/m*3 5.35 C 9.7 km/h
1282 13-01-2020 11:05:00 7.3 C 7.19 g/m*3 6.25 C 6.4 km/h
1283 13-01-2020 11:10:00 7.3 C 7.19 g/m*3 6.25 C 6.4 km/h
1284 13-01-2020 11:15:00 7.4 C 7.24 g/m*3 7.4 C 4.8 km/h
1285 13-01-2020 11:20:00 7.5 C 7.2 g/m*3 6.48 C 6.4 km/h
1286 13-01-2020 11:25:00 7.6 C 7.25 g/m*3 6.6 C 6.4 km/h
1287 13-01-2020 11:30:00 7.7 C 7.3 g/m*3 7.7 C 0 km/h
1288 13-01-2020 11:35:00 7.8 C 7.35 g/m*3 7.8 C 4.8 km/h
1289 13-01-2020 11:40:00 7.9 C 7.31 g/m*3 7.9 C 3.2 km/h
1290 13-01-2020 11:45:00 7.9 C 7.31 g/m*3 7.9 C 4.8 km/h
1291 13-01-2020 11:50:00 8.1 C 7.41 g/m*3 8.1 C 3.2 km/h
1292 13-01-2020 11:55:00 8.1 C 7.41 g/m*3 8.1 C 4.8 km/h
1293 13-01-2020 12:00:00 8.2 C 7.45 g/m*3 8.2 C 1.6 km/h
1294 13-01-2020 12:05:00 8.2 C 7.45 g/m*3 8.2 C 0 km/h
1295 13-01-2020 12:10:00 8.2 C 7.45 g/m*3 8.2 C 3.2 km/h
1296 13-01-2020 12:15:00 8.2 C 7.37 g/m*3 7.29 C 6.4 km/h
1297 13-01-2020 12:20:00 8.2 C 7.37 g/m*3 8.2 C 3.2 km/h
1298 13-01-2020 12:25:00 8.3 C 7.42 g/m*3 8.3 C 1.6 km/h
1299 13-01-2020 12:30:00 8.3 C 7.33 g/m*3 8.3 C 4.8 km/h
1300 13-01-2020 12:35:00 8.3 C 7.33 g/m*3 8.3 C 3.2 km/h
Sensor: Nr:Datum:Temp:Abs-Feuchte:Windchill:Wind:
Aussen-T/F 1301 13-01-2020 12:40:00 8.3 C 7.33 g/m*3 8.3 C 3.2 km/h
1302 13-01-2020 12:45:00 8.3 C 7.33 g/m*3 8.3 C 0 km/h
1303 13-01-2020 12:50:00 8.3 C 7.33 g/m*3 8.3 C 0 km/h
1304 13-01-2020 12:55:00 8.3 C 7.33 g/m*3 8.3 C 4.8 km/h
1305 13-01-2020 13:00:00 8.3 C 7.42 g/m*3 8.3 C 3.2 km/h
1306 13-01-2020 13:05:00 8.3 C 7.5 g/m*3 8.3 C 0 km/h
1307 13-01-2020 13:10:00 8.2 C 7.37 g/m*3 8.2 C 4.8 km/h
1308 13-01-2020 13:15:00 8.2 C 7.37 g/m*3 8.2 C 4.8 km/h
1309 13-01-2020 13:20:00 8.2 C 7.37 g/m*3 8.2 C 1.6 km/h
1310 13-01-2020 13:25:00 8.1 C 7.32 g/m*3 8.1 C 3.2 km/h
1311 13-01-2020 13:30:00 8.1 C 7.32 g/m*3 8.1 C 3.2 km/h
1312 13-01-2020 13:35:00 8.1 C 7.41 g/m*3 8.1 C 3.2 km/h
1313 13-01-2020 13:40:00 8.1 C 7.41 g/m*3 7.17 C 6.4 km/h
1314 13-01-2020 13:45:00 8.1 C 7.41 g/m*3 8.1 C 3.2 km/h
1315 13-01-2020 13:50:00 8.1 C 7.41 g/m*3 8.1 C 3.2 km/h
1316 13-01-2020 13:55:00 8.1 C 7.49 g/m*3 6.75 C 8.1 km/h
1317 13-01-2020 14:00:00 7.9 C 7.39 g/m*3 7.9 C 1.6 km/h
1318 13-01-2020 14:05:00 7.9 C 7.47 g/m*3 7.9 C 0 km/h
1319 13-01-2020 14:10:00 7.9 C 7.47 g/m*3 7.9 C 0 km/h
1320 13-01-2020 14:15:00 7.9 C 7.47 g/m*3 7.9 C 0 km/h
1321 13-01-2020 14:20:00 7.8 C 7.43 g/m*3 7.8 C 3.2 km/h
1322 13-01-2020 14:25:00 7.9 C 7.56 g/m*3 7.9 C 0 km/h
1323 13-01-2020 14:30:00 7.9 C 7.56 g/m*3 7.9 C 0 km/h
1324 13-01-2020 14:35:00 7.9 C 7.56 g/m*3 7.9 C 0 km/h
1325 13-01-2020 14:40:00 7.9 C 7.47 g/m*3 7.9 C 0 km/h
Sensor: Nr:Datum:Temp:Abs-Feuchte:Windchill:Wind:
Aussen-T/F 1326 13-01-2020 14:45:00 7.9 C 7.47 g/m*3 7.9 C 1.6 km/h
1327 13-01-2020 14:50:00 7.8 C 7.26 g/m*3 7.8 C 1.6 km/h
1328 13-01-2020 14:55:00 7.8 C 7.18 g/m*3 7.8 C 4.8 km/h
1329 13-01-2020 15:00:00 7.9 C 7.31 g/m*3 7.9 C 4.8 km/h
1330 13-01-2020 15:05:00 7.9 C 7.31 g/m*3 7.9 C 1.6 km/h
1331 13-01-2020 15:10:00 7.9 C 7.31 g/m*3 7.9 C 3.2 km/h
1332 13-01-2020 15:15:00 7.9 C 7.23 g/m*3 7.9 C 4.8 km/h
1333 13-01-2020 15:20:00 8 C 7.28 g/m*3 8 C 1.6 km/h
1334 13-01-2020 15:25:00 7.9 C 7.15 g/m*3 7.9 C 0 km/h
1335 13-01-2020 15:30:00 8 C 7.19 g/m*3 8 C 1.6 km/h
1336 13-01-2020 15:35:00 8 C 7.19 g/m*3 8 C 0 km/h
1337 13-01-2020 15:40:00 8 C 7.19 g/m*3 8 C 0 km/h
1338 13-01-2020 15:45:00 8 C 7.11 g/m*3 8 C 0 km/h
1339 13-01-2020 15:50:00 8 C 7.11 g/m*3 8 C 0 km/h
1340 13-01-2020 15:55:00 8 C 7.03 g/m*3 7.06 C 6.4 km/h
1341 13-01-2020 16:00:00 8 C 7.03 g/m*3 8 C 1.6 km/h
1342 13-01-2020 16:05:00 8 C 7.11 g/m*3 8 C 0 km/h
1343 13-01-2020 16:10:00 7.9 C 7.06 g/m*3 7.9 C 0 km/h
1344 13-01-2020 16:15:00 7.9 C 6.98 g/m*3 7.9 C 0 km/h
1345 13-01-2020 16:20:00 7.9 C 7.06 g/m*3 7.9 C 0 km/h
1346 13-01-2020 16:25:00 7.9 C 7.06 g/m*3 7.9 C 4.8 km/h
1347 13-01-2020 16:30:00 7.8 C 7.02 g/m*3 7.8 C 4.8 km/h
1348 13-01-2020 16:35:00 7.8 C 7.02 g/m*3 7.8 C 0 km/h
1349 13-01-2020 16:40:00 7.8 C 7.1 g/m*3 7.8 C 0 km/h
1350 13-01-2020 16:45:00 7.7 C 7.05 g/m*3 7.7 C 0 km/h
Sensor: Nr:Datum:Temp:Abs-Feuchte:Windchill:Wind:
Aussen-T/F 1351 13-01-2020 16:50:00 7.6 C 7.01 g/m*3 7.6 C 3.2 km/h
1352 13-01-2020 16:55:00 7.5 C 6.96 g/m*3 7.5 C 1.6 km/h
1353 13-01-2020 17:00:00 7.4 C 6.92 g/m*3 7.4 C 0 km/h
1354 13-01-2020 17:05:00 7.4 C 6.92 g/m*3 7.4 C 1.6 km/h
1355 13-01-2020 17:10:00 7.4 C 6.92 g/m*3 7.4 C 1.6 km/h
1356 13-01-2020 17:15:00 7.4 C 7 g/m*3 7.4 C 0 km/h
1357 13-01-2020 17:20:00 7.3 C 6.87 g/m*3 7.3 C 0 km/h
1358 13-01-2020 17:25:00 7.3 C 6.87 g/m*3 7.3 C 0 km/h
1359 13-01-2020 17:30:00 7.2 C 6.83 g/m*3 7.2 C 0 km/h
1360 13-01-2020 17:35:00 7.2 C 6.91 g/m*3 7.2 C 0 km/h
1361 13-01-2020 17:40:00 7 C 6.74 g/m*3 7 C 0 km/h
1362 13-01-2020 17:45:00 6.8 C 6.65 g/m*3 6.8 C 0 km/h
1363 13-01-2020 17:50:00 6.7 C 6.69 g/m*3 6.7 C 0 km/h
1364 13-01-2020 17:55:00 6.6 C 6.72 g/m*3 6.6 C 1.6 km/h
1365 13-01-2020 18:00:00 6.5 C 6.67 g/m*3 6.5 C 0 km/h
1366 13-01-2020 18:05:00 6.4 C 6.71 g/m*3 6.4 C 0 km/h
1367 13-01-2020 18:10:00 6.3 C 6.66 g/m*3 6.3 C 0 km/h
1368 13-01-2020 18:15:00 6.3 C 6.66 g/m*3 6.3 C 3.2 km/h
1369 13-01-2020 18:20:00 6.3 C 6.66 g/m*3 6.3 C 3.2 km/h
1370 13-01-2020 18:25:00 6.3 C 6.74 g/m*3 6.3 C 0 km/h
1371 13-01-2020 18:30:00 6.4 C 6.78 g/m*3 6.4 C 3.2 km/h
1372 13-01-2020 18:35:00 6.4 C 6.78 g/m*3 6.4 C 3.2 km/h
1373 13-01-2020 18:40:00 6.4 C 6.71 g/m*3 6.4 C 0 km/h
1374 13-01-2020 18:45:00 6.4 C 6.71 g/m*3 6.4 C 0 km/h
1375 13-01-2020 18:50:00 6.3 C 6.66 g/m*3 6.3 C 0 km/h
Sensor: Nr:Datum:Temp:Abs-Feuchte:Windchill:Wind:
Aussen-T/F 1376 13-01-2020 18:55:00 6.3 C 6.66 g/m*3 6.3 C 0 km/h
1377 13-01-2020 19:00:00 6.3 C 6.66 g/m*3 6.3 C 0 km/h
1378 13-01-2020 19:05:00 6.2 C 6.62 g/m*3 6.2 C 0 km/h
1379 13-01-2020 19:10:00 6.3 C 6.74 g/m*3 6.3 C 0 km/h
1380 13-01-2020 19:15:00 6.3 C 6.74 g/m*3 6.3 C 0 km/h
1381 13-01-2020 19:20:00 6.4 C 6.78 g/m*3 6.4 C 0 km/h
1382 13-01-2020 19:25:00 6.4 C 6.78 g/m*3 6.4 C 0 km/h
1383 13-01-2020 19:30:00 6.6 C 6.87 g/m*3 5.44 C 6.4 km/h
1384 13-01-2020 19:35:00 6.7 C 6.84 g/m*3 6.7 C 4.8 km/h
1385 13-01-2020 19:40:00 6.8 C 6.88 g/m*3 6.8 C 1.6 km/h
1386 13-01-2020 19:45:00 6.8 C 6.88 g/m*3 6.8 C 0 km/h
1387 13-01-2020 19:50:00 6.8 C 6.88 g/m*3 6.8 C 0 km/h
1388 13-01-2020 19:55:00 6.7 C 6.84 g/m*3 6.7 C 0 km/h
1389 13-01-2020 20:00:00 6.6 C 6.79 g/m*3 6.6 C 0 km/h
1390 13-01-2020 20:05:00 6.6 C 6.79 g/m*3 6.6 C 0 km/h
1391 13-01-2020 20:10:00 6.5 C 6.82 g/m*3 6.5 C 0 km/h
1392 13-01-2020 20:15:00 6.4 C 6.78 g/m*3 6.4 C 0 km/h
1393 13-01-2020 20:20:00 6.4 C 6.78 g/m*3 6.4 C 0 km/h
1394 13-01-2020 20:25:00 6.4 C 6.78 g/m*3 6.4 C 0 km/h
1395 13-01-2020 20:30:00 6.3 C 6.74 g/m*3 6.3 C 0 km/h
1396 13-01-2020 20:35:00 6.3 C 6.74 g/m*3 6.3 C 0 km/h
1397 13-01-2020 20:40:00 6.3 C 6.81 g/m*3 6.3 C 0 km/h
1398 13-01-2020 20:45:00 6.3 C 6.81 g/m*3 6.3 C 0 km/h
1399 13-01-2020 20:50:00 6.3 C 6.81 g/m*3 6.3 C 0 km/h
1400 13-01-2020 20:55:00 6.3 C 6.81 g/m*3 6.3 C 0 km/h
Sensor: Nr:Datum:Temp:Abs-Feuchte:Windchill:Wind:
Aussen-T/F 1401 13-01-2020 21:00:00 6.3 C 6.81 g/m*3 6.3 C 0 km/h
1402 13-01-2020 21:05:00 6.4 C 6.85 g/m*3 6.4 C 0 km/h
1403 13-01-2020 21:10:00 6.4 C 6.85 g/m*3 6.4 C 0 km/h
1404 13-01-2020 21:15:00 6.4 C 6.85 g/m*3 6.4 C 0 km/h
1405 13-01-2020 21:20:00 6.4 C 6.85 g/m*3 6.4 C 0 km/h
1406 13-01-2020 21:25:00 6.3 C 6.81 g/m*3 6.3 C 0 km/h
1407 13-01-2020 21:30:00 6.2 C 6.77 g/m*3 6.2 C 0 km/h
1408 13-01-2020 21:35:00 6.2 C 6.77 g/m*3 6.2 C 0 km/h
1409 13-01-2020 21:40:00 6.3 C 6.81 g/m*3 6.3 C 0 km/h
1410 13-01-2020 21:45:00 6.3 C 6.81 g/m*3 6.3 C 0 km/h
1411 13-01-2020 21:50:00 6.2 C 6.77 g/m*3 6.2 C 0 km/h
1412 13-01-2020 21:55:00 6.2 C 6.77 g/m*3 6.2 C 0 km/h
1413 13-01-2020 22:00:00 6.2 C 6.84 g/m*3 6.2 C 0 km/h
1414 13-01-2020 22:05:00 6.2 C 6.84 g/m*3 6.2 C 0 km/h
1415 13-01-2020 22:10:00 6.2 C 6.84 g/m*3 6.2 C 0 km/h
1416 13-01-2020 22:15:00 6.3 C 6.88 g/m*3 6.3 C 0 km/h
1417 13-01-2020 22:20:00 6.3 C 6.88 g/m*3 6.3 C 0 km/h
1418 13-01-2020 22:25:00 6.4 C 6.93 g/m*3 6.4 C 1.6 km/h
1419 13-01-2020 22:30:00 6.4 C 6.93 g/m*3 6.4 C 3.2 km/h
1420 13-01-2020 22:35:00 6.5 C 6.97 g/m*3 6.5 C 0 km/h
1421 13-01-2020 22:40:00 6.6 C 7.02 g/m*3 6.6 C 0 km/h
1422 13-01-2020 22:45:00 6.6 C 7.02 g/m*3 6.6 C 0 km/h
1423 13-01-2020 22:50:00 6.7 C 7.07 g/m*3 6.7 C 3.2 km/h
1424 13-01-2020 22:55:00 6.7 C 7.07 g/m*3 6.7 C 0 km/h
1425 13-01-2020 23:00:00 6.8 C 7.11 g/m*3 6.8 C 0 km/h
Sensor: Nr:Datum:Temp:Abs-Feuchte:Windchill:Wind:
Aussen-T/F 1426 13-01-2020 23:05:00 6.8 C 7.11 g/m*3 6.8 C 0 km/h
1427 13-01-2020 23:10:00 6.8 C 7.04 g/m*3 6.8 C 0 km/h
1428 13-01-2020 23:15:00 6.8 C 7.04 g/m*3 6.8 C 0 km/h
1429 13-01-2020 23:20:00 6.8 C 7.11 g/m*3 6.8 C 0 km/h
1430 13-01-2020 23:25:00 6.8 C 7.11 g/m*3 6.8 C 0 km/h
1431 13-01-2020 23:30:00 6.8 C 7.11 g/m*3 5.22 C 8.1 km/h
1432 13-01-2020 23:35:00 6.8 C 7.11 g/m*3 6.8 C 3.2 km/h
1433 13-01-2020 23:40:00 6.9 C 7.16 g/m*3 6.9 C 0 km/h
1434 13-01-2020 23:45:00 6.9 C 7.16 g/m*3 6.9 C 1.6 km/h
1435 13-01-2020 23:50:00 6.9 C 7.16 g/m*3 6.9 C 0 km/h
1436 13-01-2020 23:55:00 7 C 7.21 g/m*3 7 C 3.2 km/h
1437 14-01-2020 00:00:00 7.1 C 7.25 g/m*3 7.1 C 0 km/h
1438 14-01-2020 00:05:00 7.1 C 7.25 g/m*3 7.1 C 3.2 km/h
1439 14-01-2020 00:10:00 7.1 C 7.25 g/m*3 7.1 C 1.6 km/h
1440 14-01-2020 00:15:00 7.1 C 7.25 g/m*3 7.1 C 1.6 km/h
1441 14-01-2020 00:20:00 7.1 C 7.25 g/m*3 7.1 C 1.6 km/h
1442 14-01-2020 00:25:00 7.2 C 7.3 g/m*3 7.2 C 4.8 km/h
1443 14-01-2020 00:30:00 7.2 C 7.3 g/m*3 7.2 C 0 km/h
1444 14-01-2020 00:35:00 7.2 C 7.3 g/m*3 7.2 C 1.6 km/h
1445 14-01-2020 00:40:00 7.2 C 7.3 g/m*3 7.2 C 0 km/h
1446 14-01-2020 00:45:00 7.2 C 7.3 g/m*3 7.2 C 1.6 km/h
1447 14-01-2020 00:50:00 7.2 C 7.3 g/m*3 7.2 C 0 km/h
1448 14-01-2020 00:55:00 7.2 C 7.3 g/m*3 7.2 C 0 km/h
1449 14-01-2020 01:00:00 7.1 C 7.25 g/m*3 7.1 C 0 km/h
1450 14-01-2020 01:05:00 7.1 C 7.25 g/m*3 7.1 C 0 km/h
Sensor: Nr:Datum:Temp:Abs-Feuchte:Windchill:Wind:
Aussen-T/F 1451 14-01-2020 01:10:00 7 C 7.13 g/m*3 7 C 0 km/h
1452 14-01-2020 01:15:00 6.9 C 7.08 g/m*3 6.9 C 0 km/h
1453 14-01-2020 01:20:00 6.8 C 7.04 g/m*3 6.8 C 0 km/h
1454 14-01-2020 01:25:00 6.7 C 6.99 g/m*3 6.7 C 0 km/h
1455 14-01-2020 01:30:00 6.7 C 6.99 g/m*3 6.7 C 0 km/h
1456 14-01-2020 01:35:00 6.6 C 7.02 g/m*3 6.6 C 0 km/h
1457 14-01-2020 01:40:00 6.5 C 6.97 g/m*3 6.5 C 4.8 km/h
1458 14-01-2020 01:45:00 6.6 C 7.02 g/m*3 6.6 C 1.6 km/h
1459 14-01-2020 01:50:00 6.6 C 7.02 g/m*3 6.6 C 0 km/h
1460 14-01-2020 01:55:00 6.6 C 7.02 g/m*3 6.6 C 1.6 km/h
1461 14-01-2020 02:00:00 6.7 C 7.07 g/m*3 6.7 C 1.6 km/h
1462 14-01-2020 02:05:00 6.7 C 7.07 g/m*3 6.7 C 1.6 km/h
1463 14-01-2020 02:10:00 6.8 C 7.11 g/m*3 6.8 C 1.6 km/h
1464 14-01-2020 02:15:00 6.8 C 7.04 g/m*3 6.8 C 1.6 km/h
1465 14-01-2020 02:20:00 6.9 C 7.08 g/m*3 6.9 C 1.6 km/h
1466 14-01-2020 02:25:00 6.9 C 7.08 g/m*3 6.9 C 0 km/h
1467 14-01-2020 02:30:00 7 C 7.05 g/m*3 7 C 1.6 km/h
1468 14-01-2020 02:35:00 7.1 C 7.1 g/m*3 7.1 C 0 km/h
1469 14-01-2020 02:40:00 7.1 C 7.1 g/m*3 7.1 C 4.8 km/h
1470 14-01-2020 02:45:00 7.1 C 7.1 g/m*3 7.1 C 4.8 km/h
1471 14-01-2020 02:50:00 7 C 7.05 g/m*3 7 C 3.2 km/h
1472 14-01-2020 02:55:00 7 C 7.05 g/m*3 7 C 3.2 km/h
1473 14-01-2020 03:00:00 7 C 7.05 g/m*3 7 C 1.6 km/h
1474 14-01-2020 03:05:00 7.1 C 7.1 g/m*3 7.1 C 0 km/h
1475 14-01-2020 03:10:00 7.1 C 7.02 g/m*3 7.1 C 1.6 km/h
Sensor: Nr:Datum:Temp:Abs-Feuchte:Windchill:Wind:
Aussen-T/F 1476 14-01-2020 03:15:00 7.2 C 7.06 g/m*3 7.2 C 3.2 km/h
1477 14-01-2020 03:20:00 7.3 C 7.11 g/m*3 7.3 C 1.6 km/h
1478 14-01-2020 03:25:00 7.3 C 7.03 g/m*3 7.3 C 0 km/h
1479 14-01-2020 03:30:00 7.2 C 6.99 g/m*3 7.2 C 0 km/h
1480 14-01-2020 03:35:00 7.2 C 6.99 g/m*3 7.2 C 1.6 km/h
1481 14-01-2020 03:40:00 7.3 C 7.03 g/m*3 7.3 C 3.2 km/h
1482 14-01-2020 03:45:00 7.4 C 7 g/m*3 7.4 C 0 km/h
1483 14-01-2020 03:50:00 7.4 C 7 g/m*3 7.4 C 0 km/h
1484 14-01-2020 03:55:00 7.5 C 7.04 g/m*3 7.5 C 1.6 km/h
1485 14-01-2020 04:00:00 7.5 C 7.04 g/m*3 7.5 C 1.6 km/h
1486 14-01-2020 04:05:00 7.5 C 7.04 g/m*3 6.48 C 6.4 km/h
1487 14-01-2020 04:10:00 7.6 C 7.09 g/m*3 7.6 C 0 km/h
1488 14-01-2020 04:15:00 7.6 C 7.09 g/m*3 7.6 C 0 km/h
1489 14-01-2020 04:20:00 7.5 C 7.04 g/m*3 7.5 C 3.2 km/h
1490 14-01-2020 04:25:00 7.5 C 6.96 g/m*3 6.48 C 6.4 km/h
1491 14-01-2020 04:30:00 7.4 C 6.92 g/m*3 7.4 C 0 km/h
1492 14-01-2020 04:35:00 7.4 C 7 g/m*3 7.4 C 3.2 km/h
1493 14-01-2020 04:40:00 7.5 C 7.04 g/m*3 7.5 C 1.6 km/h
1494 14-01-2020 04:45:00 7.6 C 7.17 g/m*3 7.6 C 3.2 km/h
1495 14-01-2020 04:50:00 7.6 C 7.17 g/m*3 7.6 C 1.6 km/h
1496 14-01-2020 04:55:00 7.7 C 7.22 g/m*3 6.71 C 6.4 km/h
1497 14-01-2020 05:00:00 7.8 C 7.18 g/m*3 7.8 C 3.2 km/h
1498 14-01-2020 05:05:00 7.9 C 7.15 g/m*3 6.52 C 8.1 km/h
1499 14-01-2020 05:10:00 8 C 7.11 g/m*3 6.01 C 11.3 km/h
1500 14-01-2020 05:15:00 8.2 C 7.2 g/m*3 8.2 C 4.8 km/h
Sensor: Nr:Datum:Temp:Abs-Feuchte:Windchill:Wind:
Aussen-T/F 1501 14-01-2020 05:20:00 8.2 C 7.2 g/m*3 7.29 C 6.4 km/h
1502 14-01-2020 05:25:00 8.3 C 7.16 g/m*3 7.41 C 6.4 km/h
1503 14-01-2020 05:30:00 8.3 C 7.16 g/m*3 8.3 C 3.2 km/h
1504 14-01-2020 05:35:00 8.3 C 7.16 g/m*3 8.3 C 4.8 km/h
1505 14-01-2020 05:40:00 8.3 C 7.08 g/m*3 8.3 C 4.8 km/h
1506 14-01-2020 05:45:00 8.3 C 7 g/m*3 8.3 C 4.8 km/h
1507 14-01-2020 05:50:00 8.3 C 7 g/m*3 8.3 C 1.6 km/h
1508 14-01-2020 05:55:00 8.3 C 7 g/m*3 8.3 C 4.8 km/h
1509 14-01-2020 06:00:00 8.3 C 7 g/m*3 8.3 C 4.8 km/h
1510 14-01-2020 06:05:00 8.3 C 7 g/m*3 8.3 C 0 km/h
1511 14-01-2020 06:10:00 8.3 C 7.08 g/m*3 8.3 C 1.6 km/h
1512 14-01-2020 06:15:00 8.4 C 7.04 g/m*3 6.78 C 9.7 km/h
1513 14-01-2020 06:20:00 8.4 C 7.04 g/m*3 8.4 C 0 km/h
1514 14-01-2020 06:25:00 8.3 C 7 g/m*3 8.3 C 3.2 km/h
1515 14-01-2020 06:30:00 8.2 C 6.95 g/m*3 8.2 C 4.8 km/h
1516 14-01-2020 06:35:00 8.1 C 6.99 g/m*3 6.75 C 8.1 km/h
1517 14-01-2020 06:40:00 8 C 6.94 g/m*3 8 C 3.2 km/h
1518 14-01-2020 06:45:00 7.9 C 6.9 g/m*3 7.9 C 4.8 km/h
1519 14-01-2020 06:50:00 7.9 C 6.9 g/m*3 7.9 C 4.8 km/h
1520 14-01-2020 06:55:00 8 C 6.86 g/m*3 6.64 C 8.1 km/h
1521 14-01-2020 07:00:00 8.1 C 6.91 g/m*3 7.17 C 6.4 km/h
1522 14-01-2020 07:05:00 8.2 C 6.95 g/m*3 8.2 C 3.2 km/h
1523 14-01-2020 07:10:00 8.2 C 6.95 g/m*3 8.2 C 3.2 km/h
1524 14-01-2020 07:15:00 8.1 C 6.91 g/m*3 8.1 C 1.6 km/h
1525 14-01-2020 07:20:00 8 C 6.86 g/m*3 8 C 1.6 km/h
Sensor: Nr:Datum:Temp:Abs-Feuchte:Windchill:Wind:
Aussen-T/F 1526 14-01-2020 07:25:00 7.8 C 6.77 g/m*3 7.8 C 3.2 km/h
1527 14-01-2020 07:30:00 7.8 C 6.86 g/m*3 7.8 C 1.6 km/h
1528 14-01-2020 07:35:00 7.8 C 6.77 g/m*3 6.4 C 8.1 km/h
1529 14-01-2020 07:40:00 7.9 C 6.82 g/m*3 6.94 C 6.4 km/h
1530 14-01-2020 07:45:00 8.1 C 6.82 g/m*3 6.75 C 8.1 km/h
1531 14-01-2020 07:50:00 8.1 C 6.82 g/m*3 7.17 C 6.4 km/h
1532 14-01-2020 07:55:00 8.1 C 6.74 g/m*3 7.17 C 6.4 km/h
1533 14-01-2020 08:00:00 8.2 C 6.78 g/m*3 6.87 C 8.1 km/h
1534 14-01-2020 08:05:00 8.2 C 6.78 g/m*3 6.87 C 8.1 km/h
1535 14-01-2020 08:10:00 8.3 C 6.83 g/m*3 5.89 C 14.5 km/h
1536 14-01-2020 08:15:00 8.4 C 6.79 g/m*3 6.49 C 11.3 km/h
1537 14-01-2020 08:20:00 8.4 C 6.79 g/m*3 6.78 C 9.7 km/h
1538 14-01-2020 08:25:00 8.5 C 6.83 g/m*3 6.61 C 11.3 km/h
1539 14-01-2020 08:30:00 8.6 C 6.87 g/m*3 7.34 C 8.1 km/h
1540 14-01-2020 08:35:00 8.6 C 6.87 g/m*3 7.75 C 6.4 km/h
1541 14-01-2020 08:40:00 8.6 C 6.87 g/m*3 6.48 C 12.9 km/h
1542 14-01-2020 08:45:00 8.6 C 6.87 g/m*3 7.34 C 8.1 km/h
1543 14-01-2020 08:50:00 8.6 C 6.87 g/m*3 7.01 C 9.7 km/h
1544 14-01-2020 08:55:00 8.6 C 6.96 g/m*3 6.73 C 11.3 km/h
1545 14-01-2020 09:00:00 8.6 C 6.96 g/m*3 6.25 C 14.5 km/h
1546 14-01-2020 09:05:00 8.7 C 6.92 g/m*3 7.13 C 9.7 km/h
1547 14-01-2020 09:10:00 8.7 C 6.92 g/m*3 6.85 C 11.3 km/h
1548 14-01-2020 09:15:00 8.8 C 6.96 g/m*3 7.25 C 9.7 km/h
1549 14-01-2020 09:20:00 8.8 C 6.96 g/m*3 7.25 C 9.7 km/h
1550 14-01-2020 09:25:00 8.9 C 7.1 g/m*3 6.85 C 12.9 km/h
Sensor: Nr:Datum:Temp:Abs-Feuchte:Windchill:Wind:
Aussen-T/F 1551 14-01-2020 09:30:00 8.9 C 7.1 g/m*3 8.1 C 6.4 km/h
1552 14-01-2020 09:35:00 8.9 C 7.1 g/m*3 7.37 C 9.7 km/h
1553 14-01-2020 09:40:00 8.9 C 7.1 g/m*3 7.69 C 8.1 km/h
1554 14-01-2020 09:45:00 9.1 C 7.1 g/m*3 7.61 C 9.7 km/h
1555 14-01-2020 09:50:00 9.2 C 7.23 g/m*3 7.21 C 12.9 km/h
1556 14-01-2020 09:55:00 9.2 C 7.14 g/m*3 7.46 C 11.3 km/h
1557 14-01-2020 10:00:00 9.3 C 7.19 g/m*3 6.12 C 24.1 km/h
1558 14-01-2020 10:05:00 9.5 C 7.28 g/m*3 7.16 C 16.1 km/h
1559 14-01-2020 10:10:00 9.6 C 7.33 g/m*3 8.91 C 6.4 km/h
1560 14-01-2020 10:15:00 9.7 C 7.28 g/m*3 7.82 C 12.9 km/h
1561 14-01-2020 10:20:00 9.6 C 7.24 g/m*3 7.94 C 11.3 km/h
1562 14-01-2020 10:25:00 9.6 C 7.24 g/m*3 7.7 C 12.9 km/h
1563 14-01-2020 10:30:00 9.5 C 7.19 g/m*3 8.4 C 8.1 km/h
1564 14-01-2020 10:35:00 9.4 C 7.15 g/m*3 7.97 C 9.7 km/h
1565 14-01-2020 10:40:00 9.4 C 7.15 g/m*3 8.28 C 8.1 km/h
1566 14-01-2020 10:45:00 9.4 C 7.15 g/m*3 8.68 C 6.4 km/h
1567 14-01-2020 10:50:00 9.4 C 7.15 g/m*3 8.28 C 8.1 km/h
1568 14-01-2020 10:55:00 9.4 C 7.15 g/m*3 9.4 C 1.6 km/h
1569 14-01-2020 11:00:00 9.5 C 7.19 g/m*3 8.79 C 6.4 km/h
1570 14-01-2020 11:05:00 9.6 C 7.15 g/m*3 8.91 C 6.4 km/h
1571 14-01-2020 11:10:00 9.7 C 7.19 g/m*3 8.63 C 8.1 km/h
1572 14-01-2020 11:15:00 9.7 C 7.1 g/m*3 8.06 C 11.3 km/h
1573 14-01-2020 11:20:00 9.8 C 7.14 g/m*3 9.14 C 6.4 km/h
1574 14-01-2020 11:25:00 9.8 C 7.05 g/m*3 8.18 C 11.3 km/h
1575 14-01-2020 11:30:00 9.9 C 7.1 g/m*3 8.87 C 8.1 km/h
Sensor: Nr:Datum:Temp:Abs-Feuchte:Windchill:Wind:
Aussen-T/F 1576 14-01-2020 11:35:00 9.9 C 7.1 g/m*3 9.9 C 4.8 km/h
1577 14-01-2020 11:40:00 10 C 7.05 g/m*3 9.37 C 6.4 km/h
1578 14-01-2020 11:45:00 10 C 7.05 g/m*3 9.37 C 6.4 km/h
1579 14-01-2020 11:50:00 10.1 C 7.09 g/m*3 10.1 C 4.8 km/h
1580 14-01-2020 11:55:00 10.1 C 7 g/m*3 10.1 C 3.2 km/h
1581 14-01-2020 12:00:00 10.1 C 7 g/m*3 9.1 C 8.1 km/h
1582 14-01-2020 12:05:00 10.1 C 7 g/m*3 8.54 C 11.3 km/h
1583 14-01-2020 12:10:00 10.1 C 7 g/m*3 9.48 C 6.4 km/h
1584 14-01-2020 12:15:00 10.1 C 7 g/m*3 9.48 C 6.4 km/h
1585 14-01-2020 12:20:00 10.1 C 6.9 g/m*3 10.1 C 3.2 km/h
1586 14-01-2020 12:25:00 10.2 C 6.95 g/m*3 8.92 C 9.7 km/h
1587 14-01-2020 12:30:00 10.2 C 6.95 g/m*3 9.6 C 6.4 km/h
1588 14-01-2020 12:35:00 10.3 C 6.99 g/m*3 8.78 C 11.3 km/h
1589 14-01-2020 12:40:00 10.3 C 7.09 g/m*3 10.3 C 4.8 km/h
1590 14-01-2020 12:45:00 10.3 C 6.9 g/m*3 10.3 C 4.8 km/h
1591 14-01-2020 12:50:00 10.3 C 6.99 g/m*3 9.34 C 8.1 km/h
1592 14-01-2020 12:55:00 10.4 C 7.04 g/m*3 10.4 C 4.8 km/h
1593 14-01-2020 13:00:00 10.4 C 7.04 g/m*3 10.4 C 0 km/h
1594 14-01-2020 13:05:00 10.5 C 7.08 g/m*3 10.5 C 1.6 km/h
1595 14-01-2020 13:10:00 10.5 C 7.27 g/m*3 10.5 C 0 km/h
1596 14-01-2020 13:15:00 10.6 C 7.42 g/m*3 10.6 C 0 km/h
1597 14-01-2020 13:20:00 10.5 C 7.18 g/m*3 10.5 C 3.2 km/h
1598 14-01-2020 13:25:00 10.6 C 7.03 g/m*3 10.6 C 3.2 km/h
1599 14-01-2020 13:30:00 10.7 C 7.37 g/m*3 10.7 C 0 km/h
1600 14-01-2020 13:35:00 10.7 C 7.27 g/m*3 10.7 C 0 km/h
Sensor: Nr:Datum:Temp:Abs-Feuchte:Windchill:Wind:
Aussen-T/F 1601 14-01-2020 13:40:00 10.8 C 7.31 g/m*3 10.8 C 0 km/h
1602 14-01-2020 13:45:00 10.8 C 7.02 g/m*3 8.3 C 20.9 km/h
1603 14-01-2020 13:50:00 11.1 C 7.25 g/m*3 11.1 C 4.8 km/h
1604 14-01-2020 13:55:00 11.2 C 7.3 g/m*3 11.2 C 12.9 km/h
1605 14-01-2020 14:00:00 11.4 C 7.08 g/m*3 11.4 C 9.7 km/h
1606 14-01-2020 14:05:00 11.7 C 7.22 g/m*3 11.7 C 8.1 km/h
1607 14-01-2020 14:10:00 11.8 C 7.26 g/m*3 11.8 C 8.1 km/h
1608 14-01-2020 14:15:00 11.9 C 7.2 g/m*3 11.9 C 11.3 km/h
1609 14-01-2020 14:20:00 12 C 7.03 g/m*3 12 C 12.9 km/h
1610 14-01-2020 14:25:00 12.1 C 7.18 g/m*3 12.1 C 9.7 km/h
1611 14-01-2020 14:30:00 12.1 C 7.08 g/m*3 12.1 C 16.1 km/h
1612 14-01-2020 14:35:00 12.1 C 7.08 g/m*3 12.1 C 6.4 km/h
1613 14-01-2020 14:40:00 12.1 C 7.29 g/m*3 12.1 C 9.7 km/h
1614 14-01-2020 14:45:00 12.1 C 7.29 g/m*3 12.1 C 0 km/h
1615 14-01-2020 14:50:00 12.1 C 7.18 g/m*3 12.1 C 0 km/h
1616 14-01-2020 14:55:00 12.1 C 7.18 g/m*3 12.1 C 6.4 km/h
1617 14-01-2020 15:00:00 12.2 C 7.12 g/m*3 12.2 C 12.9 km/h
1618 14-01-2020 15:05:00 12.2 C 7.12 g/m*3 12.2 C 19.3 km/h
1619 14-01-2020 15:10:00 12.2 C 7.12 g/m*3 12.2 C 17.7 km/h
1620 14-01-2020 15:15:00 12.2 C 7.12 g/m*3 12.2 C 4.8 km/h
1621 14-01-2020 15:20:00 12.2 C 7.01 g/m*3 12.2 C 14.5 km/h
1622 14-01-2020 15:25:00 12.2 C 7.01 g/m*3 12.2 C 9.7 km/h
1623 14-01-2020 15:30:00 12.2 C 6.91 g/m*3 12.2 C 6.4 km/h
1624 14-01-2020 15:35:00 12.2 C 7.12 g/m*3 12.2 C 4.8 km/h
1625 14-01-2020 15:40:00 12.1 C 7.08 g/m*3 12.1 C 3.2 km/h
Sensor: Nr:Datum:Temp:Abs-Feuchte:Windchill:Wind:
Aussen-T/F 1626 14-01-2020 15:45:00 12 C 7.14 g/m*3 12 C 4.8 km/h
1627 14-01-2020 15:50:00 11.9 C 6.99 g/m*3 11.9 C 1.6 km/h
1628 14-01-2020 15:55:00 11.8 C 7.16 g/m*3 11.8 C 0 km/h
1629 14-01-2020 16:00:00 11.8 C 6.95 g/m*3 11.8 C 8.1 km/h
1630 14-01-2020 16:05:00 11.7 C 7.11 g/m*3 11.7 C 3.2 km/h
1631 14-01-2020 16:10:00 11.5 C 7.02 g/m*3 11.5 C 8.1 km/h
1632 14-01-2020 16:15:00 11.4 C 7.08 g/m*3 11.4 C 8.1 km/h
1633 14-01-2020 16:20:00 11.4 C 6.88 g/m*3 11.4 C 4.8 km/h
1634 14-01-2020 16:25:00 11.4 C 6.88 g/m*3 11.4 C 0 km/h
1635 14-01-2020 16:30:00 11.3 C 6.73 g/m*3 11.3 C 3.2 km/h
1636 14-01-2020 16:35:00 11.3 C 6.73 g/m*3 11.3 C 4.8 km/h
1637 14-01-2020 16:40:00 11.3 C 6.73 g/m*3 11.3 C 11.3 km/h
1638 14-01-2020 16:45:00 11.3 C 6.73 g/m*3 11.3 C 12.9 km/h
1639 14-01-2020 16:50:00 11.4 C 6.77 g/m*3 11.4 C 8.1 km/h
1640 14-01-2020 16:55:00 11.3 C 6.63 g/m*3 11.3 C 6.4 km/h
1641 14-01-2020 17:00:00 11.3 C 6.83 g/m*3 11.3 C 6.4 km/h
1642 14-01-2020 17:05:00 11.3 C 6.73 g/m*3 11.3 C 12.9 km/h
1643 14-01-2020 17:10:00 11.3 C 6.73 g/m*3 11.3 C 8.1 km/h
1644 14-01-2020 17:15:00 11.2 C 6.79 g/m*3 11.2 C 11.3 km/h
1645 14-01-2020 17:20:00 11.2 C 6.79 g/m*3 11.2 C 6.4 km/h
1646 14-01-2020 17:25:00 11.2 C 6.79 g/m*3 11.2 C 14.5 km/h
1647 14-01-2020 17:30:00 11.2 C 6.89 g/m*3 11.2 C 4.8 km/h
1648 14-01-2020 17:35:00 11.1 C 6.85 g/m*3 11.1 C 11.3 km/h
1649 14-01-2020 17:40:00 11.2 C 6.89 g/m*3 11.2 C 12.9 km/h
1650 14-01-2020 17:45:00 11.2 C 6.89 g/m*3 11.2 C 11.3 km/h
Sensor: Nr:Datum:Temp:Abs-Feuchte:Windchill:Wind:
Aussen-T/F 1651 14-01-2020 17:50:00 11.3 C 6.94 g/m*3 11.3 C 11.3 km/h
1652 14-01-2020 17:55:00 11.3 C 6.94 g/m*3 11.3 C 9.7 km/h
1653 14-01-2020 18:00:00 11.3 C 7.04 g/m*3 11.3 C 6.4 km/h
1654 14-01-2020 18:05:00 11.3 C 7.04 g/m*3 11.3 C 8.1 km/h
1655 14-01-2020 18:10:00 11.3 C 7.14 g/m*3 11.3 C 6.4 km/h
1656 14-01-2020 18:15:00 11.3 C 7.14 g/m*3 11.3 C 11.3 km/h
1657 14-01-2020 18:20:00 11.3 C 7.14 g/m*3 11.3 C 8.1 km/h
1658 14-01-2020 18:25:00 11.3 C 7.14 g/m*3 11.3 C 6.4 km/h
1659 14-01-2020 18:30:00 11.3 C 7.14 g/m*3 11.3 C 6.4 km/h
1660 14-01-2020 18:35:00 11.3 C 7.24 g/m*3 11.3 C 6.4 km/h
1661 14-01-2020 18:40:00 11.3 C 7.34 g/m*3 11.3 C 14.5 km/h
1662 14-01-2020 18:45:00 11.3 C 7.34 g/m*3 11.3 C 12.9 km/h
1663 14-01-2020 18:50:00 11.4 C 7.49 g/m*3 11.4 C 14.5 km/h
1664 14-01-2020 18:55:00 11.4 C 7.6 g/m*3 11.4 C 9.7 km/h
1665 14-01-2020 19:00:00 11.5 C 7.64 g/m*3 11.5 C 16.1 km/h
1666 14-01-2020 19:05:00 11.6 C 7.8 g/m*3 11.6 C 19.3 km/h
1667 14-01-2020 19:10:00 11.6 C 7.8 g/m*3 11.6 C 12.9 km/h
1668 14-01-2020 19:15:00 11.6 C 7.8 g/m*3 11.6 C 12.9 km/h
1669 14-01-2020 19:20:00 11.5 C 7.75 g/m*3 11.5 C 16.1 km/h
1670 14-01-2020 19:25:00 11.5 C 7.85 g/m*3 11.5 C 12.9 km/h
1671 14-01-2020 19:30:00 11.4 C 7.8 g/m*3 11.4 C 4.8 km/h
1672 14-01-2020 19:35:00 11.4 C 7.7 g/m*3 11.4 C 14.5 km/h
1673 14-01-2020 19:40:00 11.4 C 7.8 g/m*3 11.4 C 9.7 km/h
1674 14-01-2020 19:45:00 11.4 C 7.7 g/m*3 11.4 C 9.7 km/h
1675 14-01-2020 19:50:00 11.4 C 7.7 g/m*3 11.4 C 16.1 km/h
Sensor: Nr:Datum:Temp:Abs-Feuchte:Windchill:Wind:
Aussen-T/F 1676 14-01-2020 19:55:00 11.3 C 7.75 g/m*3 11.3 C 11.3 km/h
1677 14-01-2020 20:00:00 11.3 C 7.75 g/m*3 11.3 C 11.3 km/h
1678 14-01-2020 20:05:00 11.3 C 7.75 g/m*3 11.3 C 8.1 km/h
1679 14-01-2020 20:10:00 11.2 C 7.7 g/m*3 11.2 C 11.3 km/h
1680 14-01-2020 20:15:00 11.2 C 7.6 g/m*3 11.2 C 17.7 km/h
1681 14-01-2020 20:20:00 11.3 C 7.65 g/m*3 11.3 C 9.7 km/h
1682 14-01-2020 20:25:00 11.3 C 7.65 g/m*3 11.3 C 14.5 km/h
1683 14-01-2020 20:30:00 11.4 C 7.6 g/m*3 11.4 C 19.3 km/h
1684 14-01-2020 20:35:00 11.6 C 7.59 g/m*3 11.6 C 14.5 km/h
1685 14-01-2020 20:40:00 11.7 C 7.53 g/m*3 11.7 C 17.7 km/h
1686 14-01-2020 20:45:00 11.8 C 7.58 g/m*3 11.8 C 11.3 km/h
1687 14-01-2020 20:50:00 11.8 C 7.47 g/m*3 11.8 C 14.5 km/h
1688 14-01-2020 20:55:00 11.8 C 7.47 g/m*3 11.8 C 17.7 km/h
1689 14-01-2020 21:00:00 11.8 C 7.37 g/m*3 11.8 C 17.7 km/h
1690 14-01-2020 21:05:00 11.8 C 7.37 g/m*3 11.8 C 12.9 km/h
1691 14-01-2020 21:10:00 11.8 C 7.47 g/m*3 11.8 C 19.3 km/h
1692 14-01-2020 21:15:00 11.8 C 7.37 g/m*3 11.8 C 11.3 km/h
1693 14-01-2020 21:20:00 11.8 C 7.37 g/m*3 11.8 C 9.7 km/h
1694 14-01-2020 21:25:00 11.9 C 7.41 g/m*3 11.9 C 14.5 km/h
1695 14-01-2020 21:30:00 11.9 C 7.41 g/m*3 11.9 C 14.5 km/h
1696 14-01-2020 21:35:00 12.1 C 7.4 g/m*3 12.1 C 16.1 km/h
1697 14-01-2020 21:40:00 12.2 C 7.34 g/m*3 12.2 C 22.5 km/h
1698 14-01-2020 21:45:00 12.2 C 7.45 g/m*3 12.2 C 9.7 km/h
1699 14-01-2020 21:50:00 12.1 C 7.4 g/m*3 12.1 C 12.9 km/h
1700 14-01-2020 21:55:00 12.1 C 7.4 g/m*3 12.1 C 3.2 km/h
Sensor: Nr:Datum:Temp:Abs-Feuchte:Windchill:Wind:
Aussen-T/F 1701 14-01-2020 22:00:00 11.9 C 7.41 g/m*3 11.9 C 3.2 km/h
1702 14-01-2020 22:05:00 11.8 C 7.37 g/m*3 11.8 C 6.4 km/h
1703 14-01-2020 22:10:00 11.9 C 7.41 g/m*3 11.9 C 12.9 km/h
1704 14-01-2020 22:15:00 12 C 7.57 g/m*3 12 C 3.2 km/h
1705 14-01-2020 22:20:00 12 C 7.57 g/m*3 12 C 4.8 km/h
1706 14-01-2020 22:25:00 12 C 7.46 g/m*3 12 C 8.1 km/h
1707 14-01-2020 22:30:00 12.1 C 7.51 g/m*3 12.1 C 3.2 km/h
1708 14-01-2020 22:35:00 12.1 C 7.61 g/m*3 12.1 C 14.5 km/h
1709 14-01-2020 22:40:00 12.1 C 7.61 g/m*3 12.1 C 12.9 km/h
1710 14-01-2020 22:45:00 11.9 C 7.52 g/m*3 11.9 C 3.2 km/h
1711 14-01-2020 22:50:00 11.9 C 7.52 g/m*3 11.9 C 4.8 km/h
1712 14-01-2020 22:55:00 11.9 C 7.63 g/m*3 11.9 C 6.4 km/h
1713 14-01-2020 23:00:00 11.9 C 7.73 g/m*3 11.9 C 12.9 km/h
1714 14-01-2020 23:05:00 12 C 7.67 g/m*3 12 C 9.7 km/h
1715 14-01-2020 23:10:00 12.1 C 7.83 g/m*3 12.1 C 9.7 km/h
1716 14-01-2020 23:15:00 12 C 7.67 g/m*3 12 C 3.2 km/h
1717 14-01-2020 23:20:00 11.9 C 7.73 g/m*3 11.9 C 9.7 km/h
1718 14-01-2020 23:25:00 11.9 C 7.84 g/m*3 11.9 C 11.3 km/h
1719 14-01-2020 23:30:00 12.1 C 7.83 g/m*3 12.1 C 9.7 km/h
1720 14-01-2020 23:35:00 12.1 C 7.83 g/m*3 12.1 C 6.4 km/h
1721 14-01-2020 23:40:00 12.1 C 7.83 g/m*3 12.1 C 6.4 km/h
1722 14-01-2020 23:45:00 12 C 7.67 g/m*3 12 C 8.1 km/h
1723 14-01-2020 23:50:00 12 C 7.67 g/m*3 12 C 11.3 km/h
1724 14-01-2020 23:55:00 11.9 C 7.63 g/m*3 11.9 C 8.1 km/h
1725 15-01-2020 00:00:00 12 C 7.57 g/m*3 12 C 8.1 km/h
Sensor: Nr:Datum:Temp:Abs-Feuchte:Windchill:Wind:
Aussen-T/F 1726 15-01-2020 00:05:00 12.1 C 7.72 g/m*3 12.1 C 6.4 km/h
1727 15-01-2020 00:10:00 11.9 C 7.63 g/m*3 11.9 C 8.1 km/h
1728 15-01-2020 00:15:00 11.8 C 7.58 g/m*3 11.8 C 4.8 km/h
1729 15-01-2020 00:20:00 11.8 C 7.47 g/m*3 11.8 C 8.1 km/h
1730 15-01-2020 00:25:00 11.9 C 7.52 g/m*3 11.9 C 9.7 km/h
1731 15-01-2020 00:30:00 11.8 C 7.47 g/m*3 11.8 C 3.2 km/h
1732 15-01-2020 00:35:00 11.9 C 7.52 g/m*3 11.9 C 11.3 km/h
1733 15-01-2020 00:40:00 11.9 C 7.52 g/m*3 11.9 C 0 km/h
1734 15-01-2020 00:45:00 11.8 C 7.37 g/m*3 11.8 C 9.7 km/h
1735 15-01-2020 00:50:00 11.8 C 7.37 g/m*3 11.8 C 14.5 km/h
1736 15-01-2020 00:55:00 11.8 C 7.37 g/m*3 11.8 C 14.5 km/h
1737 15-01-2020 01:00:00 11.8 C 7.47 g/m*3 11.8 C 9.7 km/h
1738 15-01-2020 01:05:00 11.8 C 7.47 g/m*3 11.8 C 6.4 km/h
1739 15-01-2020 01:10:00 11.8 C 7.47 g/m*3 11.8 C 4.8 km/h
1740 15-01-2020 01:15:00 11.7 C 7.43 g/m*3 11.7 C 4.8 km/h
1741 15-01-2020 01:20:00 11.7 C 7.53 g/m*3 11.7 C 12.9 km/h
1742 15-01-2020 01:25:00 11.6 C 7.48 g/m*3 11.6 C 6.4 km/h
1743 15-01-2020 01:30:00 11.5 C 7.44 g/m*3 11.5 C 6.4 km/h
1744 15-01-2020 01:35:00 11.4 C 7.39 g/m*3 11.4 C 8.1 km/h
1745 15-01-2020 01:40:00 11.3 C 7.45 g/m*3 11.3 C 3.2 km/h
1746 15-01-2020 01:45:00 11.3 C 7.45 g/m*3 11.3 C 4.8 km/h
1747 15-01-2020 01:50:00 11.3 C 7.45 g/m*3 11.3 C 8.1 km/h
1748 15-01-2020 01:55:00 11.3 C 7.45 g/m*3 11.3 C 4.8 km/h
1749 15-01-2020 02:00:00 11.3 C 7.55 g/m*3 11.3 C 6.4 km/h
1750 15-01-2020 02:05:00 11.2 C 7.5 g/m*3 11.2 C 8.1 km/h
Sensor: Nr:Datum:Temp:Abs-Feuchte:Windchill:Wind:
Aussen-T/F 1751 15-01-2020 02:10:00 11.1 C 7.55 g/m*3 11.1 C 8.1 km/h
1752 15-01-2020 02:15:00 11 C 7.61 g/m*3 11 C 4.8 km/h
1753 15-01-2020 02:20:00 10.9 C 7.56 g/m*3 10.41 C 6.4 km/h
1754 15-01-2020 02:25:00 10.9 C 7.66 g/m*3 10.41 C 6.4 km/h
1755 15-01-2020 02:30:00 10.8 C 7.61 g/m*3 10.8 C 3.2 km/h
1756 15-01-2020 02:35:00 10.8 C 7.71 g/m*3 10.29 C 6.4 km/h
1757 15-01-2020 02:40:00 10.8 C 7.71 g/m*3 10.8 C 1.6 km/h
1758 15-01-2020 02:45:00 10.8 C 7.71 g/m*3 9.93 C 8.1 km/h
1759 15-01-2020 02:50:00 10.9 C 7.76 g/m*3 10.9 C 3.2 km/h
1760 15-01-2020 02:55:00 10.9 C 7.86 g/m*3 10.9 C 1.6 km/h
1761 15-01-2020 03:00:00 10.8 C 7.81 g/m*3 10.8 C 3.2 km/h
1762 15-01-2020 03:05:00 10.6 C 7.81 g/m*3 10.6 C 1.6 km/h
1763 15-01-2020 03:10:00 10.5 C 7.76 g/m*3 9.57 C 8.1 km/h
1764 15-01-2020 03:15:00 10.4 C 7.81 g/m*3 10.4 C 4.8 km/h
1765 15-01-2020 03:20:00 10.6 C 7.91 g/m*3 10.6 C 4.8 km/h
1766 15-01-2020 03:25:00 10.7 C 7.86 g/m*3 10.7 C 3.2 km/h
1767 15-01-2020 03:30:00 10.6 C 7.81 g/m*3 10.6 C 1.6 km/h
1768 15-01-2020 03:35:00 10.6 C 7.91 g/m*3 10.6 C 4.8 km/h
1769 15-01-2020 03:40:00 10.4 C 7.81 g/m*3 10.4 C 0 km/h
1770 15-01-2020 03:45:00 10.3 C 7.85 g/m*3 10.3 C 0 km/h
1771 15-01-2020 03:50:00 10.2 C 7.8 g/m*3 10.2 C 0 km/h
1772 15-01-2020 03:55:00 10.1 C 7.85 g/m*3 10.1 C 0 km/h
1773 15-01-2020 04:00:00 9.9 C 7.75 g/m*3 9.9 C 0 km/h
1774 15-01-2020 04:05:00 9.9 C 7.84 g/m*3 9.9 C 3.2 km/h
1775 15-01-2020 04:10:00 9.8 C 7.79 g/m*3 9.8 C 0 km/h
Sensor: Nr:Datum:Temp:Abs-Feuchte:Windchill:Wind:
Aussen-T/F 1776 15-01-2020 04:15:00 9.8 C 7.79 g/m*3 9.8 C 0 km/h
1777 15-01-2020 04:20:00 9.8 C 7.79 g/m*3 9.8 C 1.6 km/h
1778 15-01-2020 04:25:00 9.7 C 7.74 g/m*3 9.7 C 1.6 km/h
1779 15-01-2020 04:30:00 9.7 C 7.84 g/m*3 9.7 C 1.6 km/h
1780 15-01-2020 04:35:00 9.6 C 7.79 g/m*3 9.6 C 3.2 km/h
1781 15-01-2020 04:40:00 9.6 C 7.79 g/m*3 9.6 C 3.2 km/h
1782 15-01-2020 04:45:00 9.5 C 7.65 g/m*3 9.5 C 0 km/h
1783 15-01-2020 04:50:00 9.5 C 7.65 g/m*3 9.5 C 0 km/h
1784 15-01-2020 04:55:00 9.4 C 7.51 g/m*3 9.4 C 0 km/h
1785 15-01-2020 05:00:00 9.4 C 7.6 g/m*3 9.4 C 4.8 km/h
1786 15-01-2020 05:05:00 9.3 C 7.55 g/m*3 9.3 C 0 km/h
1787 15-01-2020 05:10:00 9.3 C 7.55 g/m*3 9.3 C 0 km/h
1788 15-01-2020 05:15:00 9.3 C 7.55 g/m*3 9.3 C 1.6 km/h
1789 15-01-2020 05:20:00 9.4 C 7.6 g/m*3 9.4 C 3.2 km/h
1790 15-01-2020 05:25:00 9.6 C 7.6 g/m*3 8.52 C 8.1 km/h
1791 15-01-2020 05:30:00 9.8 C 7.61 g/m*3 9.8 C 4.8 km/h
1792 15-01-2020 05:35:00 9.9 C 7.66 g/m*3 9.9 C 4.8 km/h
1793 15-01-2020 05:40:00 10 C 7.61 g/m*3 10 C 4.8 km/h
1794 15-01-2020 05:45:00 10 C 7.52 g/m*3 8.68 C 9.7 km/h
1795 15-01-2020 05:50:00 10.1 C 7.56 g/m*3 9.48 C 6.4 km/h
1796 15-01-2020 05:55:00 10.2 C 7.52 g/m*3 10.2 C 3.2 km/h
1797 15-01-2020 06:00:00 10.3 C 7.57 g/m*3 10.3 C 1.6 km/h
1798 15-01-2020 06:05:00 10.3 C 7.57 g/m*3 9.72 C 6.4 km/h
1799 15-01-2020 06:10:00 10.3 C 7.57 g/m*3 10.3 C 3.2 km/h
1800 15-01-2020 06:15:00 10.3 C 7.47 g/m*3 10.3 C 3.2 km/h
Sensor: Nr:Datum:Temp:Abs-Feuchte:Windchill:Wind:
Aussen-T/F 1801 15-01-2020 06:20:00 10.3 C 7.47 g/m*3 9.72 C 6.4 km/h
1802 15-01-2020 06:25:00 10.3 C 7.28 g/m*3 9.04 C 9.7 km/h
1803 15-01-2020 06:30:00 10.4 C 7.32 g/m*3 9.16 C 9.7 km/h
1804 15-01-2020 06:35:00 10.5 C 7.27 g/m*3 9.28 C 9.7 km/h
1805 15-01-2020 06:40:00 10.3 C 7.18 g/m*3 9.72 C 6.4 km/h
1806 15-01-2020 06:45:00 10.2 C 7.23 g/m*3 10.2 C 0 km/h
1807 15-01-2020 06:50:00 9.9 C 7.1 g/m*3 9.9 C 0 km/h
1808 15-01-2020 06:55:00 9.6 C 7.15 g/m*3 9.6 C 4.8 km/h
1809 15-01-2020 07:00:00 9.3 C 7.01 g/m*3 9.3 C 0 km/h
1810 15-01-2020 07:05:00 9.1 C 7.01 g/m*3 9.1 C 0 km/h
1811 15-01-2020 07:10:00 8.9 C 7.01 g/m*3 8.9 C 0 km/h
1812 15-01-2020 07:15:00 8.7 C 6.92 g/m*3 8.7 C 0 km/h
1813 15-01-2020 07:20:00 8.4 C 6.87 g/m*3 8.4 C 3.2 km/h
1814 15-01-2020 07:25:00 8.3 C 6.91 g/m*3 8.3 C 1.6 km/h
1815 15-01-2020 07:30:00 8.1 C 6.82 g/m*3 8.1 C 3.2 km/h
1816 15-01-2020 07:35:00 8.1 C 6.91 g/m*3 8.1 C 1.6 km/h
1817 15-01-2020 07:40:00 8.1 C 6.91 g/m*3 8.1 C 4.8 km/h
1818 15-01-2020 07:45:00 8.1 C 6.91 g/m*3 8.1 C 0 km/h
1819 15-01-2020 07:50:00 7.9 C 6.82 g/m*3 7.9 C 0 km/h
1820 15-01-2020 07:55:00 7.7 C 6.73 g/m*3 7.7 C 0 km/h
1821 15-01-2020 08:00:00 7.4 C 6.68 g/m*3 7.4 C 0 km/h
1822 15-01-2020 08:05:00 7.2 C 6.59 g/m*3 7.2 C 0 km/h
1823 15-01-2020 08:10:00 7 C 6.59 g/m*3 7 C 0 km/h
1824 15-01-2020 08:15:00 6.9 C 6.62 g/m*3 6.9 C 0 km/h
1825 15-01-2020 08:20:00 6.9 C 6.7 g/m*3 6.9 C 0 km/h
Sensor: Nr:Datum:Temp:Abs-Feuchte:Windchill:Wind:
Aussen-T/F 1826 15-01-2020 08:25:00 6.9 C 6.7 g/m*3 6.9 C 0 km/h
1827 15-01-2020 08:30:00 6.8 C 6.65 g/m*3 6.8 C 0 km/h
1828 15-01-2020 08:35:00 6.8 C 6.65 g/m*3 6.8 C 0 km/h
1829 15-01-2020 08:40:00 6.8 C 6.65 g/m*3 6.8 C 0 km/h
1830 15-01-2020 08:45:00 6.9 C 6.77 g/m*3 6.9 C 1.6 km/h
1831 15-01-2020 08:50:00 7 C 6.74 g/m*3 7 C 0 km/h
1832 15-01-2020 08:55:00 7.2 C 6.83 g/m*3 6.13 C 6.4 km/h
1833 15-01-2020 09:00:00 7.2 C 6.83 g/m*3 7.2 C 1.6 km/h
1834 15-01-2020 09:05:00 7.3 C 6.87 g/m*3 7.3 C 1.6 km/h
1835 15-01-2020 09:10:00 7.3 C 6.79 g/m*3 7.3 C 3.2 km/h
1836 15-01-2020 09:15:00 7.4 C 6.84 g/m*3 7.4 C 1.6 km/h
1837 15-01-2020 09:20:00 7.5 C 6.88 g/m*3 7.5 C 1.6 km/h
1838 15-01-2020 09:25:00 7.6 C 6.85 g/m*3 7.6 C 1.6 km/h
1839 15-01-2020 09:30:00 7.6 C 6.85 g/m*3 7.6 C 0 km/h
1840 15-01-2020 09:35:00 7.6 C 6.93 g/m*3 7.6 C 0 km/h
1841 15-01-2020 09:40:00 7.6 C 6.93 g/m*3 7.6 C 1.6 km/h
1842 15-01-2020 09:45:00 7.5 C 6.88 g/m*3 7.5 C 0 km/h
1843 15-01-2020 09:50:00 7.6 C 7.01 g/m*3 7.6 C 4.8 km/h
1844 15-01-2020 09:55:00 7.7 C 7.05 g/m*3 7.7 C 3.2 km/h
1845 15-01-2020 10:00:00 7.7 C 7.05 g/m*3 7.7 C 0 km/h
1846 15-01-2020 10:05:00 7.8 C 7.02 g/m*3 7.8 C 1.6 km/h
1847 15-01-2020 10:10:00 7.9 C 7.06 g/m*3 7.9 C 1.6 km/h
1848 15-01-2020 10:15:00 7.9 C 7.06 g/m*3 7.9 C 1.6 km/h
1849 15-01-2020 10:20:00 8 C 7.11 g/m*3 8 C 3.2 km/h
1850 15-01-2020 10:25:00 8.1 C 7.16 g/m*3 8.1 C 0 km/h
Sensor: Nr:Datum:Temp:Abs-Feuchte:Windchill:Wind:
Aussen-T/F 1851 15-01-2020 10:30:00 8.1 C 7.16 g/m*3 8.1 C 3.2 km/h
1852 15-01-2020 10:35:00 8.1 C 7.07 g/m*3 8.1 C 0 km/h
1853 15-01-2020 10:40:00 8.1 C 7.16 g/m*3 8.1 C 3.2 km/h
1854 15-01-2020 10:45:00 8.1 C 7.16 g/m*3 8.1 C 4.8 km/h
1855 15-01-2020 10:50:00 8.1 C 7.16 g/m*3 8.1 C 1.6 km/h
1856 15-01-2020 10:55:00 8.3 C 7.25 g/m*3 8.3 C 0 km/h
1857 15-01-2020 11:00:00 8.4 C 7.13 g/m*3 8.4 C 3.2 km/h
1858 15-01-2020 11:05:00 8.7 C 7.26 g/m*3 8.7 C 1.6 km/h
1859 15-01-2020 11:10:00 9 C 7.41 g/m*3 9 C 4.8 km/h
1860 15-01-2020 11:15:00 9.3 C 7.28 g/m*3 8.16 C 8.1 km/h
1861 15-01-2020 11:20:00 9.6 C 7.42 g/m*3 9.6 C 0 km/h
1862 15-01-2020 11:25:00 9.8 C 7.33 g/m*3 9.8 C 3.2 km/h
1863 15-01-2020 11:30:00 10.2 C 7.33 g/m*3 9.6 C 6.4 km/h
1864 15-01-2020 11:35:00 10.6 C 7.42 g/m*3 10.6 C 4.8 km/h
1865 15-01-2020 11:40:00 10.8 C 7.61 g/m*3 10.8 C 0 km/h
1866 15-01-2020 11:45:00 10.9 C 7.46 g/m*3 10.9 C 3.2 km/h
1867 15-01-2020 11:50:00 11.1 C 7.45 g/m*3 11.1 C 6.4 km/h
1868 15-01-2020 11:55:00 11.2 C 7.5 g/m*3 11.2 C 0 km/h
1869 15-01-2020 12:00:00 11.2 C 7.5 g/m*3 11.2 C 0 km/h
1870 15-01-2020 12:05:00 11.3 C 7.55 g/m*3 11.3 C 4.8 km/h
1871 15-01-2020 12:10:00 11.4 C 7.49 g/m*3 11.4 C 1.6 km/h
1872 15-01-2020 12:15:00 11.5 C 7.33 g/m*3 11.5 C 8.1 km/h
1873 15-01-2020 12:20:00 11.7 C 7.53 g/m*3 11.7 C 4.8 km/h
1874 15-01-2020 12:25:00 11.8 C 7.47 g/m*3 11.8 C 3.2 km/h
1875 15-01-2020 12:30:00 11.8 C 7.37 g/m*3 11.8 C 3.2 km/h
Sensor: Nr:Datum:Temp:Abs-Feuchte:Windchill:Wind:
Aussen-T/F 1876 15-01-2020 12:35:00 11.9 C 7.31 g/m*3 11.9 C 8.1 km/h
1877 15-01-2020 12:40:00 12 C 7.35 g/m*3 12 C 4.8 km/h
1878 15-01-2020 12:45:00 12 C 7.46 g/m*3 12 C 6.4 km/h
1879 15-01-2020 12:50:00 12 C 7.35 g/m*3 12 C 8.1 km/h
1880 15-01-2020 12:55:00 12.1 C 7.4 g/m*3 12.1 C 6.4 km/h
1881 15-01-2020 13:00:00 12.1 C 7.61 g/m*3 12.1 C 6.4 km/h
1882 15-01-2020 13:05:00 12.2 C 7.45 g/m*3 12.2 C 8.1 km/h
1883 15-01-2020 13:10:00 12.3 C 7.6 g/m*3 12.3 C 4.8 km/h
1884 15-01-2020 13:15:00 12.4 C 7.54 g/m*3 12.4 C 1.6 km/h
1885 15-01-2020 13:20:00 12.5 C 7.59 g/m*3 12.5 C 8.1 km/h
1886 15-01-2020 13:25:00 12.7 C 7.46 g/m*3 12.7 C 9.7 km/h
1887 15-01-2020 13:30:00 12.8 C 7.28 g/m*3 12.8 C 14.5 km/h
1888 15-01-2020 13:35:00 12.9 C 7.44 g/m*3 12.9 C 6.4 km/h
1889 15-01-2020 13:40:00 12.8 C 7.39 g/m*3 12.8 C 8.1 km/h
1890 15-01-2020 13:45:00 12.8 C 7.5 g/m*3 12.8 C 8.1 km/h
1891 15-01-2020 13:50:00 12.7 C 7.46 g/m*3 12.7 C 6.4 km/h
1892 15-01-2020 13:55:00 12.7 C 7.46 g/m*3 12.7 C 4.8 km/h
1893 15-01-2020 14:00:00 12.6 C 7.63 g/m*3 12.6 C 1.6 km/h
1894 15-01-2020 14:05:00 12.4 C 7.54 g/m*3 12.4 C 3.2 km/h
1895 15-01-2020 14:10:00 12.3 C 7.49 g/m*3 12.3 C 4.8 km/h
1896 15-01-2020 14:15:00 12.1 C 7.4 g/m*3 12.1 C 1.6 km/h
1897 15-01-2020 14:20:00 12.1 C 7.51 g/m*3 12.1 C 9.7 km/h
1898 15-01-2020 14:25:00 12.1 C 7.51 g/m*3 12.1 C 4.8 km/h
1899 15-01-2020 14:30:00 12.2 C 7.55 g/m*3 12.2 C 3.2 km/h
1900 15-01-2020 14:35:00 12.2 C 7.55 g/m*3 12.2 C 9.7 km/h
Sensor: Nr:Datum:Temp:Abs-Feuchte:Windchill:Wind:
Aussen-T/F 1901 15-01-2020 14:40:00 12.2 C 7.55 g/m*3 12.2 C 4.8 km/h
1902 15-01-2020 14:45:00 12.3 C 7.6 g/m*3 12.3 C 6.4 km/h
1903 15-01-2020 14:50:00 12.5 C 7.7 g/m*3 12.5 C 6.4 km/h
1904 15-01-2020 14:55:00 12.6 C 7.85 g/m*3 12.6 C 11.3 km/h
1905 15-01-2020 15:00:00 12.9 C 7.55 g/m*3 12.9 C 16.1 km/h
1906 15-01-2020 15:05:00 13.1 C 7.53 g/m*3 13.1 C 9.7 km/h
1907 15-01-2020 15:10:00 13.1 C 7.53 g/m*3 13.1 C 4.8 km/h
1908 15-01-2020 15:15:00 13.2 C 7.46 g/m*3 13.2 C 19.3 km/h
1909 15-01-2020 15:20:00 13.3 C 7.51 g/m*3 13.3 C 19.3 km/h
1910 15-01-2020 15:25:00 13.3 C 7.51 g/m*3 13.3 C 11.3 km/h
1911 15-01-2020 15:30:00 13.3 C 7.51 g/m*3 13.3 C 22.5 km/h
1912 15-01-2020 15:35:00 13.3 C 7.51 g/m*3 13.3 C 16.1 km/h
1913 15-01-2020 15:40:00 13.3 C 7.39 g/m*3 13.3 C 11.3 km/h
1914 15-01-2020 15:45:00 13.3 C 7.51 g/m*3 13.3 C 6.4 km/h
1915 15-01-2020 15:50:00 13.2 C 7.46 g/m*3 13.2 C 9.7 km/h
1916 15-01-2020 15:55:00 13.2 C 7.46 g/m*3 13.2 C 16.1 km/h
1917 15-01-2020 16:00:00 13.3 C 7.51 g/m*3 13.3 C 3.2 km/h
1918 15-01-2020 16:05:00 13.3 C 7.51 g/m*3 13.3 C 3.2 km/h
1919 15-01-2020 16:10:00 13.3 C 7.63 g/m*3 13.3 C 8.1 km/h
1920 15-01-2020 16:15:00 13.2 C 7.58 g/m*3 13.2 C 14.5 km/h
1921 15-01-2020 16:20:00 13.2 C 7.69 g/m*3 13.2 C 4.8 km/h
1922 15-01-2020 16:25:00 13.1 C 7.65 g/m*3 13.1 C 4.8 km/h
1923 15-01-2020 16:30:00 13.1 C 7.53 g/m*3 13.1 C 9.7 km/h
1924 15-01-2020 16:35:00 13.1 C 7.65 g/m*3 13.1 C 3.2 km/h
1925 15-01-2020 16:40:00 13 C 7.48 g/m*3 13 C 9.7 km/h
Sensor: Nr:Datum:Temp:Abs-Feuchte:Windchill:Wind:
Aussen-T/F 1926 15-01-2020 16:45:00 12.9 C 7.55 g/m*3 12.9 C 3.2 km/h
1927 15-01-2020 16:50:00 12.8 C 7.5 g/m*3 12.8 C 3.2 km/h
1928 15-01-2020 16:55:00 12.8 C 7.73 g/m*3 12.8 C 0 km/h
1929 15-01-2020 17:00:00 12.6 C 7.63 g/m*3 12.6 C 1.6 km/h
1930 15-01-2020 17:05:00 12.6 C 7.63 g/m*3 12.6 C 4.8 km/h
1931 15-01-2020 17:10:00 12.5 C 7.59 g/m*3 12.5 C 4.8 km/h
1932 15-01-2020 17:15:00 12.4 C 7.65 g/m*3 12.4 C 8.1 km/h
1933 15-01-2020 17:20:00 12.4 C 7.76 g/m*3 12.4 C 4.8 km/h
1934 15-01-2020 17:25:00 12.3 C 7.6 g/m*3 12.3 C 4.8 km/h
1935 15-01-2020 17:30:00 12.4 C 7.65 g/m*3 12.4 C 6.4 km/h
1936 15-01-2020 17:35:00 12.4 C 7.65 g/m*3 12.4 C 3.2 km/h
1937 15-01-2020 17:40:00 12.4 C 7.76 g/m*3 12.4 C 0 km/h
1938 15-01-2020 17:45:00 12.3 C 7.71 g/m*3 12.3 C 0 km/h
1939 15-01-2020 17:50:00 12.2 C 7.77 g/m*3 12.2 C 0 km/h
1940 15-01-2020 17:55:00 12.1 C 7.83 g/m*3 12.1 C 0 km/h
1941 15-01-2020 18:00:00 11.9 C 7.73 g/m*3 11.9 C 0 km/h
1942 15-01-2020 18:05:00 11.8 C 7.68 g/m*3 11.8 C 0 km/h
1943 15-01-2020 18:10:00 11.8 C 7.58 g/m*3 11.8 C 0 km/h
1944 15-01-2020 18:15:00 11.9 C 7.73 g/m*3 11.9 C 0 km/h
1945 15-01-2020 18:20:00 11.8 C 7.68 g/m*3 11.8 C 0 km/h
1946 15-01-2020 18:25:00 11.8 C 7.58 g/m*3 11.8 C 4.8 km/h
1947 15-01-2020 18:30:00 11.9 C 7.73 g/m*3 11.9 C 6.4 km/h
1948 15-01-2020 18:35:00 12 C 7.67 g/m*3 12 C 6.4 km/h
1949 15-01-2020 18:40:00 12.1 C 7.72 g/m*3 12.1 C 1.6 km/h
1950 15-01-2020 18:45:00 12.2 C 7.66 g/m*3 12.2 C 4.8 km/h
Sensor: Nr:Datum:Temp:Abs-Feuchte:Windchill:Wind:
Aussen-T/F 1951 15-01-2020 18:50:00 12.3 C 7.6 g/m*3 12.3 C 8.1 km/h
1952 15-01-2020 18:55:00 12.5 C 7.7 g/m*3 12.5 C 4.8 km/h
1953 15-01-2020 19:00:00 12.6 C 7.85 g/m*3 12.6 C 4.8 km/h
1954 15-01-2020 19:05:00 12.6 C 7.74 g/m*3 12.6 C 3.2 km/h
1955 15-01-2020 19:10:00 12.6 C 7.63 g/m*3 12.6 C 4.8 km/h
1956 15-01-2020 19:15:00 12.7 C 7.79 g/m*3 12.7 C 3.2 km/h
1957 15-01-2020 19:20:00 12.7 C 7.68 g/m*3 12.7 C 4.8 km/h
1958 15-01-2020 19:25:00 12.6 C 7.85 g/m*3 12.6 C 1.6 km/h
1959 15-01-2020 19:30:00 12.5 C 7.7 g/m*3 12.5 C 4.8 km/h
1960 15-01-2020 19:35:00 12.6 C 7.85 g/m*3 12.6 C 14.5 km/h
1961 15-01-2020 19:40:00 12.7 C 7.79 g/m*3 12.7 C 11.3 km/h
1962 15-01-2020 19:45:00 12.8 C 7.73 g/m*3 12.8 C 8.1 km/h
1963 15-01-2020 19:50:00 12.9 C 7.78 g/m*3 12.9 C 16.1 km/h
1964 15-01-2020 19:55:00 12.9 C 7.78 g/m*3 12.9 C 11.3 km/h
1965 15-01-2020 20:00:00 13 C 7.83 g/m*3 13 C 11.3 km/h
1966 15-01-2020 20:05:00 13 C 7.94 g/m*3 13 C 16.1 km/h
1967 15-01-2020 20:10:00 13.1 C 7.99 g/m*3 13.1 C 19.3 km/h
1968 15-01-2020 20:15:00 13 C 7.94 g/m*3 13 C 16.1 km/h
1969 15-01-2020 20:20:00 13.1 C 7.99 g/m*3 13.1 C 12.9 km/h
1970 15-01-2020 20:25:00 12.9 C 8 g/m*3 12.9 C 11.3 km/h
1971 15-01-2020 20:30:00 12.9 C 8 g/m*3 12.9 C 9.7 km/h
1972 15-01-2020 20:35:00 12.8 C 7.95 g/m*3 12.8 C 11.3 km/h
1973 15-01-2020 20:40:00 12.8 C 7.95 g/m*3 12.8 C 17.7 km/h
1974 15-01-2020 20:45:00 12.8 C 7.95 g/m*3 12.8 C 11.3 km/h
1975 15-01-2020 20:50:00 12.8 C 7.95 g/m*3 12.8 C 9.7 km/h
Sensor: Nr:Datum:Temp:Abs-Feuchte:Windchill:Wind:
Aussen-T/F 1976 15-01-2020 20:55:00 12.8 C 7.95 g/m*3 12.8 C 11.3 km/h
1977 15-01-2020 21:00:00 12.8 C 7.95 g/m*3 12.8 C 9.7 km/h
1978 15-01-2020 21:05:00 12.8 C 7.95 g/m*3 12.8 C 14.5 km/h
1979 15-01-2020 21:10:00 12.8 C 7.95 g/m*3 12.8 C 14.5 km/h
1980 15-01-2020 21:15:00 12.9 C 8 g/m*3 12.9 C 19.3 km/h
1981 15-01-2020 21:20:00 12.8 C 8.06 g/m*3 12.8 C 16.1 km/h
1982 15-01-2020 21:25:00 12.8 C 8.06 g/m*3 12.8 C 11.3 km/h
1983 15-01-2020 21:30:00 12.8 C 8.06 g/m*3 12.8 C 14.5 km/h
1984 15-01-2020 21:35:00 12.7 C 8.01 g/m*3 12.7 C 14.5 km/h
1985 15-01-2020 21:40:00 12.7 C 8.35 g/m*3 12.7 C 12.9 km/h
1986 15-01-2020 21:45:00 12.6 C 8.63 g/m*3 12.6 C 11.3 km/h
1987 15-01-2020 21:50:00 12.3 C 8.69 g/m*3 12.3 C 6.4 km/h
1988 15-01-2020 21:55:00 12 C 8.74 g/m*3 12 C 4.8 km/h
1989 15-01-2020 22:00:00 11.7 C 8.68 g/m*3 11.7 C 4.8 km/h
1990 15-01-2020 22:05:00 11.4 C 8.62 g/m*3 11.4 C 4.8 km/h
1991 15-01-2020 22:10:00 11.3 C 8.67 g/m*3 11.3 C 3.2 km/h
1992 15-01-2020 22:15:00 11.1 C 8.76 g/m*3 11.1 C 4.8 km/h
1993 15-01-2020 22:20:00 10.9 C 8.65 g/m*3 10.9 C 1.6 km/h
1994 15-01-2020 22:25:00 10.8 C 8.7 g/m*3 10.8 C 3.2 km/h
1995 15-01-2020 22:30:00 10.7 C 8.74 g/m*3 10.7 C 1.6 km/h
1996 15-01-2020 22:35:00 10.6 C 8.69 g/m*3 10.6 C 1.6 km/h
1997 15-01-2020 22:40:00 10.4 C 8.67 g/m*3 10.4 C 1.6 km/h
1998 15-01-2020 22:45:00 10.3 C 8.71 g/m*3 10.3 C 4.8 km/h
1999 15-01-2020 22:50:00 10.3 C 8.71 g/m*3 10.3 C 1.6 km/h
2000 15-01-2020 22:55:00 10.2 C 8.66 g/m*3 10.2 C 0 km/h
Sensor: Nr:Datum:Temp:Abs-Feuchte:Windchill:Wind:
Aussen-T/F 2001 15-01-2020 23:00:00 10.1 C 8.61 g/m*3 10.1 C 3.2 km/h
2002 15-01-2020 23:05:00 10 C 8.55 g/m*3 10 C 4.8 km/h
2003 15-01-2020 23:10:00 10 C 8.64 g/m*3 10 C 3.2 km/h
2004 15-01-2020 23:15:00 9.9 C 8.59 g/m*3 9.9 C 4.8 km/h
2005 15-01-2020 23:20:00 9.8 C 8.54 g/m*3 9.8 C 4.8 km/h
2006 15-01-2020 23:25:00 9.8 C 8.54 g/m*3 9.8 C 4.8 km/h
2007 15-01-2020 23:30:00 9.8 C 8.54 g/m*3 9.8 C 3.2 km/h
2008 15-01-2020 23:35:00 9.7 C 8.39 g/m*3 9.7 C 3.2 km/h
2009 15-01-2020 23:40:00 9.6 C 8.34 g/m*3 9.6 C 4.8 km/h
2010 15-01-2020 23:45:00 9.4 C 8.32 g/m*3 9.4 C 3.2 km/h
2011 15-01-2020 23:50:00 9.3 C 8.27 g/m*3 8.56 C 6.4 km/h
2012 15-01-2020 23:55:00 9.2 C 8.22 g/m*3 9.2 C 4.8 km/h
2013 16-01-2020 00:00:00 9.2 C 8.22 g/m*3 8.05 C 8.1 km/h
2014 16-01-2020 00:05:00 9.3 C 8.27 g/m*3 7.58 C 11.3 km/h
2015 16-01-2020 00:10:00 9.2 C 8.13 g/m*3 9.2 C 3.2 km/h
2016 16-01-2020 00:15:00 9.1 C 8.07 g/m*3 9.1 C 1.6 km/h
2017 16-01-2020 00:20:00 9.1 C 8.16 g/m*3 9.1 C 3.2 km/h
2018 16-01-2020 00:25:00 9.3 C 8.27 g/m*3 8.16 C 8.1 km/h
2019 16-01-2020 00:30:00 9.3 C 8.27 g/m*3 9.3 C 0 km/h
2020 16-01-2020 00:35:00 9.3 C 8.27 g/m*3 9.3 C 0 km/h
2021 16-01-2020 00:40:00 9.3 C 8.27 g/m*3 9.3 C 0 km/h
2022 16-01-2020 00:45:00 9.3 C 8.27 g/m*3 9.3 C 0 km/h
2023 16-01-2020 00:50:00 9.3 C 8.27 g/m*3 9.3 C 0 km/h
2024 16-01-2020 00:55:00 9.4 C 8.32 g/m*3 9.4 C 0 km/h
2025 16-01-2020 01:00:00 9.4 C 8.41 g/m*3 9.4 C 0 km/h
Sensor: Nr:Datum:Temp:Abs-Feuchte:Windchill:Wind:
Aussen-T/F 2026 16-01-2020 01:05:00 9.4 C 8.41 g/m*3 9.4 C 1.6 km/h
2027 16-01-2020 01:10:00 9.4 C 8.41 g/m*3 9.4 C 0 km/h
2028 16-01-2020 01:15:00 9.4 C 8.41 g/m*3 9.4 C 4.8 km/h
2029 16-01-2020 01:20:00 9.5 C 8.47 g/m*3 9.5 C 3.2 km/h
2030 16-01-2020 01:25:00 9.5 C 8.47 g/m*3 9.5 C 1.6 km/h
2031 16-01-2020 01:30:00 9.5 C 8.47 g/m*3 9.5 C 1.6 km/h
2032 16-01-2020 01:35:00 9.6 C 8.52 g/m*3 9.6 C 1.6 km/h
2033 16-01-2020 01:40:00 9.6 C 8.52 g/m*3 9.6 C 0 km/h
2034 16-01-2020 01:45:00 9.6 C 8.52 g/m*3 9.6 C 0 km/h
2035 16-01-2020 01:50:00 9.6 C 8.52 g/m*3 9.6 C 0 km/h
2036 16-01-2020 01:55:00 9.5 C 8.47 g/m*3 9.5 C 0 km/h
2037 16-01-2020 02:00:00 9.4 C 8.41 g/m*3 9.4 C 0 km/h
2038 16-01-2020 02:05:00 9.4 C 8.41 g/m*3 9.4 C 0 km/h
2039 16-01-2020 02:10:00 9.4 C 8.41 g/m*3 9.4 C 0 km/h
2040 16-01-2020 02:15:00 9.4 C 8.41 g/m*3 9.4 C 0 km/h
2041 16-01-2020 02:20:00 9.3 C 8.36 g/m*3 9.3 C 1.6 km/h
2042 16-01-2020 02:25:00 9.3 C 8.36 g/m*3 9.3 C 0 km/h
2043 16-01-2020 02:30:00 9.3 C 8.36 g/m*3 9.3 C 0 km/h
2044 16-01-2020 02:35:00 9.3 C 8.36 g/m*3 9.3 C 0 km/h
2045 16-01-2020 02:40:00 9.3 C 8.45 g/m*3 9.3 C 0 km/h
2046 16-01-2020 02:45:00 9.4 C 8.5 g/m*3 9.4 C 0 km/h
2047 16-01-2020 02:50:00 9.4 C 8.5 g/m*3 9.4 C 1.6 km/h
2048 16-01-2020 02:55:00 9.4 C 8.5 g/m*3 9.4 C 0 km/h
2049 16-01-2020 03:00:00 9.4 C 8.5 g/m*3 9.4 C 0 km/h
2050 16-01-2020 03:05:00 9.4 C 8.5 g/m*3 9.4 C 0 km/h
Sensor: Nr:Datum:Temp:Abs-Feuchte:Windchill:Wind:
Aussen-T/F 2051 16-01-2020 03:10:00 9.4 C 8.5 g/m*3 9.4 C 0 km/h
2052 16-01-2020 03:15:00 9.4 C 8.5 g/m*3 9.4 C 0 km/h
2053 16-01-2020 03:20:00 9.4 C 8.59 g/m*3 9.4 C 3.2 km/h
2054 16-01-2020 03:25:00 9.4 C 8.59 g/m*3 9.4 C 0 km/h
2055 16-01-2020 03:30:00 9.4 C 8.59 g/m*3 9.4 C 0 km/h
2056 16-01-2020 03:35:00 9.4 C 8.59 g/m*3 9.4 C 0 km/h
2057 16-01-2020 03:40:00 9.4 C 8.59 g/m*3 9.4 C 0 km/h
2058 16-01-2020 03:45:00 9.4 C 8.59 g/m*3 9.4 C 3.2 km/h
2059 16-01-2020 03:50:00 9.4 C 8.59 g/m*3 9.4 C 3.2 km/h
2060 16-01-2020 03:55:00 9.4 C 8.59 g/m*3 9.4 C 0 km/h
2061 16-01-2020 04:00:00 9.4 C 8.59 g/m*3 9.4 C 0 km/h
2062 16-01-2020 04:05:00 9.4 C 8.59 g/m*3 9.4 C 0 km/h
2063 16-01-2020 04:10:00 9.3 C 8.54 g/m*3 9.3 C 0 km/h
2064 16-01-2020 04:15:00 9.3 C 8.54 g/m*3 9.3 C 0 km/h
2065 16-01-2020 04:20:00 9.3 C 8.54 g/m*3 9.3 C 0 km/h
2066 16-01-2020 04:25:00 9.3 C 8.54 g/m*3 9.3 C 0 km/h
2067 16-01-2020 04:30:00 9.3 C 8.54 g/m*3 9.3 C 0 km/h
2068 16-01-2020 04:35:00 9.3 C 8.54 g/m*3 9.3 C 0 km/h
2069 16-01-2020 04:40:00 9.3 C 8.54 g/m*3 9.3 C 0 km/h
2070 16-01-2020 04:45:00 9.2 C 8.48 g/m*3 9.2 C 0 km/h
2071 16-01-2020 04:50:00 9.1 C 8.43 g/m*3 9.1 C 0 km/h
2072 16-01-2020 04:55:00 9.1 C 8.43 g/m*3 9.1 C 0 km/h
2073 16-01-2020 05:00:00 9.1 C 8.43 g/m*3 9.1 C 0 km/h
2074 16-01-2020 05:05:00 9.1 C 8.52 g/m*3 9.1 C 3.2 km/h
2075 16-01-2020 05:10:00 9.2 C 8.57 g/m*3 9.2 C 0 km/h
Sensor: Nr:Datum:Temp:Abs-Feuchte:Windchill:Wind:
Aussen-T/F 2076 16-01-2020 05:15:00 9.1 C 8.52 g/m*3 9.1 C 0 km/h
2077 16-01-2020 05:20:00 9.1 C 8.43 g/m*3 9.1 C 0 km/h
2078 16-01-2020 05:25:00 9 C 8.38 g/m*3 9 C 0 km/h
2079 16-01-2020 05:30:00 8.9 C 8.32 g/m*3 8.9 C 0 km/h
2080 16-01-2020 05:35:00 8.8 C 8.27 g/m*3 8.8 C 0 km/h
2081 16-01-2020 05:40:00 8.6 C 8.16 g/m*3 8.6 C 0 km/h
2082 16-01-2020 05:45:00 8.4 C 8.06 g/m*3 8.4 C 0 km/h
2083 16-01-2020 05:50:00 8.3 C 8.01 g/m*3 8.3 C 0 km/h
2084 16-01-2020 05:55:00 8.4 C 8.14 g/m*3 8.4 C 0 km/h
2085 16-01-2020 06:00:00 8.4 C 8.14 g/m*3 8.4 C 0 km/h
2086 16-01-2020 06:05:00 8.6 C 8.25 g/m*3 8.6 C 0 km/h
2087 16-01-2020 06:10:00 8.6 C 8.25 g/m*3 8.6 C 0 km/h
2088 16-01-2020 06:15:00 8.6 C 8.25 g/m*3 8.6 C 0 km/h
2089 16-01-2020 06:20:00 8.4 C 8.14 g/m*3 8.4 C 1.6 km/h
2090 16-01-2020 06:25:00 8.3 C 8.09 g/m*3 8.3 C 0 km/h
2091 16-01-2020 06:30:00 8.1 C 7.9 g/m*3 8.1 C 0 km/h
2092 16-01-2020 06:35:00 7.9 C 7.8 g/m*3 7.9 C 0 km/h
2093 16-01-2020 06:40:00 7.9 C 7.8 g/m*3 7.9 C 0 km/h
2094 16-01-2020 06:45:00 7.9 C 7.89 g/m*3 7.9 C 0 km/h
2095 16-01-2020 06:50:00 7.9 C 7.89 g/m*3 7.9 C 0 km/h
2096 16-01-2020 06:55:00 7.9 C 7.89 g/m*3 7.9 C 0 km/h
2097 16-01-2020 07:00:00 7.8 C 7.83 g/m*3 7.8 C 0 km/h
2098 16-01-2020 07:05:00 7.6 C 7.65 g/m*3 7.6 C 0 km/h
2099 16-01-2020 07:10:00 7.5 C 7.6 g/m*3 7.5 C 0 km/h
2100 16-01-2020 07:15:00 7.3 C 7.51 g/m*3 7.3 C 0 km/h
Sensor: Nr:Datum:Temp:Abs-Feuchte:Windchill:Wind:
Aussen-T/F 2101 16-01-2020 07:20:00 7.1 C 7.41 g/m*3 7.1 C 0 km/h
2102 16-01-2020 07:25:00 7 C 7.36 g/m*3 7 C 0 km/h
2103 16-01-2020 07:30:00 7.1 C 7.49 g/m*3 7.1 C 0 km/h
2104 16-01-2020 07:35:00 7.2 C 7.54 g/m*3 7.2 C 0 km/h
2105 16-01-2020 07:40:00 7.3 C 7.58 g/m*3 7.3 C 0 km/h
2106 16-01-2020 07:45:00 7.4 C 7.63 g/m*3 7.4 C 0 km/h
2107 16-01-2020 07:50:00 7.6 C 7.73 g/m*3 7.6 C 0 km/h
2108 16-01-2020 07:55:00 7.6 C 7.73 g/m*3 7.6 C 0 km/h
2109 16-01-2020 08:00:00 7.6 C 7.73 g/m*3 7.6 C 0 km/h
2110 16-01-2020 08:05:00 7.6 C 7.73 g/m*3 7.6 C 0 km/h
2111 16-01-2020 08:10:00 7.4 C 7.63 g/m*3 7.4 C 0 km/h
2112 16-01-2020 08:15:00 7.3 C 7.58 g/m*3 7.3 C 0 km/h
2113 16-01-2020 08:20:00 7.2 C 7.54 g/m*3 7.2 C 0 km/h
2114 16-01-2020 08:25:00 7.1 C 7.49 g/m*3 7.1 C 0 km/h
2115 16-01-2020 08:30:00 6.9 C 7.39 g/m*3 6.9 C 0 km/h
2116 16-01-2020 08:35:00 6.9 C 7.39 g/m*3 6.9 C 0 km/h
2117 16-01-2020 08:40:00 6.8 C 7.34 g/m*3 6.8 C 0 km/h
2118 16-01-2020 08:45:00 6.6 C 7.25 g/m*3 6.6 C 0 km/h
2119 16-01-2020 08:50:00 6.4 C 7.15 g/m*3 6.4 C 0 km/h
2120 16-01-2020 08:55:00 6.3 C 7.11 g/m*3 6.3 C 0 km/h
2121 16-01-2020 09:00:00 6.2 C 7.06 g/m*3 6.2 C 0 km/h
2122 16-01-2020 09:05:00 6.2 C 7.06 g/m*3 6.2 C 0 km/h
2123 16-01-2020 09:10:00 6.1 C 7.01 g/m*3 6.1 C 0 km/h
2124 16-01-2020 09:15:00 6.1 C 7.01 g/m*3 6.1 C 0 km/h
2125 16-01-2020 09:20:00 6.1 C 7.01 g/m*3 6.1 C 0 km/h
Sensor: Nr:Datum:Temp:Abs-Feuchte:Windchill:Wind:
Aussen-T/F 2126 16-01-2020 09:25:00 6.2 C 7.06 g/m*3 6.2 C 0 km/h
2127 16-01-2020 09:30:00 6.3 C 7.11 g/m*3 6.3 C 0 km/h
2128 16-01-2020 09:35:00 6.3 C 7.11 g/m*3 6.3 C 0 km/h
2129 16-01-2020 09:40:00 6.2 C 7.06 g/m*3 6.2 C 0 km/h
2130 16-01-2020 09:45:00 6.3 C 7.11 g/m*3 6.3 C 0 km/h
2131 16-01-2020 09:50:00 6.4 C 7.23 g/m*3 6.4 C 0 km/h
2132 16-01-2020 09:55:00 6.5 C 7.27 g/m*3 6.5 C 0 km/h
2133 16-01-2020 10:00:00 6.7 C 7.37 g/m*3 6.7 C 0 km/h
2134 16-01-2020 10:05:00 6.8 C 7.42 g/m*3 6.8 C 0 km/h
2135 16-01-2020 10:10:00 6.9 C 7.47 g/m*3 6.9 C 0 km/h
2136 16-01-2020 10:15:00 6.9 C 7.47 g/m*3 6.9 C 0 km/h
2137 16-01-2020 10:20:00 7.1 C 7.57 g/m*3 7.1 C 0 km/h
2138 16-01-2020 10:25:00 7.1 C 7.57 g/m*3 7.1 C 0 km/h
2139 16-01-2020 10:30:00 7.2 C 7.61 g/m*3 7.2 C 0 km/h
2140 16-01-2020 10:35:00 7.3 C 7.66 g/m*3 7.3 C 0 km/h
2141 16-01-2020 10:40:00 7.3 C 7.66 g/m*3 7.3 C 0 km/h
2142 16-01-2020 10:45:00 7.3 C 7.66 g/m*3 7.3 C 0 km/h
2143 16-01-2020 10:50:00 7.3 C 7.66 g/m*3 7.3 C 0 km/h
2144 16-01-2020 10:55:00 7.3 C 7.66 g/m*3 7.3 C 0 km/h
2145 16-01-2020 11:00:00 7.3 C 7.66 g/m*3 7.3 C 0 km/h
2146 16-01-2020 11:05:00 7.4 C 7.71 g/m*3 7.4 C 0 km/h
2147 16-01-2020 11:10:00 7.4 C 7.71 g/m*3 7.4 C 0 km/h
2148 16-01-2020 11:15:00 7.5 C 7.76 g/m*3 7.5 C 0 km/h
2149 16-01-2020 11:20:00 7.5 C 7.76 g/m*3 7.5 C 0 km/h
2150 16-01-2020 11:25:00 7.5 C 7.76 g/m*3 7.5 C 0 km/h
Sensor: Nr:Datum:Temp:Abs-Feuchte:Windchill:Wind:
Aussen-T/F 2151 16-01-2020 11:30:00 7.5 C 7.76 g/m*3 7.5 C 0 km/h
2152 16-01-2020 11:35:00 7.5 C 7.76 g/m*3 7.5 C 0 km/h
2153 16-01-2020 11:40:00 7.6 C 7.81 g/m*3 7.6 C 0 km/h
2154 16-01-2020 11:45:00 7.5 C 7.76 g/m*3 7.5 C 0 km/h
2155 16-01-2020 11:50:00 7.5 C 7.76 g/m*3 7.5 C 0 km/h
2156 16-01-2020 11:55:00 7.5 C 7.76 g/m*3 7.5 C 0 km/h
2157 16-01-2020 12:00:00 7.5 C 7.76 g/m*3 7.5 C 0 km/h
2158 16-01-2020 12:05:00 7.4 C 7.71 g/m*3 7.4 C 0 km/h
2159 16-01-2020 12:10:00 7.4 C 7.71 g/m*3 7.4 C 1.6 km/h
2160 16-01-2020 12:15:00 7.3 C 7.66 g/m*3 7.3 C 3.2 km/h
2161 16-01-2020 12:20:00 7.3 C 7.66 g/m*3 7.3 C 0 km/h
2162 16-01-2020 12:25:00 7.2 C 7.61 g/m*3 7.2 C 0 km/h
2163 16-01-2020 12:30:00 7.1 C 7.57 g/m*3 7.1 C 1.6 km/h
2164 16-01-2020 12:35:00 7.1 C 7.57 g/m*3 7.1 C 0 km/h
2165 16-01-2020 12:40:00 7.1 C 7.57 g/m*3 7.1 C 1.6 km/h
2166 16-01-2020 12:45:00 7.2 C 7.61 g/m*3 7.2 C 3.2 km/h
2167 16-01-2020 12:50:00 7.3 C 7.66 g/m*3 7.3 C 1.6 km/h
2168 16-01-2020 12:55:00 7.5 C 7.76 g/m*3 7.5 C 1.6 km/h
2169 16-01-2020 13:00:00 7.7 C 7.87 g/m*3 7.7 C 0 km/h
2170 16-01-2020 13:05:00 7.9 C 8.05 g/m*3 7.9 C 1.6 km/h
2171 16-01-2020 13:10:00 8.1 C 8.15 g/m*3 7.17 C 6.4 km/h
2172 16-01-2020 13:15:00 8.2 C 8.12 g/m*3 8.2 C 3.2 km/h
2173 16-01-2020 13:20:00 8.3 C 8.26 g/m*3 8.3 C 4.8 km/h
2174 16-01-2020 13:25:00 8.3 C 8.26 g/m*3 8.3 C 0 km/h
2175 16-01-2020 13:30:00 8.3 C 8.26 g/m*3 8.3 C 3.2 km/h
Sensor: Nr:Datum:Temp:Abs-Feuchte:Windchill:Wind:
Aussen-T/F 2176 16-01-2020 13:35:00 8.3 C 8.18 g/m*3 6.99 C 8.1 km/h
2177 16-01-2020 13:40:00 8.3 C 8.18 g/m*3 8.3 C 1.6 km/h
2178 16-01-2020 13:45:00 8.3 C 8.18 g/m*3 8.3 C 0 km/h
2179 16-01-2020 13:50:00 8.3 C 8.18 g/m*3 7.41 C 6.4 km/h
2180 16-01-2020 13:55:00 8.3 C 8.18 g/m*3 8.3 C 4.8 km/h
2181 16-01-2020 14:00:00 8.3 C 8.18 g/m*3 8.3 C 3.2 km/h
2182 16-01-2020 14:05:00 8.4 C 8.23 g/m*3 8.4 C 3.2 km/h
2183 16-01-2020 14:10:00 8.4 C 8.23 g/m*3 8.4 C 1.6 km/h
2184 16-01-2020 14:15:00 8.5 C 8.28 g/m*3 8.5 C 3.2 km/h
2185 16-01-2020 14:20:00 8.6 C 8.34 g/m*3 8.6 C 1.6 km/h
2186 16-01-2020 14:25:00 8.7 C 8.39 g/m*3 8.7 C 4.8 km/h
2187 16-01-2020 14:30:00 8.8 C 8.44 g/m*3 8.8 C 0 km/h
2188 16-01-2020 14:35:00 9 C 8.55 g/m*3 9 C 0 km/h
2189 16-01-2020 14:40:00 9.1 C 8.61 g/m*3 9.1 C 0 km/h
2190 16-01-2020 14:45:00 9.1 C 8.61 g/m*3 9.1 C 3.2 km/h
2191 16-01-2020 14:50:00 9 C 8.55 g/m*3 9 C 1.6 km/h
2192 16-01-2020 14:55:00 9 C 8.55 g/m*3 9 C 1.6 km/h
2193 16-01-2020 15:00:00 8.9 C 8.5 g/m*3 8.9 C 1.6 km/h
2194 16-01-2020 15:05:00 8.9 C 8.41 g/m*3 8.9 C 4.8 km/h
2195 16-01-2020 15:10:00 8.9 C 8.41 g/m*3 8.9 C 1.6 km/h
2196 16-01-2020 15:15:00 8.8 C 8.36 g/m*3 8.8 C 0 km/h
2197 16-01-2020 15:20:00 8.8 C 8.36 g/m*3 8.8 C 1.6 km/h
2198 16-01-2020 15:25:00 8.8 C 8.36 g/m*3 8.8 C 4.8 km/h
2199 16-01-2020 15:30:00 8.8 C 8.27 g/m*3 8.8 C 3.2 km/h
2200 16-01-2020 15:35:00 8.8 C 8.27 g/m*3 8.8 C 1.6 km/h
Sensor: Nr:Datum:Temp:Abs-Feuchte:Windchill:Wind:
Aussen-T/F 2201 16-01-2020 15:40:00 8.8 C 8.27 g/m*3 8.8 C 4.8 km/h
2202 16-01-2020 15:45:00 8.8 C 8.27 g/m*3 8.8 C 4.8 km/h
2203 16-01-2020 15:50:00 8.7 C 8.22 g/m*3 8.7 C 3.2 km/h
2204 16-01-2020 15:55:00 8.7 C 8.22 g/m*3 8.7 C 1.6 km/h
2205 16-01-2020 16:00:00 8.7 C 8.22 g/m*3 8.7 C 1.6 km/h
2206 16-01-2020 16:05:00 8.7 C 8.22 g/m*3 8.7 C 3.2 km/h
2207 16-01-2020 16:10:00 8.6 C 8.08 g/m*3 8.6 C 1.6 km/h
2208 16-01-2020 16:15:00 8.4 C 7.97 g/m*3 8.4 C 1.6 km/h
2209 16-01-2020 16:20:00 8.4 C 7.97 g/m*3 8.4 C 0 km/h
2210 16-01-2020 16:25:00 8.4 C 8.06 g/m*3 8.4 C 0 km/h
2211 16-01-2020 16:30:00 8.3 C 7.92 g/m*3 8.3 C 0 km/h
2212 16-01-2020 16:35:00 8.3 C 8.01 g/m*3 8.3 C 0 km/h
2213 16-01-2020 16:40:00 8.2 C 7.96 g/m*3 8.2 C 0 km/h
2214 16-01-2020 16:45:00 8.2 C 7.96 g/m*3 8.2 C 0 km/h
2215 16-01-2020 16:50:00 8.2 C 7.96 g/m*3 8.2 C 0 km/h
2216 16-01-2020 16:55:00 8.1 C 7.82 g/m*3 8.1 C 0 km/h
2217 16-01-2020 17:00:00 8 C 7.85 g/m*3 8 C 0 km/h
2218 16-01-2020 17:05:00 7.9 C 7.8 g/m*3 7.9 C 4.8 km/h
2219 16-01-2020 17:10:00 7.8 C 7.75 g/m*3 7.8 C 4.8 km/h
2220 16-01-2020 17:15:00 7.8 C 7.75 g/m*3 7.8 C 3.2 km/h
2221 16-01-2020 17:20:00 7.7 C 7.7 g/m*3 7.7 C 3.2 km/h
2222 16-01-2020 17:25:00 7.7 C 7.7 g/m*3 7.7 C 4.8 km/h
2223 16-01-2020 17:30:00 7.6 C 7.65 g/m*3 7.6 C 4.8 km/h
2224 16-01-2020 17:35:00 7.6 C 7.65 g/m*3 7.6 C 4.8 km/h
2225 16-01-2020 17:40:00 7.5 C 7.6 g/m*3 7.5 C 3.2 km/h
Sensor: Nr:Datum:Temp:Abs-Feuchte:Windchill:Wind:
Aussen-T/F 2226 16-01-2020 17:45:00 7.4 C 7.55 g/m*3 7.4 C 3.2 km/h
2227 16-01-2020 17:50:00 7.4 C 7.55 g/m*3 7.4 C 3.2 km/h
2228 16-01-2020 17:55:00 7.3 C 7.51 g/m*3 7.3 C 4.8 km/h
2229 16-01-2020 18:00:00 7.3 C 7.51 g/m*3 7.3 C 3.2 km/h
2230 16-01-2020 18:05:00 7.3 C 7.51 g/m*3 7.3 C 0 km/h
2231 16-01-2020 18:10:00 7.2 C 7.46 g/m*3 7.2 C 0 km/h
2232 16-01-2020 18:15:00 7.2 C 7.46 g/m*3 7.2 C 4.8 km/h
2233 16-01-2020 18:20:00 7.2 C 7.46 g/m*3 7.2 C 0 km/h
2234 16-01-2020 18:25:00 7.1 C 7.41 g/m*3 7.1 C 3.2 km/h
2235 16-01-2020 18:30:00 7.1 C 7.41 g/m*3 7.1 C 1.6 km/h
2236 16-01-2020 18:35:00 7.1 C 7.41 g/m*3 7.1 C 3.2 km/h
2237 16-01-2020 18:40:00 7 C 7.36 g/m*3 7 C 3.2 km/h
2238 16-01-2020 18:45:00 6.9 C 7.31 g/m*3 6.9 C 3.2 km/h
2239 16-01-2020 18:50:00 6.9 C 7.31 g/m*3 6.9 C 3.2 km/h
2240 16-01-2020 18:55:00 6.8 C 7.27 g/m*3 6.8 C 1.6 km/h
2241 16-01-2020 19:00:00 6.8 C 7.34 g/m*3 6.8 C 0 km/h
2242 16-01-2020 19:05:00 6.8 C 7.34 g/m*3 6.8 C 0 km/h
2243 16-01-2020 19:10:00 6.8 C 7.34 g/m*3 6.8 C 0 km/h
2244 16-01-2020 19:15:00 6.8 C 7.34 g/m*3 6.8 C 3.2 km/h
2245 16-01-2020 19:20:00 6.7 C 7.29 g/m*3 6.7 C 3.2 km/h
2246 16-01-2020 19:25:00 6.7 C 7.22 g/m*3 6.7 C 3.2 km/h
2247 16-01-2020 19:30:00 6.6 C 7.25 g/m*3 6.6 C 1.6 km/h
2248 16-01-2020 19:35:00 6.6 C 7.25 g/m*3 6.6 C 3.2 km/h
2249 16-01-2020 19:40:00 6.6 C 7.25 g/m*3 6.6 C 1.6 km/h
2250 16-01-2020 19:45:00 6.5 C 7.2 g/m*3 6.5 C 0 km/h
Sensor: Nr:Datum:Temp:Abs-Feuchte:Windchill:Wind:
Aussen-T/F 2251 16-01-2020 19:50:00 6.5 C 7.2 g/m*3 6.5 C 1.6 km/h
2252 16-01-2020 19:55:00 6.4 C 7.15 g/m*3 6.4 C 0 km/h
2253 16-01-2020 20:00:00 6.4 C 7.15 g/m*3 6.4 C 3.2 km/h
2254 16-01-2020 20:05:00 6.4 C 7.15 g/m*3 6.4 C 1.6 km/h
2255 16-01-2020 20:10:00 6.4 C 7.15 g/m*3 6.4 C 3.2 km/h
2256 16-01-2020 20:15:00 6.4 C 7.15 g/m*3 6.4 C 3.2 km/h
2257 16-01-2020 20:20:00 6.4 C 7.15 g/m*3 6.4 C 3.2 km/h
2258 16-01-2020 20:25:00 6.5 C 7.2 g/m*3 6.5 C 3.2 km/h
2259 16-01-2020 20:30:00 6.6 C 7.25 g/m*3 6.6 C 3.2 km/h
2260 16-01-2020 20:35:00 6.7 C 7.37 g/m*3 6.7 C 1.6 km/h
2261 16-01-2020 20:40:00 6.8 C 7.34 g/m*3 6.8 C 1.6 km/h
2262 16-01-2020 20:45:00 6.7 C 7.29 g/m*3 6.7 C 1.6 km/h
2263 16-01-2020 20:50:00 6.6 C 7.25 g/m*3 6.6 C 0 km/h
2264 16-01-2020 20:55:00 6.5 C 7.2 g/m*3 6.5 C 1.6 km/h
2265 16-01-2020 21:00:00 6.4 C 7.15 g/m*3 6.4 C 3.2 km/h
2266 16-01-2020 21:05:00 6.4 C 7.15 g/m*3 6.4 C 0 km/h
2267 16-01-2020 21:10:00 6.3 C 7.11 g/m*3 6.3 C 0 km/h
2268 16-01-2020 21:15:00 6.3 C 7.11 g/m*3 6.3 C 0 km/h
2269 16-01-2020 21:20:00 6.2 C 7.06 g/m*3 6.2 C 0 km/h
2270 16-01-2020 21:25:00 6.2 C 7.06 g/m*3 6.2 C 0 km/h
2271 16-01-2020 21:30:00 6.2 C 7.06 g/m*3 6.2 C 3.2 km/h
2272 16-01-2020 21:35:00 6.2 C 7.06 g/m*3 6.2 C 0 km/h
2273 16-01-2020 21:40:00 6.2 C 7.06 g/m*3 6.2 C 0 km/h
2274 16-01-2020 21:45:00 6.2 C 7.06 g/m*3 6.2 C 0 km/h
2275 16-01-2020 21:50:00 6.1 C 7.01 g/m*3 6.1 C 3.2 km/h
Sensor: Nr:Datum:Temp:Abs-Feuchte:Windchill:Wind:
Aussen-T/F 2276 16-01-2020 21:55:00 6.1 C 7.01 g/m*3 6.1 C 3.2 km/h
2277 16-01-2020 22:00:00 6.1 C 7.01 g/m*3 6.1 C 0 km/h
2278 16-01-2020 22:05:00 6 C 6.97 g/m*3 6 C 0 km/h
2279 16-01-2020 22:10:00 6.1 C 7.01 g/m*3 6.1 C 3.2 km/h
2280 16-01-2020 22:15:00 6.1 C 7.01 g/m*3 6.1 C 1.6 km/h
2281 16-01-2020 22:20:00 6.1 C 7.01 g/m*3 6.1 C 4.8 km/h
2282 16-01-2020 22:25:00 6.1 C 7.01 g/m*3 6.1 C 3.2 km/h
2283 16-01-2020 22:30:00 6.1 C 7.01 g/m*3 6.1 C 4.8 km/h
2284 16-01-2020 22:35:00 6.1 C 7.01 g/m*3 6.1 C 3.2 km/h
2285 16-01-2020 22:40:00 6.1 C 7.01 g/m*3 6.1 C 3.2 km/h
2286 16-01-2020 22:45:00 6.2 C 7.06 g/m*3 6.2 C 1.6 km/h
2287 16-01-2020 22:50:00 6.2 C 7.06 g/m*3 6.2 C 1.6 km/h
2288 16-01-2020 22:55:00 6.1 C 7.01 g/m*3 6.1 C 1.6 km/h
2289 16-01-2020 23:00:00 6.1 C 7.01 g/m*3 6.1 C 3.2 km/h
2290 16-01-2020 23:05:00 6.2 C 7.06 g/m*3 6.2 C 4.8 km/h
2291 16-01-2020 23:10:00 6.3 C 7.11 g/m*3 6.3 C 1.6 km/h
2292 16-01-2020 23:15:00 6.4 C 7.15 g/m*3 6.4 C 4.8 km/h
2293 16-01-2020 23:20:00 6.4 C 7.15 g/m*3 5.21 C 6.4 km/h
2294 16-01-2020 23:25:00 6.8 C 7.34 g/m*3 5.67 C 6.4 km/h
2295 16-01-2020 23:30:00 7.2 C 7.54 g/m*3 5.69 C 8.1 km/h
2296 16-01-2020 23:35:00 7.3 C 7.51 g/m*3 6.25 C 6.4 km/h
2297 16-01-2020 23:40:00 7.4 C 7.48 g/m*3 7.4 C 4.8 km/h
2298 16-01-2020 23:45:00 7.3 C 7.35 g/m*3 7.3 C 4.8 km/h
2299 16-01-2020 23:50:00 7.2 C 7.3 g/m*3 7.2 C 0 km/h
2300 16-01-2020 23:55:00 6.9 C 7.08 g/m*3 6.9 C 4.8 km/h
Sensor: Nr:Datum:Temp:Abs-Feuchte:Windchill:Wind:
Aussen-T/F 2301 17-01-2020 00:00:00 6.8 C 7.11 g/m*3 6.8 C 1.6 km/h
2302 17-01-2020 00:05:00 6.7 C 7.07 g/m*3 6.7 C 0 km/h
2303 17-01-2020 00:10:00 6.6 C 7.02 g/m*3 6.6 C 3.2 km/h
2304 17-01-2020 00:15:00 6.5 C 6.97 g/m*3 6.5 C 1.6 km/h
2305 17-01-2020 00:20:00 6.5 C 6.97 g/m*3 6.5 C 3.2 km/h
2306 17-01-2020 00:25:00 6.4 C 6.93 g/m*3 6.4 C 3.2 km/h
2307 17-01-2020 00:30:00 6.4 C 7 g/m*3 6.4 C 3.2 km/h
2308 17-01-2020 00:35:00 6.3 C 6.96 g/m*3 6.3 C 3.2 km/h
2309 17-01-2020 00:40:00 6.2 C 6.91 g/m*3 6.2 C 3.2 km/h
2310 17-01-2020 00:45:00 6.2 C 6.91 g/m*3 6.2 C 1.6 km/h
2311 17-01-2020 00:50:00 6.1 C 6.87 g/m*3 6.1 C 1.6 km/h
2312 17-01-2020 00:55:00 6.1 C 6.87 g/m*3 6.1 C 3.2 km/h
2313 17-01-2020 01:00:00 6 C 6.82 g/m*3 6 C 3.2 km/h
2314 17-01-2020 01:05:00 5.9 C 6.78 g/m*3 5.9 C 3.2 km/h
2315 17-01-2020 01:10:00 5.9 C 6.78 g/m*3 5.9 C 3.2 km/h
2316 17-01-2020 01:15:00 5.8 C 6.73 g/m*3 5.8 C 3.2 km/h
2317 17-01-2020 01:20:00 5.8 C 6.73 g/m*3 5.8 C 0 km/h
2318 17-01-2020 01:25:00 5.7 C 6.69 g/m*3 5.7 C 0 km/h
2319 17-01-2020 01:30:00 5.7 C 6.69 g/m*3 5.7 C 0 km/h
2320 17-01-2020 01:35:00 5.6 C 6.65 g/m*3 5.6 C 0 km/h
2321 17-01-2020 01:40:00 5.6 C 6.72 g/m*3 5.6 C 0 km/h
2322 17-01-2020 01:45:00 5.5 C 6.67 g/m*3 5.5 C 0 km/h
2323 17-01-2020 01:50:00 5.5 C 6.67 g/m*3 5.5 C 0 km/h
2324 17-01-2020 01:55:00 5.4 C 6.63 g/m*3 5.4 C 0 km/h
2325 17-01-2020 02:00:00 5.7 C 6.76 g/m*3 3.56 C 9.7 km/h
Sensor: Nr:Datum:Temp:Abs-Feuchte:Windchill:Wind:
Aussen-T/F 2326 17-01-2020 02:05:00 6.2 C 7.06 g/m*3 4.15 C 9.7 km/h
2327 17-01-2020 02:10:00 6.1 C 6.94 g/m*3 6.1 C 1.6 km/h
2328 17-01-2020 02:15:00 5.8 C 6.73 g/m*3 5.8 C 1.6 km/h
2329 17-01-2020 02:20:00 5.6 C 6.65 g/m*3 5.6 C 3.2 km/h
2330 17-01-2020 02:25:00 5.4 C 6.56 g/m*3 5.4 C 0 km/h
2331 17-01-2020 02:30:00 5.3 C 6.52 g/m*3 5.3 C 3.2 km/h
2332 17-01-2020 02:35:00 5.1 C 6.43 g/m*3 5.1 C 0 km/h
2333 17-01-2020 02:40:00 5.1 C 6.43 g/m*3 5.1 C 1.6 km/h
2334 17-01-2020 02:45:00 4.9 C 6.35 g/m*3 4.9 C 0 km/h
2335 17-01-2020 02:50:00 4.9 C 6.41 g/m*3 4.9 C 3.2 km/h
2336 17-01-2020 02:55:00 4.9 C 6.41 g/m*3 4.9 C 3.2 km/h
2337 17-01-2020 03:00:00 4.9 C 6.41 g/m*3 4.9 C 1.6 km/h
2338 17-01-2020 03:05:00 4.8 C 6.37 g/m*3 4.8 C 1.6 km/h
2339 17-01-2020 03:10:00 4.8 C 6.37 g/m*3 4.8 C 0 km/h
2340 17-01-2020 03:15:00 4.7 C 6.33 g/m*3 4.7 C 3.2 km/h
2341 17-01-2020 03:20:00 4.7 C 6.33 g/m*3 4.7 C 1.6 km/h
2342 17-01-2020 03:25:00 4.6 C 6.29 g/m*3 4.6 C 1.6 km/h
2343 17-01-2020 03:30:00 4.6 C 6.29 g/m*3 4.6 C 1.6 km/h
2344 17-01-2020 03:35:00 4.7 C 6.33 g/m*3 4.7 C 1.6 km/h
2345 17-01-2020 03:40:00 4.7 C 6.33 g/m*3 4.7 C 1.6 km/h
2346 17-01-2020 03:45:00 4.6 C 6.29 g/m*3 4.6 C 0 km/h
2347 17-01-2020 03:50:00 4.5 C 6.24 g/m*3 4.5 C 1.6 km/h
2348 17-01-2020 03:55:00 4.5 C 6.31 g/m*3 4.5 C 1.6 km/h
2349 17-01-2020 04:00:00 4.6 C 6.35 g/m*3 4.6 C 0 km/h
2350 17-01-2020 04:05:00 4.7 C 6.39 g/m*3 4.7 C 0 km/h
Sensor: Nr:Datum:Temp:Abs-Feuchte:Windchill:Wind:
Aussen-T/F 2351 17-01-2020 04:10:00 4.7 C 6.39 g/m*3 4.7 C 3.2 km/h
2352 17-01-2020 04:15:00 4.7 C 6.39 g/m*3 4.7 C 0 km/h
2353 17-01-2020 04:20:00 4.6 C 6.35 g/m*3 4.6 C 0 km/h
2354 17-01-2020 04:25:00 4.6 C 6.35 g/m*3 4.6 C 3.2 km/h
2355 17-01-2020 04:30:00 4.6 C 6.35 g/m*3 4.6 C 1.6 km/h
2356 17-01-2020 04:35:00 4.6 C 6.35 g/m*3 4.6 C 3.2 km/h
2357 17-01-2020 04:40:00 4.6 C 6.35 g/m*3 4.6 C 1.6 km/h
2358 17-01-2020 04:45:00 4.5 C 6.31 g/m*3 4.5 C 0 km/h
2359 17-01-2020 04:50:00 4.4 C 6.27 g/m*3 4.4 C 0 km/h
2360 17-01-2020 04:55:00 4.4 C 6.27 g/m*3 4.4 C 0 km/h
2361 17-01-2020 05:00:00 4.3 C 6.23 g/m*3 4.3 C 0 km/h
2362 17-01-2020 05:05:00 4.3 C 6.23 g/m*3 4.3 C 0 km/h
2363 17-01-2020 05:10:00 4.1 C 6.14 g/m*3 4.1 C 0 km/h
2364 17-01-2020 05:15:00 4.1 C 6.14 g/m*3 4.1 C 0 km/h
2365 17-01-2020 05:20:00 3.9 C 6.06 g/m*3 3.9 C 0 km/h
2366 17-01-2020 05:25:00 3.9 C 6.06 g/m*3 3.9 C 0 km/h
2367 17-01-2020 05:30:00 3.8 C 6.02 g/m*3 3.8 C 0 km/h
2368 17-01-2020 05:35:00 3.8 C 6.02 g/m*3 3.8 C 0 km/h
2369 17-01-2020 05:40:00 3.7 C 5.98 g/m*3 3.7 C 0 km/h
2370 17-01-2020 05:45:00 3.6 C 5.94 g/m*3 3.6 C 0 km/h
2371 17-01-2020 05:50:00 3.5 C 5.9 g/m*3 3.5 C 0 km/h
2372 17-01-2020 05:55:00 3.4 C 5.86 g/m*3 3.4 C 0 km/h
2373 17-01-2020 06:00:00 3.4 C 5.86 g/m*3 3.4 C 0 km/h
2374 17-01-2020 06:05:00 3.3 C 5.82 g/m*3 3.3 C 0 km/h
2375 17-01-2020 06:10:00 3.3 C 5.82 g/m*3 3.3 C 0 km/h
Sensor: Nr:Datum:Temp:Abs-Feuchte:Windchill:Wind:
Aussen-T/F 2376 17-01-2020 06:15:00 3.2 C 5.79 g/m*3 3.2 C 0 km/h
2377 17-01-2020 06:20:00 3.2 C 5.79 g/m*3 3.2 C 0 km/h
2378 17-01-2020 06:25:00 3.1 C 5.75 g/m*3 3.1 C 0 km/h
2379 17-01-2020 06:30:00 3.1 C 5.75 g/m*3 3.1 C 0 km/h
2380 17-01-2020 06:35:00 3.1 C 5.75 g/m*3 3.1 C 0 km/h
2381 17-01-2020 06:40:00 2.9 C 5.67 g/m*3 2.9 C 0 km/h
2382 17-01-2020 06:45:00 3 C 5.71 g/m*3 3 C 0 km/h
2383 17-01-2020 06:50:00 2.9 C 5.67 g/m*3 2.9 C 0 km/h
2384 17-01-2020 06:55:00 2.8 C 5.63 g/m*3 2.8 C 0 km/h
2385 17-01-2020 07:00:00 2.8 C 5.63 g/m*3 2.8 C 0 km/h
2386 17-01-2020 07:05:00 2.8 C 5.63 g/m*3 2.8 C 0 km/h
2387 17-01-2020 07:10:00 2.7 C 5.59 g/m*3 2.7 C 0 km/h
2388 17-01-2020 07:15:00 2.6 C 5.56 g/m*3 2.6 C 0 km/h
2389 17-01-2020 07:20:00 2.6 C 5.56 g/m*3 2.6 C 0 km/h
2390 17-01-2020 07:25:00 2.6 C 5.56 g/m*3 2.6 C 0 km/h
2391 17-01-2020 07:30:00 2.5 C 5.52 g/m*3 2.5 C 0 km/h
2392 17-01-2020 07:35:00 2.4 C 5.48 g/m*3 2.4 C 0 km/h
2393 17-01-2020 07:40:00 2.4 C 5.48 g/m*3 2.4 C 0 km/h
2394 17-01-2020 07:45:00 2.3 C 5.44 g/m*3 2.3 C 0 km/h
2395 17-01-2020 07:50:00 2.4 C 5.48 g/m*3 2.4 C 0 km/h
2396 17-01-2020 07:55:00 2.4 C 5.48 g/m*3 2.4 C 0 km/h
2397 17-01-2020 08:00:00 2.5 C 5.58 g/m*3 2.5 C 0 km/h
2398 17-01-2020 08:05:00 2.6 C 5.61 g/m*3 2.6 C 0 km/h
2399 17-01-2020 08:10:00 2.7 C 5.65 g/m*3 2.7 C 0 km/h
2400 17-01-2020 08:15:00 2.8 C 5.69 g/m*3 2.8 C 0 km/h
Sensor: Nr:Datum:Temp:Abs-Feuchte:Windchill:Wind:
Aussen-T/F 2401 17-01-2020 08:20:00 2.9 C 5.73 g/m*3 2.9 C 1.6 km/h
2402 17-01-2020 08:25:00 2.9 C 5.73 g/m*3 2.9 C 4.8 km/h
2403 17-01-2020 08:30:00 2.9 C 5.73 g/m*3 2.9 C 3.2 km/h
2404 17-01-2020 08:35:00 2.9 C 5.73 g/m*3 2.9 C 1.6 km/h
2405 17-01-2020 08:40:00 2.9 C 5.73 g/m*3 2.9 C 1.6 km/h
2406 17-01-2020 08:45:00 2.9 C 5.73 g/m*3 2.9 C 0 km/h
2407 17-01-2020 08:50:00 3 C 5.77 g/m*3 3 C 1.6 km/h
2408 17-01-2020 08:55:00 3.1 C 5.81 g/m*3 3.1 C 0 km/h
2409 17-01-2020 09:00:00 3.1 C 5.81 g/m*3 3.1 C 0 km/h
2410 17-01-2020 09:05:00 3.1 C 5.81 g/m*3 3.1 C 0 km/h
2411 17-01-2020 09:10:00 3.2 C 5.85 g/m*3 3.2 C 0 km/h
2412 17-01-2020 09:15:00 3.2 C 5.85 g/m*3 3.2 C 0 km/h
2413 17-01-2020 09:20:00 3.2 C 5.85 g/m*3 3.2 C 0 km/h
2414 17-01-2020 09:25:00 3.2 C 5.85 g/m*3 3.2 C 0 km/h
2415 17-01-2020 09:30:00 3.1 C 5.81 g/m*3 3.1 C 1.6 km/h
2416 17-01-2020 09:35:00 3.1 C 5.81 g/m*3 3.1 C 0 km/h
2417 17-01-2020 09:40:00 3.1 C 5.81 g/m*3 3.1 C 0 km/h
2418 17-01-2020 09:45:00 3.3 C 5.88 g/m*3 3.3 C 3.2 km/h
2419 17-01-2020 09:50:00 3.4 C 5.92 g/m*3 3.4 C 0 km/h
2420 17-01-2020 09:55:00 3.5 C 5.96 g/m*3 3.5 C 0 km/h
2421 17-01-2020 10:00:00 3.6 C 6 g/m*3 3.6 C 0 km/h
2422 17-01-2020 10:05:00 3.7 C 6.04 g/m*3 3.7 C 1.6 km/h
2423 17-01-2020 10:10:00 3.8 C 6.09 g/m*3 3.8 C 0 km/h
2424 17-01-2020 10:15:00 3.9 C 6.13 g/m*3 3.9 C 0 km/h
2425 17-01-2020 10:20:00 3.9 C 6.13 g/m*3 3.9 C 0 km/h
Sensor: Nr:Datum:Temp:Abs-Feuchte:Windchill:Wind:
Aussen-T/F 2426 17-01-2020 10:25:00 4.1 C 6.21 g/m*3 4.1 C 0 km/h
2427 17-01-2020 10:30:00 4.1 C 6.21 g/m*3 4.1 C 0 km/h
2428 17-01-2020 10:35:00 4.2 C 6.25 g/m*3 4.2 C 0 km/h
2429 17-01-2020 10:40:00 4.2 C 6.25 g/m*3 4.2 C 0 km/h
2430 17-01-2020 10:45:00 4.3 C 6.29 g/m*3 4.3 C 0 km/h
2431 17-01-2020 10:50:00 4.4 C 6.33 g/m*3 4.4 C 0 km/h
2432 17-01-2020 10:55:00 4.4 C 6.33 g/m*3 4.4 C 1.6 km/h
2433 17-01-2020 11:00:00 4.6 C 6.42 g/m*3 4.6 C 0 km/h
2434 17-01-2020 11:05:00 4.7 C 6.46 g/m*3 4.7 C 0 km/h
2435 17-01-2020 11:10:00 4.8 C 6.5 g/m*3 4.8 C 0 km/h
2436 17-01-2020 11:15:00 4.8 C 6.5 g/m*3 4.8 C 0 km/h
2437 17-01-2020 11:20:00 4.9 C 6.55 g/m*3 4.9 C 0 km/h
2438 17-01-2020 11:25:00 4.9 C 6.55 g/m*3 4.9 C 1.6 km/h
2439 17-01-2020 11:30:00 5 C 6.59 g/m*3 5 C 0 km/h
2440 17-01-2020 11:35:00 5.2 C 6.68 g/m*3 5.2 C 0 km/h
2441 17-01-2020 11:40:00 5.4 C 6.84 g/m*3 5.4 C 0 km/h
2442 17-01-2020 11:45:00 5.6 C 6.86 g/m*3 5.6 C 0 km/h
2443 17-01-2020 11:50:00 5.7 C 6.97 g/m*3 5.7 C 0 km/h
2444 17-01-2020 11:55:00 5.8 C 6.95 g/m*3 5.8 C 0 km/h
2445 17-01-2020 12:00:00 5.8 C 6.95 g/m*3 5.8 C 0 km/h
2446 17-01-2020 12:05:00 5.9 C 6.99 g/m*3 5.9 C 0 km/h
2447 17-01-2020 12:10:00 6.1 C 7.09 g/m*3 6.1 C 3.2 km/h
2448 17-01-2020 12:15:00 6.3 C 7.18 g/m*3 6.3 C 3.2 km/h
2449 17-01-2020 12:20:00 6.4 C 7.23 g/m*3 6.4 C 0 km/h
2450 17-01-2020 12:25:00 6.6 C 7.32 g/m*3 6.6 C 0 km/h
Sensor: Nr:Datum:Temp:Abs-Feuchte:Windchill:Wind:
Aussen-T/F 2451 17-01-2020 12:30:00 6.7 C 7.37 g/m*3 6.7 C 0 km/h
2452 17-01-2020 12:35:00 6.8 C 7.42 g/m*3 6.8 C 0 km/h
2453 17-01-2020 12:40:00 6.8 C 7.42 g/m*3 6.8 C 0 km/h
2454 17-01-2020 12:45:00 7 C 7.52 g/m*3 7 C 1.6 km/h
2455 17-01-2020 12:50:00 7.2 C 7.54 g/m*3 7.2 C 0 km/h
2456 17-01-2020 12:55:00 7.2 C 7.54 g/m*3 7.2 C 0 km/h
2457 17-01-2020 13:00:00 7.3 C 7.58 g/m*3 7.3 C 0 km/h
2458 17-01-2020 13:05:00 7.4 C 7.63 g/m*3 7.4 C 0 km/h
2459 17-01-2020 13:10:00 7.7 C 7.78 g/m*3 7.7 C 4.8 km/h
2460 17-01-2020 13:15:00 7.7 C 7.7 g/m*3 7.7 C 0 km/h
2461 17-01-2020 13:20:00 7.8 C 7.83 g/m*3 7.8 C 0 km/h
2462 17-01-2020 13:25:00 8.1 C 7.9 g/m*3 8.1 C 1.6 km/h
2463 17-01-2020 13:30:00 8.2 C 8.04 g/m*3 8.2 C 0 km/h
2464 17-01-2020 13:35:00 8.4 C 8.06 g/m*3 8.4 C 4.8 km/h
2465 17-01-2020 13:40:00 8.7 C 8.13 g/m*3 7.13 C 9.7 km/h
2466 17-01-2020 13:45:00 8.8 C 8.09 g/m*3 7.98 C 6.4 km/h
2467 17-01-2020 13:50:00 9 C 8.11 g/m*3 8.21 C 6.4 km/h
2468 17-01-2020 13:55:00 9.2 C 8.13 g/m*3 9.2 C 4.8 km/h
2469 17-01-2020 14:00:00 9.3 C 8.18 g/m*3 9.3 C 3.2 km/h
2470 17-01-2020 14:05:00 9.4 C 8.23 g/m*3 9.4 C 4.8 km/h
2471 17-01-2020 14:10:00 9.6 C 8.34 g/m*3 9.6 C 3.2 km/h
2472 17-01-2020 14:15:00 9.7 C 8.2 g/m*3 8.33 C 9.7 km/h
2473 17-01-2020 14:20:00 9.8 C 8.16 g/m*3 7.73 C 14.5 km/h
2474 17-01-2020 14:25:00 9.9 C 8.22 g/m*3 8.56 C 9.7 km/h
2475 17-01-2020 14:30:00 9.9 C 8.31 g/m*3 9.9 C 4.8 km/h
Sensor: Nr:Datum:Temp:Abs-Feuchte:Windchill:Wind:
Aussen-T/F 2476 17-01-2020 14:35:00 9.9 C 8.22 g/m*3 8.56 C 9.7 km/h
2477 17-01-2020 14:40:00 9.9 C 8.31 g/m*3 9.9 C 3.2 km/h
2478 17-01-2020 14:45:00 9.9 C 8.31 g/m*3 9.9 C 3.2 km/h
2479 17-01-2020 14:50:00 9.8 C 8.35 g/m*3 9.8 C 0 km/h
2480 17-01-2020 14:55:00 9.8 C 8.35 g/m*3 9.8 C 4.8 km/h
2481 17-01-2020 15:00:00 9.7 C 8.3 g/m*3 9.7 C 4.8 km/h
2482 17-01-2020 15:05:00 9.6 C 8.34 g/m*3 9.6 C 4.8 km/h
2483 17-01-2020 15:10:00 9.5 C 8.28 g/m*3 9.5 C 3.2 km/h
2484 17-01-2020 15:15:00 9.4 C 8.23 g/m*3 9.4 C 1.6 km/h
2485 17-01-2020 15:20:00 9.3 C 8.27 g/m*3 8.56 C 6.4 km/h
2486 17-01-2020 15:25:00 9.3 C 8.27 g/m*3 9.3 C 3.2 km/h
2487 17-01-2020 15:30:00 9.2 C 8.22 g/m*3 8.45 C 6.4 km/h
2488 17-01-2020 15:35:00 9.2 C 8.22 g/m*3 9.2 C 4.8 km/h
2489 17-01-2020 15:40:00 9.2 C 8.22 g/m*3 9.2 C 1.6 km/h
2490 17-01-2020 15:45:00 9.2 C 8.22 g/m*3 9.2 C 3.2 km/h
2491 17-01-2020 15:50:00 9.1 C 8.16 g/m*3 9.1 C 1.6 km/h
2492 17-01-2020 15:55:00 9.1 C 8.16 g/m*3 7.93 C 8.1 km/h
2493 17-01-2020 16:00:00 9 C 8.11 g/m*3 9 C 1.6 km/h
2494 17-01-2020 16:05:00 8.9 C 8.15 g/m*3 8.9 C 4.8 km/h
2495 17-01-2020 16:10:00 8.9 C 8.15 g/m*3 8.1 C 6.4 km/h
2496 17-01-2020 16:15:00 8.9 C 8.15 g/m*3 7.69 C 8.1 km/h
2497 17-01-2020 16:20:00 8.9 C 8.06 g/m*3 8.1 C 6.4 km/h
2498 17-01-2020 16:25:00 8.9 C 8.06 g/m*3 8.9 C 3.2 km/h
2499 17-01-2020 16:30:00 8.9 C 8.15 g/m*3 8.9 C 3.2 km/h
2500 17-01-2020 16:35:00 8.8 C 8.09 g/m*3 8.8 C 4.8 km/h
Sensor: Nr:Datum:Temp:Abs-Feuchte:Windchill:Wind:
Aussen-T/F 2501 17-01-2020 16:40:00 8.8 C 8.09 g/m*3 8.8 C 1.6 km/h
2502 17-01-2020 16:45:00 8.8 C 8.09 g/m*3 8.8 C 3.2 km/h
2503 17-01-2020 16:50:00 8.7 C 8.04 g/m*3 8.7 C 0 km/h
2504 17-01-2020 16:55:00 8.7 C 8.04 g/m*3 8.7 C 3.2 km/h
2505 17-01-2020 17:00:00 8.7 C 8.04 g/m*3 8.7 C 1.6 km/h
2506 17-01-2020 17:05:00 8.6 C 7.99 g/m*3 8.6 C 3.2 km/h
2507 17-01-2020 17:10:00 8.7 C 8.13 g/m*3 7.46 C 8.1 km/h
2508 17-01-2020 17:15:00 8.7 C 8.13 g/m*3 6.85 C 11.3 km/h
2509 17-01-2020 17:20:00 8.9 C 8.15 g/m*3 7.09 C 11.3 km/h
2510 17-01-2020 17:25:00 9 C 8.2 g/m*3 7.21 C 11.3 km/h
2511 17-01-2020 17:30:00 9 C 8.11 g/m*3 7.21 C 11.3 km/h
2512 17-01-2020 17:35:00 9 C 8.11 g/m*3 7.21 C 11.3 km/h
2513 17-01-2020 17:40:00 9 C 8.11 g/m*3 9 C 4.8 km/h
2514 17-01-2020 17:45:00 8.9 C 8.06 g/m*3 8.1 C 6.4 km/h
2515 17-01-2020 17:50:00 8.8 C 8.01 g/m*3 7.98 C 6.4 km/h
2516 17-01-2020 17:55:00 8.8 C 8.01 g/m*3 6.5 C 14.5 km/h
2517 17-01-2020 18:00:00 8.9 C 8.06 g/m*3 8.1 C 6.4 km/h
2518 17-01-2020 18:05:00 8.9 C 7.97 g/m*3 6.85 C 12.9 km/h
2519 17-01-2020 18:10:00 9 C 8.02 g/m*3 6.97 C 12.9 km/h
2520 17-01-2020 18:15:00 9 C 8.02 g/m*3 8.21 C 6.4 km/h
2521 17-01-2020 18:20:00 8.9 C 7.97 g/m*3 7.69 C 8.1 km/h
2522 17-01-2020 18:25:00 8.9 C 7.97 g/m*3 7.69 C 8.1 km/h
2523 17-01-2020 18:30:00 8.9 C 7.97 g/m*3 6.62 C 14.5 km/h
2524 17-01-2020 18:35:00 8.9 C 7.97 g/m*3 8.1 C 6.4 km/h
2525 17-01-2020 18:40:00 8.8 C 7.92 g/m*3 8.8 C 4.8 km/h
Sensor: Nr:Datum:Temp:Abs-Feuchte:Windchill:Wind:
Aussen-T/F 2526 17-01-2020 18:45:00 8.7 C 7.87 g/m*3 7.46 C 8.1 km/h
2527 17-01-2020 18:50:00 8.6 C 7.82 g/m*3 7.34 C 8.1 km/h
2528 17-01-2020 18:55:00 8.4 C 7.72 g/m*3 7.52 C 6.4 km/h
2529 17-01-2020 19:00:00 8.3 C 7.67 g/m*3 8.3 C 4.8 km/h
2530 17-01-2020 19:05:00 8.1 C 7.57 g/m*3 7.17 C 6.4 km/h
2531 17-01-2020 19:10:00 7.9 C 7.56 g/m*3 6.94 C 6.4 km/h
2532 17-01-2020 19:15:00 7.8 C 7.51 g/m*3 6.06 C 9.7 km/h
2533 17-01-2020 19:20:00 7.8 C 7.43 g/m*3 6.4 C 8.1 km/h
2534 17-01-2020 19:25:00 7.6 C 7.33 g/m*3 7.6 C 1.6 km/h
2535 17-01-2020 19:30:00 7.3 C 7.19 g/m*3 7.3 C 3.2 km/h
2536 17-01-2020 19:35:00 7.2 C 7.22 g/m*3 7.2 C 1.6 km/h
2537 17-01-2020 19:40:00 7.1 C 7.18 g/m*3 7.1 C 3.2 km/h
2538 17-01-2020 19:45:00 6.9 C 7.08 g/m*3 6.9 C 0 km/h
2539 17-01-2020 19:50:00 6.9 C 7.16 g/m*3 6.9 C 0 km/h
2540 17-01-2020 19:55:00 6.9 C 7.16 g/m*3 6.9 C 0 km/h
2541 17-01-2020 20:00:00 6.9 C 7.24 g/m*3 6.9 C 3.2 km/h
2542 17-01-2020 20:05:00 6.9 C 7.24 g/m*3 6.9 C 0 km/h
2543 17-01-2020 20:10:00 6.9 C 7.24 g/m*3 6.9 C 0 km/h
2544 17-01-2020 20:15:00 7 C 7.28 g/m*3 7 C 0 km/h
2545 17-01-2020 20:20:00 7.1 C 7.33 g/m*3 7.1 C 1.6 km/h
2546 17-01-2020 20:25:00 7.2 C 7.46 g/m*3 7.2 C 4.8 km/h
2547 17-01-2020 20:30:00 7.3 C 7.43 g/m*3 7.3 C 4.8 km/h
2548 17-01-2020 20:35:00 7.4 C 7.48 g/m*3 5.93 C 8.1 km/h
2549 17-01-2020 20:40:00 7.5 C 7.44 g/m*3 6.48 C 6.4 km/h
2550 17-01-2020 20:45:00 7.6 C 7.41 g/m*3 7.6 C 4.8 km/h
Sensor: Nr:Datum:Temp:Abs-Feuchte:Windchill:Wind:
Aussen-T/F 2551 17-01-2020 20:50:00 7.7 C 7.3 g/m*3 5.94 C 9.7 km/h
2552 17-01-2020 20:55:00 7.8 C 7.35 g/m*3 6.4 C 8.1 km/h
2553 17-01-2020 21:00:00 7.9 C 7.31 g/m*3 4.98 C 17.7 km/h
2554 17-01-2020 21:05:00 7.9 C 7.23 g/m*3 6.94 C 6.4 km/h
2555 17-01-2020 21:10:00 7.9 C 7.23 g/m*3 5.89 C 11.3 km/h
2556 17-01-2020 21:15:00 8 C 7.19 g/m*3 6.3 C 9.7 km/h
2557 17-01-2020 21:20:00 7.9 C 7.15 g/m*3 6.94 C 6.4 km/h
2558 17-01-2020 21:25:00 7.8 C 7.1 g/m*3 5.51 C 12.9 km/h
2559 17-01-2020 21:30:00 7.6 C 7.01 g/m*3 6.6 C 6.4 km/h
2560 17-01-2020 21:35:00 7.4 C 6.92 g/m*3 5.93 C 8.1 km/h
2561 17-01-2020 21:40:00 7.4 C 6.84 g/m*3 7.4 C 4.8 km/h
2562 17-01-2020 21:45:00 7.3 C 6.79 g/m*3 7.3 C 4.8 km/h
2563 17-01-2020 21:50:00 7.2 C 6.75 g/m*3 7.2 C 4.8 km/h
2564 17-01-2020 21:55:00 7.1 C 6.71 g/m*3 5.58 C 8.1 km/h
2565 17-01-2020 22:00:00 6.9 C 6.62 g/m*3 5.79 C 6.4 km/h
2566 17-01-2020 22:05:00 6.9 C 6.62 g/m*3 6.9 C 3.2 km/h
2567 17-01-2020 22:10:00 6.7 C 6.53 g/m*3 6.7 C 3.2 km/h
2568 17-01-2020 22:15:00 6.6 C 6.49 g/m*3 6.6 C 0 km/h
2569 17-01-2020 22:20:00 6.4 C 6.41 g/m*3 6.4 C 0 km/h
2570 17-01-2020 22:25:00 6.2 C 6.32 g/m*3 6.2 C 0 km/h
2571 17-01-2020 22:30:00 5.9 C 6.27 g/m*3 5.9 C 0 km/h
2572 17-01-2020 22:35:00 5.7 C 6.26 g/m*3 5.7 C 0 km/h
2573 17-01-2020 22:40:00 5.5 C 6.18 g/m*3 5.5 C 4.8 km/h
2574 17-01-2020 22:45:00 5.4 C 6.21 g/m*3 5.4 C 3.2 km/h
2575 17-01-2020 22:50:00 5.3 C 6.17 g/m*3 5.3 C 0 km/h
Sensor: Nr:Datum:Temp:Abs-Feuchte:Windchill:Wind:
Aussen-T/F 2576 17-01-2020 22:55:00 5.2 C 6.2 g/m*3 5.2 C 0 km/h
2577 17-01-2020 23:00:00 5.1 C 6.16 g/m*3 5.1 C 0 km/h
2578 17-01-2020 23:05:00 4.9 C 6.08 g/m*3 4.9 C 0 km/h
2579 17-01-2020 23:10:00 4.8 C 6.04 g/m*3 4.8 C 0 km/h
2580 17-01-2020 23:15:00 4.7 C 6.06 g/m*3 4.7 C 1.6 km/h
2581 17-01-2020 23:20:00 4.7 C 6.06 g/m*3 4.7 C 3.2 km/h
2582 17-01-2020 23:25:00 4.6 C 6.02 g/m*3 4.6 C 3.2 km/h
2583 17-01-2020 23:30:00 4.6 C 6.02 g/m*3 4.6 C 0 km/h
2584 17-01-2020 23:35:00 4.6 C 6.09 g/m*3 4.6 C 0 km/h
2585 17-01-2020 23:40:00 4.6 C 6.09 g/m*3 4.6 C 0 km/h
2586 17-01-2020 23:45:00 4.5 C 6.05 g/m*3 4.5 C 0 km/h
2587 17-01-2020 23:50:00 4.4 C 6.01 g/m*3 4.4 C 0 km/h
2588 17-01-2020 23:55:00 4.3 C 5.97 g/m*3 4.3 C 0 km/h
2589 18-01-2020 00:00:00 4.2 C 5.93 g/m*3 4.2 C 0 km/h
2590 18-01-2020 00:05:00 4.1 C 5.89 g/m*3 4.1 C 0 km/h
2591 18-01-2020 00:10:00 4 C 5.85 g/m*3 4 C 0 km/h
2592 18-01-2020 00:15:00 3.9 C 5.87 g/m*3 3.9 C 0 km/h
2593 18-01-2020 00:20:00 3.9 C 5.87 g/m*3 3.9 C 0 km/h
2594 18-01-2020 00:25:00 4 C 5.91 g/m*3 4 C 0 km/h
2595 18-01-2020 00:30:00 3.9 C 5.87 g/m*3 3.9 C 0 km/h
2596 18-01-2020 00:35:00 3.9 C 5.94 g/m*3 3.9 C 0 km/h
2597 18-01-2020 00:40:00 4 C 5.98 g/m*3 4 C 0 km/h
2598 18-01-2020 00:45:00 4.1 C 6.02 g/m*3 4.1 C 0 km/h
2599 18-01-2020 00:50:00 4.2 C 6.06 g/m*3 2.17 C 8.1 km/h
2600 18-01-2020 00:55:00 4.3 C 6.1 g/m*3 2.29 C 8.1 km/h
Sensor: Nr:Datum:Temp:Abs-Feuchte:Windchill:Wind:
Aussen-T/F 2601 18-01-2020 01:00:00 4.3 C 6.1 g/m*3 4.3 C 4.8 km/h
2602 18-01-2020 01:05:00 4.4 C 6.14 g/m*3 2.9 C 6.4 km/h
2603 18-01-2020 01:10:00 4.5 C 6.11 g/m*3 4.5 C 3.2 km/h
2604 18-01-2020 01:15:00 4.6 C 6.15 g/m*3 4.6 C 1.6 km/h
2605 18-01-2020 01:20:00 4.6 C 6.15 g/m*3 4.6 C 0 km/h
2606 18-01-2020 01:25:00 4.6 C 6.15 g/m*3 4.6 C 0 km/h
2607 18-01-2020 01:30:00 4.6 C 6.15 g/m*3 4.6 C 0 km/h
2608 18-01-2020 01:35:00 4.6 C 6.15 g/m*3 4.6 C 0 km/h
2609 18-01-2020 01:40:00 4.6 C 6.15 g/m*3 4.6 C 0 km/h
2610 18-01-2020 01:45:00 4.6 C 6.15 g/m*3 4.6 C 1.6 km/h
2611 18-01-2020 01:50:00 4.6 C 6.22 g/m*3 4.6 C 3.2 km/h
2612 18-01-2020 01:55:00 4.7 C 6.26 g/m*3 4.7 C 1.6 km/h
2613 18-01-2020 02:00:00 4.7 C 6.19 g/m*3 4.7 C 1.6 km/h
2614 18-01-2020 02:05:00 4.7 C 6.19 g/m*3 4.7 C 0 km/h
2615 18-01-2020 02:10:00 4.6 C 6.15 g/m*3 4.6 C 0 km/h
2616 18-01-2020 02:15:00 4.5 C 6.11 g/m*3 4.5 C 1.6 km/h
2617 18-01-2020 02:20:00 4.4 C 6.07 g/m*3 4.4 C 1.6 km/h
2618 18-01-2020 02:25:00 4.5 C 6.11 g/m*3 4.5 C 4.8 km/h
2619 18-01-2020 02:30:00 4.5 C 6.11 g/m*3 4.5 C 0 km/h
2620 18-01-2020 02:35:00 4.4 C 6.07 g/m*3 4.4 C 0 km/h
2621 18-01-2020 02:40:00 4.3 C 6.03 g/m*3 4.3 C 1.6 km/h
2622 18-01-2020 02:45:00 4.3 C 6.03 g/m*3 2.29 C 8.1 km/h
2623 18-01-2020 02:50:00 4.4 C 6.07 g/m*3 4.4 C 4.8 km/h
2624 18-01-2020 02:55:00 4.4 C 6.07 g/m*3 4.4 C 3.2 km/h
2625 18-01-2020 03:00:00 4.5 C 6.11 g/m*3 3.02 C 6.4 km/h
Sensor: Nr:Datum:Temp:Abs-Feuchte:Windchill:Wind:
Aussen-T/F 2626 18-01-2020 03:05:00 4.7 C 6.13 g/m*3 2.37 C 9.7 km/h
2627 18-01-2020 03:10:00 4.8 C 6.1 g/m*3 2.15 C 11.3 km/h
2628 18-01-2020 03:15:00 5 C 6.12 g/m*3 3.11 C 8.1 km/h
2629 18-01-2020 03:20:00 5.1 C 6.16 g/m*3 3.71 C 6.4 km/h
2630 18-01-2020 03:25:00 5.1 C 6.16 g/m*3 3.23 C 8.1 km/h
2631 18-01-2020 03:30:00 5.1 C 6.09 g/m*3 2.84 C 9.7 km/h
2632 18-01-2020 03:35:00 5.1 C 6.09 g/m*3 3.71 C 6.4 km/h
2633 18-01-2020 03:40:00 5 C 6.05 g/m*3 3.59 C 6.4 km/h
2634 18-01-2020 03:45:00 4.9 C 6.01 g/m*3 2.27 C 11.3 km/h
2635 18-01-2020 03:50:00 4.9 C 6.01 g/m*3 2.99 C 8.1 km/h
2636 18-01-2020 03:55:00 4.9 C 6.01 g/m*3 4.9 C 4.8 km/h
2637 18-01-2020 04:00:00 4.9 C 6.01 g/m*3 2.99 C 8.1 km/h
2638 18-01-2020 04:05:00 4.8 C 5.97 g/m*3 4.8 C 4.8 km/h
2639 18-01-2020 04:10:00 4.8 C 5.97 g/m*3 2.49 C 9.7 km/h
2640 18-01-2020 04:15:00 4.8 C 5.97 g/m*3 3.36 C 6.4 km/h
2641 18-01-2020 04:20:00 4.7 C 5.93 g/m*3 4.7 C 4.8 km/h
2642 18-01-2020 04:25:00 4.7 C 5.93 g/m*3 4.7 C 4.8 km/h
2643 18-01-2020 04:30:00 4.6 C 5.89 g/m*3 3.13 C 6.4 km/h
2644 18-01-2020 04:35:00 4.6 C 5.89 g/m*3 2.64 C 8.1 km/h
2645 18-01-2020 04:40:00 4.6 C 5.96 g/m*3 1.61 C 12.9 km/h
2646 18-01-2020 04:45:00 4.6 C 5.96 g/m*3 1.61 C 12.9 km/h
2647 18-01-2020 04:50:00 4.6 C 5.96 g/m*3 1.91 C 11.3 km/h
2648 18-01-2020 04:55:00 4.5 C 5.85 g/m*3 4.5 C 4.8 km/h
2649 18-01-2020 05:00:00 4.5 C 5.85 g/m*3 3.02 C 6.4 km/h
2650 18-01-2020 05:05:00 4.4 C 5.81 g/m*3 2.01 C 9.7 km/h
Sensor: Nr:Datum:Temp:Abs-Feuchte:Windchill:Wind:
Aussen-T/F 2651 18-01-2020 05:10:00 4.4 C 5.81 g/m*3 4.4 C 4.8 km/h
2652 18-01-2020 05:15:00 4.4 C 5.81 g/m*3 2.4 C 8.1 km/h
2653 18-01-2020 05:20:00 4.3 C 5.77 g/m*3 2.78 C 6.4 km/h
2654 18-01-2020 05:25:00 4.3 C 5.77 g/m*3 2.78 C 6.4 km/h
2655 18-01-2020 05:30:00 4.2 C 5.73 g/m*3 4.2 C 4.8 km/h
2656 18-01-2020 05:35:00 4.3 C 5.77 g/m*3 2.29 C 8.1 km/h
2657 18-01-2020 05:40:00 4.3 C 5.77 g/m*3 2.29 C 8.1 km/h
2658 18-01-2020 05:45:00 4.2 C 5.73 g/m*3 2.67 C 6.4 km/h
2659 18-01-2020 05:50:00 4.2 C 5.73 g/m*3 4.2 C 4.8 km/h
2660 18-01-2020 05:55:00 4.1 C 5.7 g/m*3 1.65 C 9.7 km/h
2661 18-01-2020 06:00:00 3.9 C 5.62 g/m*3 2.32 C 6.4 km/h
2662 18-01-2020 06:05:00 3.9 C 5.62 g/m*3 1.41 C 9.7 km/h
2663 18-01-2020 06:10:00 4 C 5.72 g/m*3 1.93 C 8.1 km/h
2664 18-01-2020 06:15:00 4.1 C 5.7 g/m*3 1 C 12.9 km/h
2665 18-01-2020 06:20:00 4.1 C 5.7 g/m*3 2.05 C 8.1 km/h
2666 18-01-2020 06:25:00 4.1 C 5.7 g/m*3 2.55 C 6.4 km/h
2667 18-01-2020 06:30:00 4.1 C 5.7 g/m*3 2.55 C 6.4 km/h
2668 18-01-2020 06:35:00 4 C 5.66 g/m*3 2.44 C 6.4 km/h
2669 18-01-2020 06:40:00 4 C 5.66 g/m*3 2.44 C 6.4 km/h
2670 18-01-2020 06:45:00 4 C 5.66 g/m*3 1.53 C 9.7 km/h
2671 18-01-2020 06:50:00 4.1 C 5.7 g/m*3 1.31 C 11.3 km/h
2672 18-01-2020 06:55:00 4.2 C 5.67 g/m*3 2.17 C 8.1 km/h
2673 18-01-2020 07:00:00 4.2 C 5.67 g/m*3 4.2 C 4.8 km/h
2674 18-01-2020 07:05:00 4.1 C 5.63 g/m*3 2.55 C 6.4 km/h
2675 18-01-2020 07:10:00 4.1 C 5.63 g/m*3 4.1 C 4.8 km/h
Sensor: Nr:Datum:Temp:Abs-Feuchte:Windchill:Wind:
Aussen-T/F 2676 18-01-2020 07:15:00 4 C 5.66 g/m*3 4 C 4.8 km/h
2677 18-01-2020 07:20:00 4 C 5.66 g/m*3 4 C 4.8 km/h
2678 18-01-2020 07:25:00 4 C 5.66 g/m*3 4 C 3.2 km/h
2679 18-01-2020 07:30:00 3.9 C 5.62 g/m*3 3.9 C 4.8 km/h
2680 18-01-2020 07:35:00 3.9 C 5.62 g/m*3 3.9 C 4.8 km/h
2681 18-01-2020 07:40:00 3.9 C 5.62 g/m*3 1.82 C 8.1 km/h
2682 18-01-2020 07:45:00 4.1 C 5.76 g/m*3 4.1 C 3.2 km/h
2683 18-01-2020 07:50:00 4.2 C 5.73 g/m*3 4.2 C 4.8 km/h
2684 18-01-2020 07:55:00 4.2 C 5.73 g/m*3 4.2 C 4.8 km/h
2685 18-01-2020 08:00:00 4.2 C 5.73 g/m*3 2.17 C 8.1 km/h
2686 18-01-2020 08:05:00 4.3 C 5.77 g/m*3 4.3 C 4.8 km/h
2687 18-01-2020 08:10:00 4.3 C 5.77 g/m*3 4.3 C 4.8 km/h
2688 18-01-2020 08:15:00 4.4 C 5.81 g/m*3 2.01 C 9.7 km/h
2689 18-01-2020 08:20:00 4.5 C 5.78 g/m*3 4.5 C 4.8 km/h
2690 18-01-2020 08:25:00 4.4 C 5.75 g/m*3 2.9 C 6.4 km/h
2691 18-01-2020 08:30:00 4.4 C 5.75 g/m*3 4.4 C 1.6 km/h
2692 18-01-2020 08:35:00 4.4 C 5.75 g/m*3 2.9 C 6.4 km/h
2693 18-01-2020 08:40:00 4.3 C 5.71 g/m*3 4.3 C 3.2 km/h
2694 18-01-2020 08:45:00 4.3 C 5.77 g/m*3 1.89 C 9.7 km/h
2695 18-01-2020 08:50:00 4.3 C 5.77 g/m*3 1.55 C 11.3 km/h
2696 18-01-2020 08:55:00 4.3 C 5.77 g/m*3 1.89 C 9.7 km/h
2697 18-01-2020 09:00:00 4.4 C 5.81 g/m*3 1.36 C 12.9 km/h
2698 18-01-2020 09:05:00 4.6 C 5.82 g/m*3 1.34 C 14.5 km/h
2699 18-01-2020 09:10:00 4.6 C 5.82 g/m*3 1.91 C 11.3 km/h
2700 18-01-2020 09:15:00 4.6 C 5.82 g/m*3 2.25 C 9.7 km/h
Sensor: Nr:Datum:Temp:Abs-Feuchte:Windchill:Wind:
Aussen-T/F 2701 18-01-2020 09:20:00 4.6 C 5.82 g/m*3 1.61 C 12.9 km/h
2702 18-01-2020 09:25:00 4.7 C 5.86 g/m*3 2.37 C 9.7 km/h
2703 18-01-2020 09:30:00 4.8 C 5.9 g/m*3 2.15 C 11.3 km/h
2704 18-01-2020 09:35:00 4.8 C 5.83 g/m*3 2.15 C 11.3 km/h
2705 18-01-2020 09:40:00 4.7 C 5.8 g/m*3 2.03 C 11.3 km/h
2706 18-01-2020 09:45:00 4.7 C 5.8 g/m*3 2.76 C 8.1 km/h
2707 18-01-2020 09:50:00 4.7 C 5.86 g/m*3 1.21 C 16.1 km/h
2708 18-01-2020 09:55:00 4.8 C 5.9 g/m*3 3.36 C 6.4 km/h
2709 18-01-2020 10:00:00 4.9 C 5.94 g/m*3 2.99 C 8.1 km/h
2710 18-01-2020 10:05:00 5 C 5.91 g/m*3 5 C 4.8 km/h
2711 18-01-2020 10:10:00 5.1 C 5.95 g/m*3 2.22 C 12.9 km/h
2712 18-01-2020 10:15:00 5.2 C 5.99 g/m*3 2.63 C 11.3 km/h
2713 18-01-2020 10:20:00 5.3 C 5.96 g/m*3 3.46 C 8.1 km/h
2714 18-01-2020 10:25:00 5.3 C 5.96 g/m*3 3.46 C 8.1 km/h
2715 18-01-2020 10:30:00 5.3 C 5.96 g/m*3 3.94 C 6.4 km/h
2716 18-01-2020 10:35:00 5.3 C 5.96 g/m*3 3.46 C 8.1 km/h
2717 18-01-2020 10:40:00 5.3 C 5.96 g/m*3 5.3 C 4.8 km/h
2718 18-01-2020 10:45:00 5.3 C 6.03 g/m*3 3.08 C 9.7 km/h
2719 18-01-2020 10:50:00 5.4 C 6 g/m*3 3.58 C 8.1 km/h
2720 18-01-2020 10:55:00 5.5 C 6.04 g/m*3 2.99 C 11.3 km/h
2721 18-01-2020 11:00:00 5.6 C 6.08 g/m*3 3.11 C 11.3 km/h
2722 18-01-2020 11:05:00 5.6 C 6.01 g/m*3 2.83 C 12.9 km/h
2723 18-01-2020 11:10:00 5.7 C 6.05 g/m*3 2.45 C 16.1 km/h
2724 18-01-2020 11:15:00 5.7 C 6.05 g/m*3 3.23 C 11.3 km/h
2725 18-01-2020 11:20:00 5.7 C 5.98 g/m*3 2.69 C 14.5 km/h
Sensor: Nr:Datum:Temp:Abs-Feuchte:Windchill:Wind:
Aussen-T/F 2726 18-01-2020 11:25:00 5.8 C 6.09 g/m*3 3.68 C 9.7 km/h
2727 18-01-2020 11:30:00 5.8 C 6.09 g/m*3 3.07 C 12.9 km/h
2728 18-01-2020 11:35:00 5.8 C 6.09 g/m*3 3.36 C 11.3 km/h
2729 18-01-2020 11:40:00 5.9 C 6.13 g/m*3 4.63 C 6.4 km/h
2730 18-01-2020 11:45:00 5.9 C 6.13 g/m*3 3.48 C 11.3 km/h
2731 18-01-2020 11:50:00 6 C 6.1 g/m*3 3.6 C 11.3 km/h
2732 18-01-2020 11:55:00 6.1 C 6.14 g/m*3 4.04 C 9.7 km/h
2733 18-01-2020 12:00:00 6.1 C 6.14 g/m*3 3.72 C 11.3 km/h
2734 18-01-2020 12:05:00 6.2 C 6.18 g/m*3 3.84 C 11.3 km/h
2735 18-01-2020 12:10:00 6.2 C 6.18 g/m*3 2.66 C 19.3 km/h
2736 18-01-2020 12:15:00 6.2 C 6.18 g/m*3 4.98 C 6.4 km/h
2737 18-01-2020 12:20:00 6.3 C 6.14 g/m*3 3.68 C 12.9 km/h
2738 18-01-2020 12:25:00 6.3 C 6.14 g/m*3 4.27 C 9.7 km/h
2739 18-01-2020 12:30:00 6.2 C 6.1 g/m*3 4.15 C 9.7 km/h
2740 18-01-2020 12:35:00 6.2 C 6.1 g/m*3 4.15 C 9.7 km/h
2741 18-01-2020 12:40:00 6.2 C 6.1 g/m*3 4.98 C 6.4 km/h
2742 18-01-2020 12:45:00 6.2 C 6.1 g/m*3 3.84 C 11.3 km/h
2743 18-01-2020 12:50:00 6.1 C 6.06 g/m*3 4.86 C 6.4 km/h
2744 18-01-2020 12:55:00 6.2 C 6.1 g/m*3 4.15 C 9.7 km/h
2745 18-01-2020 13:00:00 6.2 C 6.03 g/m*3 3.56 C 12.9 km/h
2746 18-01-2020 13:05:00 6.3 C 6.07 g/m*3 4.64 C 8.1 km/h
2747 18-01-2020 13:10:00 6.3 C 6.07 g/m*3 4.27 C 9.7 km/h
2748 18-01-2020 13:15:00 6.3 C 6.07 g/m*3 4.64 C 8.1 km/h
2749 18-01-2020 13:20:00 6.3 C 6.07 g/m*3 4.64 C 8.1 km/h
2750 18-01-2020 13:25:00 6.3 C 6.07 g/m*3 4.64 C 8.1 km/h
Sensor: Nr:Datum:Temp:Abs-Feuchte:Windchill:Wind:
Aussen-T/F 2751 18-01-2020 13:30:00 6.4 C 6.18 g/m*3 5.21 C 6.4 km/h
2752 18-01-2020 13:35:00 6.4 C 6.26 g/m*3 5.21 C 6.4 km/h
2753 18-01-2020 13:40:00 6.4 C 6.26 g/m*3 4.75 C 8.1 km/h
2754 18-01-2020 13:45:00 6.3 C 6.14 g/m*3 3.43 C 14.5 km/h
2755 18-01-2020 13:50:00 6.3 C 6.14 g/m*3 3.96 C 11.3 km/h
2756 18-01-2020 13:55:00 6.2 C 6.1 g/m*3 4.15 C 9.7 km/h
2757 18-01-2020 14:00:00 6.3 C 6.22 g/m*3 4.64 C 8.1 km/h
2758 18-01-2020 14:05:00 6.2 C 6.1 g/m*3 4.98 C 6.4 km/h
2759 18-01-2020 14:10:00 6.2 C 6.1 g/m*3 4.15 C 9.7 km/h
2760 18-01-2020 14:15:00 6.2 C 6.1 g/m*3 4.98 C 6.4 km/h
2761 18-01-2020 14:20:00 6.1 C 6.06 g/m*3 4.86 C 6.4 km/h
2762 18-01-2020 14:25:00 6.2 C 6.1 g/m*3 3.84 C 11.3 km/h
2763 18-01-2020 14:30:00 6.3 C 6.07 g/m*3 4.27 C 9.7 km/h
2764 18-01-2020 14:35:00 6.4 C 6.11 g/m*3 5.21 C 6.4 km/h
2765 18-01-2020 14:40:00 6.5 C 6.15 g/m*3 5.33 C 6.4 km/h
2766 18-01-2020 14:45:00 6.6 C 6.04 g/m*3 5.44 C 6.4 km/h
2767 18-01-2020 14:50:00 6.7 C 5.93 g/m*3 4.44 C 11.3 km/h
2768 18-01-2020 14:55:00 6.8 C 5.89 g/m*3 4.29 C 12.9 km/h
2769 18-01-2020 15:00:00 6.9 C 5.93 g/m*3 4.68 C 11.3 km/h
2770 18-01-2020 15:05:00 6.9 C 6.08 g/m*3 4.41 C 12.9 km/h
2771 18-01-2020 15:10:00 6.8 C 6.04 g/m*3 4.29 C 12.9 km/h
2772 18-01-2020 15:15:00 6.8 C 6.04 g/m*3 4.56 C 11.3 km/h
2773 18-01-2020 15:20:00 6.8 C 6.12 g/m*3 5.22 C 8.1 km/h
2774 18-01-2020 15:25:00 6.7 C 6.08 g/m*3 5.11 C 8.1 km/h
2775 18-01-2020 15:30:00 6.7 C 6.08 g/m*3 5.56 C 6.4 km/h
Sensor: Nr:Datum:Temp:Abs-Feuchte:Windchill:Wind:
Aussen-T/F 2776 18-01-2020 15:35:00 6.7 C 6.08 g/m*3 5.11 C 8.1 km/h
2777 18-01-2020 15:40:00 6.6 C 6.04 g/m*3 4.32 C 11.3 km/h
2778 18-01-2020 15:45:00 6.6 C 6.11 g/m*3 6.6 C 4.8 km/h
2779 18-01-2020 15:50:00 6.4 C 6.04 g/m*3 6.4 C 4.8 km/h
2780 18-01-2020 15:55:00 6.4 C 6.04 g/m*3 5.21 C 6.4 km/h
2781 18-01-2020 16:00:00 6.3 C 6.07 g/m*3 6.3 C 4.8 km/h
2782 18-01-2020 16:05:00 6.3 C 6.07 g/m*3 4.27 C 9.7 km/h
2783 18-01-2020 16:10:00 6.2 C 6.03 g/m*3 6.2 C 4.8 km/h
2784 18-01-2020 16:15:00 6.1 C 5.99 g/m*3 4.4 C 8.1 km/h
2785 18-01-2020 16:20:00 6 C 5.95 g/m*3 6 C 4.8 km/h
2786 18-01-2020 16:25:00 5.9 C 5.98 g/m*3 5.9 C 4.8 km/h
2787 18-01-2020 16:30:00 5.8 C 5.87 g/m*3 4.52 C 6.4 km/h
2788 18-01-2020 16:35:00 5.7 C 5.84 g/m*3 5.7 C 4.8 km/h
2789 18-01-2020 16:40:00 5.6 C 5.8 g/m*3 5.6 C 3.2 km/h
2790 18-01-2020 16:45:00 5.4 C 5.79 g/m*3 4.06 C 6.4 km/h
2791 18-01-2020 16:50:00 5.3 C 5.75 g/m*3 5.3 C 1.6 km/h
2792 18-01-2020 16:55:00 5.3 C 5.82 g/m*3 3.08 C 9.7 km/h
2793 18-01-2020 17:00:00 5.3 C 5.89 g/m*3 5.3 C 4.8 km/h
2794 18-01-2020 17:05:00 5.2 C 5.85 g/m*3 5.2 C 3.2 km/h
2795 18-01-2020 17:10:00 5.2 C 5.85 g/m*3 5.2 C 4.8 km/h
2796 18-01-2020 17:15:00 5.2 C 5.85 g/m*3 5.2 C 3.2 km/h
2797 18-01-2020 17:20:00 5.2 C 5.85 g/m*3 3.82 C 6.4 km/h
2798 18-01-2020 17:25:00 5.1 C 5.81 g/m*3 5.1 C 4.8 km/h
2799 18-01-2020 17:30:00 4.9 C 5.74 g/m*3 4.9 C 1.6 km/h
2800 18-01-2020 17:35:00 4.8 C 5.7 g/m*3 4.8 C 3.2 km/h
Sensor: Nr:Datum:Temp:Abs-Feuchte:Windchill:Wind:
Aussen-T/F 2801 18-01-2020 17:40:00 4.6 C 5.69 g/m*3 4.6 C 3.2 km/h
2802 18-01-2020 17:45:00 4.5 C 5.65 g/m*3 4.5 C 3.2 km/h
2803 18-01-2020 17:50:00 4.3 C 5.58 g/m*3 4.3 C 4.8 km/h
2804 18-01-2020 17:55:00 4.3 C 5.58 g/m*3 4.3 C 3.2 km/h
2805 18-01-2020 18:00:00 4.2 C 5.61 g/m*3 4.2 C 3.2 km/h
2806 18-01-2020 18:05:00 4 C 5.53 g/m*3 4 C 3.2 km/h
2807 18-01-2020 18:10:00 3.8 C 5.46 g/m*3 3.8 C 1.6 km/h
2808 18-01-2020 18:15:00 3.7 C 5.42 g/m*3 3.7 C 1.6 km/h
2809 18-01-2020 18:20:00 3.6 C 5.45 g/m*3 3.6 C 1.6 km/h
2810 18-01-2020 18:25:00 3.4 C 5.37 g/m*3 3.4 C 3.2 km/h
2811 18-01-2020 18:30:00 3.3 C 5.4 g/m*3 3.3 C 1.6 km/h
2812 18-01-2020 18:35:00 3.2 C 5.42 g/m*3 3.2 C 1.6 km/h
2813 18-01-2020 18:40:00 3.2 C 5.42 g/m*3 3.2 C 3.2 km/h
2814 18-01-2020 18:45:00 3.3 C 5.46 g/m*3 1.11 C 8.1 km/h
2815 18-01-2020 18:50:00 3.4 C 5.5 g/m*3 3.4 C 4.8 km/h
2816 18-01-2020 18:55:00 3.6 C 5.57 g/m*3 3.6 C 4.8 km/h
2817 18-01-2020 19:00:00 3.6 C 5.51 g/m*3 3.6 C 3.2 km/h
2818 18-01-2020 19:05:00 3.5 C 5.41 g/m*3 3.5 C 1.6 km/h
2819 18-01-2020 19:10:00 3.3 C 5.34 g/m*3 3.3 C 0 km/h
2820 18-01-2020 19:15:00 3.2 C 5.3 g/m*3 3.2 C 1.6 km/h
2821 18-01-2020 19:20:00 3 C 5.23 g/m*3 3 C 1.6 km/h
2822 18-01-2020 19:25:00 2.8 C 5.22 g/m*3 2.8 C 0 km/h
2823 18-01-2020 19:30:00 2.7 C 5.24 g/m*3 2.7 C 0 km/h
2824 18-01-2020 19:35:00 2.6 C 5.21 g/m*3 2.6 C 0 km/h
2825 18-01-2020 19:40:00 2.4 C 5.14 g/m*3 2.4 C 1.6 km/h
Sensor: Nr:Datum:Temp:Abs-Feuchte:Windchill:Wind:
Aussen-T/F 2826 18-01-2020 19:45:00 2.3 C 5.16 g/m*3 2.3 C 1.6 km/h
2827 18-01-2020 19:50:00 2.3 C 5.16 g/m*3 2.3 C 0 km/h
2828 18-01-2020 19:55:00 2.2 C 5.13 g/m*3 2.2 C 0 km/h
2829 18-01-2020 20:00:00 2.2 C 5.13 g/m*3 2.2 C 0 km/h
2830 18-01-2020 20:05:00 2.1 C 5.09 g/m*3 2.1 C 0 km/h
2831 18-01-2020 20:10:00 1.9 C 5.02 g/m*3 1.9 C 3.2 km/h
2832 18-01-2020 20:15:00 1.8 C 4.99 g/m*3 1.8 C 3.2 km/h
2833 18-01-2020 20:20:00 1.7 C 5.01 g/m*3 1.7 C 0 km/h
2834 18-01-2020 20:25:00 1.6 C 4.97 g/m*3 1.6 C 1.6 km/h
2835 18-01-2020 20:30:00 1.6 C 4.97 g/m*3 1.6 C 3.2 km/h
2836 18-01-2020 20:35:00 1.5 C 4.94 g/m*3 1.5 C 0 km/h
2837 18-01-2020 20:40:00 1.4 C 4.91 g/m*3 1.4 C 0 km/h
2838 18-01-2020 20:45:00 1.4 C 4.91 g/m*3 1.4 C 0 km/h
2839 18-01-2020 20:50:00 1.3 C 4.87 g/m*3 1.3 C 0 km/h
2840 18-01-2020 20:55:00 1.3 C 4.93 g/m*3 1.3 C 0 km/h
2841 18-01-2020 21:00:00 1.2 C 4.89 g/m*3 1.2 C 0 km/h
2842 18-01-2020 21:05:00 1.3 C 4.93 g/m*3 1.3 C 0 km/h
2843 18-01-2020 21:10:00 1.3 C 4.93 g/m*3 1.3 C 0 km/h
2844 18-01-2020 21:15:00 1.4 C 5.01 g/m*3 1.4 C 1.6 km/h
2845 18-01-2020 21:20:00 1.6 C 5.08 g/m*3 1.6 C 0 km/h
2846 18-01-2020 21:25:00 1.7 C 5.12 g/m*3 1.7 C 1.6 km/h
2847 18-01-2020 21:30:00 1.8 C 5.15 g/m*3 1.8 C 0 km/h
2848 18-01-2020 21:35:00 1.9 C 5.19 g/m*3 1.9 C 1.6 km/h
2849 18-01-2020 21:40:00 2 C 5.22 g/m*3 2 C 0 km/h
2850 18-01-2020 21:45:00 2.1 C 5.26 g/m*3 2.1 C 3.2 km/h
Sensor: Nr:Datum:Temp:Abs-Feuchte:Windchill:Wind:
Aussen-T/F 2851 18-01-2020 21:50:00 2.2 C 5.29 g/m*3 0.36 C 6.4 km/h
2852 18-01-2020 21:55:00 2.2 C 5.29 g/m*3 2.2 C 1.6 km/h
2853 18-01-2020 22:00:00 2.2 C 5.24 g/m*3 2.2 C 0 km/h
2854 18-01-2020 22:05:00 2.2 C 5.24 g/m*3 2.2 C 0 km/h
2855 18-01-2020 22:10:00 2.1 C 5.2 g/m*3 2.1 C 0 km/h
2856 18-01-2020 22:15:00 2.1 C 5.2 g/m*3 2.1 C 1.6 km/h
2857 18-01-2020 22:20:00 2.1 C 5.2 g/m*3 2.1 C 1.6 km/h
2858 18-01-2020 22:25:00 2 C 5.17 g/m*3 2 C 3.2 km/h
2859 18-01-2020 22:30:00 2.1 C 5.2 g/m*3 2.1 C 4.8 km/h
2860 18-01-2020 22:35:00 2.2 C 5.24 g/m*3 -0.18 C 8.1 km/h
2861 18-01-2020 22:40:00 2.3 C 5.27 g/m*3 2.3 C 0 km/h
2862 18-01-2020 22:45:00 2.4 C 5.31 g/m*3 2.4 C 3.2 km/h
2863 18-01-2020 22:50:00 2.5 C 5.35 g/m*3 0.71 C 6.4 km/h
2864 18-01-2020 22:55:00 2.6 C 5.38 g/m*3 2.6 C 4.8 km/h
2865 18-01-2020 23:00:00 2.7 C 5.42 g/m*3 2.7 C 3.2 km/h
2866 18-01-2020 23:05:00 2.7 C 5.42 g/m*3 2.7 C 3.2 km/h
2867 18-01-2020 23:10:00 2.8 C 5.4 g/m*3 2.8 C 0 km/h
2868 18-01-2020 23:15:00 2.9 C 5.43 g/m*3 2.9 C 3.2 km/h
2869 18-01-2020 23:20:00 2.9 C 5.43 g/m*3 2.9 C 3.2 km/h
2870 18-01-2020 23:25:00 3.1 C 5.51 g/m*3 0.87 C 8.1 km/h
2871 18-01-2020 23:30:00 3.3 C 5.58 g/m*3 3.3 C 3.2 km/h
2872 18-01-2020 23:35:00 3.4 C 5.62 g/m*3 3.4 C 4.8 km/h
2873 18-01-2020 23:40:00 3.5 C 5.6 g/m*3 3.5 C 3.2 km/h
2874 18-01-2020 23:45:00 3.6 C 5.63 g/m*3 3.6 C 4.8 km/h
2875 18-01-2020 23:50:00 3.6 C 5.69 g/m*3 1.98 C 6.4 km/h
Sensor: Nr:Datum:Temp:Abs-Feuchte:Windchill:Wind:
Aussen-T/F 2876 18-01-2020 23:55:00 3.6 C 5.63 g/m*3 3.6 C 4.8 km/h
2877 19-01-2020 00:00:00 3.5 C 5.6 g/m*3 3.5 C 3.2 km/h
2878 19-01-2020 00:05:00 3.4 C 5.56 g/m*3 3.4 C 1.6 km/h
2879 19-01-2020 00:10:00 3.3 C 5.58 g/m*3 3.3 C 1.6 km/h
2880 19-01-2020 00:15:00 3.3 C 5.58 g/m*3 3.3 C 3.2 km/h
2881 19-01-2020 00:20:00 3.3 C 5.64 g/m*3 3.3 C 0 km/h
2882 19-01-2020 00:25:00 3.3 C 5.64 g/m*3 3.3 C 1.6 km/h
2883 19-01-2020 00:30:00 3.3 C 5.64 g/m*3 3.3 C 0 km/h
2884 19-01-2020 00:35:00 3.3 C 5.64 g/m*3 3.3 C 1.6 km/h
2885 19-01-2020 00:40:00 3.3 C 5.64 g/m*3 1.63 C 6.4 km/h
2886 19-01-2020 00:45:00 3.3 C 5.64 g/m*3 0.34 C 11.3 km/h
2887 19-01-2020 00:50:00 3.3 C 5.64 g/m*3 3.3 C 0 km/h
2888 19-01-2020 00:55:00 3.3 C 5.64 g/m*3 3.3 C 0 km/h
2889 19-01-2020 01:00:00 3.3 C 5.64 g/m*3 3.3 C 1.6 km/h
2890 19-01-2020 01:05:00 3.3 C 5.64 g/m*3 0.7 C 9.7 km/h
2891 19-01-2020 01:10:00 3.3 C 5.64 g/m*3 3.3 C 3.2 km/h
2892 19-01-2020 01:15:00 3.3 C 5.64 g/m*3 3.3 C 1.6 km/h
2893 19-01-2020 01:20:00 3.3 C 5.64 g/m*3 1.11 C 8.1 km/h
2894 19-01-2020 01:25:00 3.2 C 5.6 g/m*3 3.2 C 0 km/h
2895 19-01-2020 01:30:00 3.2 C 5.6 g/m*3 3.2 C 1.6 km/h
2896 19-01-2020 01:35:00 3.1 C 5.57 g/m*3 3.1 C 3.2 km/h
2897 19-01-2020 01:40:00 3.1 C 5.57 g/m*3 3.1 C 0 km/h
2898 19-01-2020 01:45:00 3.1 C 5.63 g/m*3 3.1 C 0 km/h
2899 19-01-2020 01:50:00 3 C 5.59 g/m*3 3 C 0 km/h
2900 19-01-2020 01:55:00 3 C 5.59 g/m*3 3 C 0 km/h
Sensor: Nr:Datum:Temp:Abs-Feuchte:Windchill:Wind:
Aussen-T/F 2901 19-01-2020 02:00:00 2.9 C 5.55 g/m*3 2.9 C 0 km/h
2902 19-01-2020 02:05:00 2.9 C 5.55 g/m*3 2.9 C 0 km/h
2903 19-01-2020 02:10:00 2.9 C 5.55 g/m*3 2.9 C 3.2 km/h
2904 19-01-2020 02:15:00 2.9 C 5.55 g/m*3 2.9 C 1.6 km/h
2905 19-01-2020 02:20:00 2.9 C 5.55 g/m*3 2.9 C 0 km/h
2906 19-01-2020 02:25:00 2.9 C 5.55 g/m*3 2.9 C 3.2 km/h
2907 19-01-2020 02:30:00 2.8 C 5.57 g/m*3 2.8 C 1.6 km/h
2908 19-01-2020 02:35:00 2.8 C 5.57 g/m*3 2.8 C 1.6 km/h
2909 19-01-2020 02:40:00 2.8 C 5.51 g/m*3 2.8 C 0 km/h
2910 19-01-2020 02:45:00 2.8 C 5.51 g/m*3 2.8 C 0 km/h
2911 19-01-2020 02:50:00 2.7 C 5.48 g/m*3 2.7 C 0 km/h
2912 19-01-2020 02:55:00 2.7 C 5.54 g/m*3 2.7 C 0 km/h
2913 19-01-2020 03:00:00 2.7 C 5.54 g/m*3 2.7 C 0 km/h
2914 19-01-2020 03:05:00 2.7 C 5.54 g/m*3 2.7 C 4.8 km/h
2915 19-01-2020 03:10:00 2.7 C 5.54 g/m*3 2.7 C 3.2 km/h
2916 19-01-2020 03:15:00 2.8 C 5.57 g/m*3 2.8 C 0 km/h
2917 19-01-2020 03:20:00 2.8 C 5.57 g/m*3 2.8 C 0 km/h
2918 19-01-2020 03:25:00 2.8 C 5.57 g/m*3 2.8 C 0 km/h
2919 19-01-2020 03:30:00 2.9 C 5.61 g/m*3 2.9 C 0 km/h
2920 19-01-2020 03:35:00 2.9 C 5.61 g/m*3 2.9 C 0 km/h
2921 19-01-2020 03:40:00 2.9 C 5.61 g/m*3 2.9 C 1.6 km/h
2922 19-01-2020 03:45:00 2.9 C 5.61 g/m*3 2.9 C 0 km/h
2923 19-01-2020 03:50:00 3 C 5.65 g/m*3 3 C 0 km/h
2924 19-01-2020 03:55:00 3 C 5.65 g/m*3 3 C 0 km/h
2925 19-01-2020 04:00:00 3 C 5.65 g/m*3 3 C 0 km/h
Sensor: Nr:Datum:Temp:Abs-Feuchte:Windchill:Wind:
Aussen-T/F 2926 19-01-2020 04:05:00 3 C 5.65 g/m*3 3 C 0 km/h
2927 19-01-2020 04:10:00 3 C 5.65 g/m*3 3 C 0 km/h
2928 19-01-2020 04:15:00 3.1 C 5.69 g/m*3 3.1 C 0 km/h
2929 19-01-2020 04:20:00 3.1 C 5.75 g/m*3 3.1 C 0 km/h
2930 19-01-2020 04:25:00 3.1 C 5.75 g/m*3 3.1 C 0 km/h
2931 19-01-2020 04:30:00 3.1 C 5.75 g/m*3 3.1 C 0 km/h
2932 19-01-2020 04:35:00 3.1 C 5.75 g/m*3 3.1 C 0 km/h
2933 19-01-2020 04:40:00 3 C 5.71 g/m*3 3 C 1.6 km/h
2934 19-01-2020 04:45:00 3 C 5.71 g/m*3 3 C 0 km/h
2935 19-01-2020 04:50:00 2.9 C 5.67 g/m*3 2.9 C 3.2 km/h
2936 19-01-2020 04:55:00 2.9 C 5.67 g/m*3 2.9 C 1.6 km/h
2937 19-01-2020 05:00:00 2.9 C 5.67 g/m*3 2.9 C 0 km/h
2938 19-01-2020 05:05:00 2.9 C 5.67 g/m*3 2.9 C 0 km/h
2939 19-01-2020 05:10:00 2.9 C 5.67 g/m*3 2.9 C 0 km/h
2940 19-01-2020 05:15:00 2.9 C 5.67 g/m*3 2.9 C 0 km/h
2941 19-01-2020 05:20:00 3 C 5.71 g/m*3 3 C 0 km/h
2942 19-01-2020 05:25:00 3 C 5.71 g/m*3 3 C 0 km/h
2943 19-01-2020 05:30:00 3 C 5.71 g/m*3 3 C 0 km/h
2944 19-01-2020 05:35:00 3.1 C 5.75 g/m*3 3.1 C 0 km/h
2945 19-01-2020 05:40:00 3.1 C 5.75 g/m*3 3.1 C 0 km/h
2946 19-01-2020 05:45:00 3.1 C 5.75 g/m*3 3.1 C 0 km/h
2947 19-01-2020 05:50:00 3.1 C 5.75 g/m*3 3.1 C 1.6 km/h
2948 19-01-2020 05:55:00 3.1 C 5.75 g/m*3 3.1 C 4.8 km/h
2949 19-01-2020 06:00:00 3.1 C 5.75 g/m*3 3.1 C 0 km/h
2950 19-01-2020 06:05:00 3.1 C 5.75 g/m*3 3.1 C 0 km/h
Sensor: Nr:Datum:Temp:Abs-Feuchte:Windchill:Wind:
Aussen-T/F 2951 19-01-2020 06:10:00 3.1 C 5.75 g/m*3 3.1 C 0 km/h
2952 19-01-2020 06:15:00 3.1 C 5.75 g/m*3 3.1 C 0 km/h
2953 19-01-2020 06:20:00 3.1 C 5.75 g/m*3 3.1 C 0 km/h
2954 19-01-2020 06:25:00 3.1 C 5.75 g/m*3 3.1 C 0 km/h
2955 19-01-2020 06:30:00 3.1 C 5.75 g/m*3 3.1 C 0 km/h
2956 19-01-2020 06:35:00 3.1 C 5.75 g/m*3 3.1 C 0 km/h
2957 19-01-2020 06:40:00 3.1 C 5.75 g/m*3 3.1 C 0 km/h
2958 19-01-2020 06:45:00 3.1 C 5.75 g/m*3 3.1 C 0 km/h
2959 19-01-2020 06:50:00 3.1 C 5.75 g/m*3 3.1 C 0 km/h
2960 19-01-2020 06:55:00 3.1 C 5.75 g/m*3 3.1 C 0 km/h
2961 19-01-2020 07:00:00 3.1 C 5.75 g/m*3 3.1 C 0 km/h
2962 19-01-2020 07:05:00 3.1 C 5.75 g/m*3 3.1 C 1.6 km/h
2963 19-01-2020 07:10:00 3.2 C 5.79 g/m*3 3.2 C 0 km/h
2964 19-01-2020 07:15:00 3.2 C 5.79 g/m*3 3.2 C 0 km/h
2965 19-01-2020 07:20:00 3.2 C 5.79 g/m*3 3.2 C 0 km/h
2966 19-01-2020 07:25:00 3.2 C 5.79 g/m*3 3.2 C 0 km/h
2967 19-01-2020 07:30:00 3.2 C 5.79 g/m*3 3.2 C 0 km/h
2968 19-01-2020 07:35:00 3.2 C 5.79 g/m*3 3.2 C 0 km/h
2969 19-01-2020 07:40:00 3.2 C 5.79 g/m*3 3.2 C 1.6 km/h
2970 19-01-2020 07:45:00 3.2 C 5.79 g/m*3 3.2 C 0 km/h
2971 19-01-2020 07:50:00 3.2 C 5.79 g/m*3 3.2 C 1.6 km/h
2972 19-01-2020 07:55:00 3.2 C 5.79 g/m*3 3.2 C 4.8 km/h
2973 19-01-2020 08:00:00 3.2 C 5.79 g/m*3 3.2 C 0 km/h
2974 19-01-2020 08:05:00 3.2 C 5.79 g/m*3 3.2 C 0 km/h
2975 19-01-2020 08:10:00 3.2 C 5.79 g/m*3 3.2 C 0 km/h
Sensor: Nr:Datum:Temp:Abs-Feuchte:Windchill:Wind:
Aussen-T/F 2976 19-01-2020 08:15:00 3.2 C 5.79 g/m*3 3.2 C 1.6 km/h
2977 19-01-2020 08:20:00 3.2 C 5.79 g/m*3 3.2 C 0 km/h
2978 19-01-2020 08:25:00 3.2 C 5.79 g/m*3 3.2 C 0 km/h
2979 19-01-2020 08:30:00 3.2 C 5.79 g/m*3 3.2 C 1.6 km/h
2980 19-01-2020 08:35:00 3.3 C 5.82 g/m*3 3.3 C 3.2 km/h
2981 19-01-2020 08:40:00 3.3 C 5.82 g/m*3 3.3 C 0 km/h
2982 19-01-2020 08:45:00 3.3 C 5.82 g/m*3 1.63 C 6.4 km/h
2983 19-01-2020 08:50:00 3.3 C 5.82 g/m*3 3.3 C 4.8 km/h
2984 19-01-2020 08:55:00 3.3 C 5.82 g/m*3 3.3 C 0 km/h
2985 19-01-2020 09:00:00 3.3 C 5.82 g/m*3 1.11 C 8.1 km/h
2986 19-01-2020 09:05:00 3.3 C 5.82 g/m*3 3.3 C 0 km/h
2987 19-01-2020 09:10:00 3.3 C 5.82 g/m*3 3.3 C 0 km/h
2988 19-01-2020 09:15:00 3.4 C 5.86 g/m*3 3.4 C 0 km/h
2989 19-01-2020 09:20:00 3.4 C 5.86 g/m*3 3.4 C 3.2 km/h
2990 19-01-2020 09:25:00 3.4 C 5.86 g/m*3 3.4 C 3.2 km/h
2991 19-01-2020 09:30:00 3.4 C 5.86 g/m*3 3.4 C 4.8 km/h
2992 19-01-2020 09:35:00 3.4 C 5.86 g/m*3 3.4 C 4.8 km/h
2993 19-01-2020 09:40:00 3.4 C 5.86 g/m*3 3.4 C 1.6 km/h
2994 19-01-2020 09:45:00 3.4 C 5.86 g/m*3 3.4 C 0 km/h
2995 19-01-2020 09:50:00 3.5 C 5.84 g/m*3 3.5 C 4.8 km/h
2996 19-01-2020 09:55:00 3.5 C 5.84 g/m*3 3.5 C 1.6 km/h
2997 19-01-2020 10:00:00 3.5 C 5.84 g/m*3 1.86 C 6.4 km/h
2998 19-01-2020 10:05:00 3.6 C 5.88 g/m*3 3.6 C 3.2 km/h
2999 19-01-2020 10:10:00 3.6 C 5.88 g/m*3 1.98 C 6.4 km/h
3000 19-01-2020 10:15:00 3.5 C 5.84 g/m*3 1.86 C 6.4 km/h
Sensor: Nr:Datum:Temp:Abs-Feuchte:Windchill:Wind:
Aussen-T/F 3001 19-01-2020 10:20:00 3.6 C 5.88 g/m*3 1.98 C 6.4 km/h
3002 19-01-2020 10:25:00 3.6 C 5.88 g/m*3 1.46 C 8.1 km/h
3003 19-01-2020 10:30:00 3.6 C 5.82 g/m*3 3.6 C 4.8 km/h
3004 19-01-2020 10:35:00 3.7 C 5.86 g/m*3 3.7 C 4.8 km/h
3005 19-01-2020 10:40:00 3.7 C 5.86 g/m*3 3.7 C 4.8 km/h
3006 19-01-2020 10:45:00 3.7 C 5.86 g/m*3 3.7 C 3.2 km/h
3007 19-01-2020 10:50:00 3.8 C 5.9 g/m*3 3.8 C 1.6 km/h
3008 19-01-2020 10:55:00 3.8 C 5.9 g/m*3 3.8 C 0 km/h
3009 19-01-2020 11:00:00 3.9 C 5.94 g/m*3 3.9 C 3.2 km/h
3010 19-01-2020 11:05:00 3.9 C 5.94 g/m*3 2.32 C 6.4 km/h
3011 19-01-2020 11:10:00 3.9 C 5.87 g/m*3 1.82 C 8.1 km/h
3012 19-01-2020 11:15:00 3.9 C 5.94 g/m*3 3.9 C 4.8 km/h
3013 19-01-2020 11:20:00 3.9 C 5.87 g/m*3 3.9 C 3.2 km/h
3014 19-01-2020 11:25:00 3.9 C 5.87 g/m*3 3.9 C 4.8 km/h
3015 19-01-2020 11:30:00 4 C 5.91 g/m*3 4 C 3.2 km/h
3016 19-01-2020 11:35:00 4 C 5.91 g/m*3 4 C 3.2 km/h
3017 19-01-2020 11:40:00 4.1 C 5.95 g/m*3 4.1 C 3.2 km/h
3018 19-01-2020 11:45:00 4.1 C 5.95 g/m*3 4.1 C 1.6 km/h
3019 19-01-2020 11:50:00 4.2 C 5.99 g/m*3 4.2 C 3.2 km/h
3020 19-01-2020 11:55:00 4.2 C 5.99 g/m*3 4.2 C 4.8 km/h
3021 19-01-2020 12:00:00 4.2 C 5.99 g/m*3 4.2 C 3.2 km/h
3022 19-01-2020 12:05:00 4.2 C 5.99 g/m*3 4.2 C 1.6 km/h
3023 19-01-2020 12:10:00 4.3 C 6.03 g/m*3 4.3 C 1.6 km/h
3024 19-01-2020 12:15:00 4.3 C 6.03 g/m*3 4.3 C 0 km/h
3025 19-01-2020 12:20:00 4.3 C 6.03 g/m*3 4.3 C 0 km/h
Sensor: Nr:Datum:Temp:Abs-Feuchte:Windchill:Wind:
Aussen-T/F 3026 19-01-2020 12:25:00 4.2 C 5.93 g/m*3 4.2 C 0 km/h
3027 19-01-2020 12:30:00 4.3 C 6.03 g/m*3 4.3 C 0 km/h
3028 19-01-2020 12:35:00 4.3 C 6.03 g/m*3 4.3 C 4.8 km/h
3029 19-01-2020 12:40:00 4.3 C 6.03 g/m*3 4.3 C 1.6 km/h
3030 19-01-2020 12:45:00 4.3 C 6.03 g/m*3 4.3 C 3.2 km/h
3031 19-01-2020 12:50:00 4.4 C 6.07 g/m*3 4.4 C 0 km/h
3032 19-01-2020 12:55:00 4.4 C 6.07 g/m*3 4.4 C 1.6 km/h
3033 19-01-2020 13:00:00 4.4 C 6.01 g/m*3 4.4 C 4.8 km/h
3034 19-01-2020 13:05:00 4.4 C 6.01 g/m*3 4.4 C 0 km/h
3035 19-01-2020 13:10:00 4.4 C 6.01 g/m*3 4.4 C 4.8 km/h
3036 19-01-2020 13:15:00 4.5 C 6.05 g/m*3 4.5 C 3.2 km/h
3037 19-01-2020 13:20:00 4.5 C 6.05 g/m*3 3.02 C 6.4 km/h
3038 19-01-2020 13:25:00 4.5 C 6.05 g/m*3 3.02 C 6.4 km/h
3039 19-01-2020 13:30:00 4.5 C 6.05 g/m*3 2.52 C 8.1 km/h
3040 19-01-2020 13:35:00 4.5 C 6.05 g/m*3 4.5 C 3.2 km/h
3041 19-01-2020 13:40:00 4.5 C 6.05 g/m*3 4.5 C 1.6 km/h
3042 19-01-2020 13:45:00 4.6 C 6.09 g/m*3 4.6 C 3.2 km/h
3043 19-01-2020 13:50:00 4.6 C 6.09 g/m*3 4.6 C 1.6 km/h
3044 19-01-2020 13:55:00 4.6 C 6.09 g/m*3 4.6 C 1.6 km/h
3045 19-01-2020 14:00:00 4.7 C 6.13 g/m*3 4.7 C 1.6 km/h
3046 19-01-2020 14:05:00 4.8 C 6.17 g/m*3 4.8 C 0 km/h
3047 19-01-2020 14:10:00 4.8 C 6.17 g/m*3 4.8 C 1.6 km/h
3048 19-01-2020 14:15:00 4.8 C 6.1 g/m*3 4.8 C 1.6 km/h
3049 19-01-2020 14:20:00 4.9 C 6.21 g/m*3 4.9 C 3.2 km/h
3050 19-01-2020 14:25:00 4.9 C 6.14 g/m*3 4.9 C 3.2 km/h
Sensor: Nr:Datum:Temp:Abs-Feuchte:Windchill:Wind:
Aussen-T/F 3051 19-01-2020 14:30:00 4.9 C 6.14 g/m*3 2.99 C 8.1 km/h
3052 19-01-2020 14:35:00 4.9 C 6.08 g/m*3 4.9 C 4.8 km/h
3053 19-01-2020 14:40:00 4.9 C 6.08 g/m*3 4.9 C 4.8 km/h
3054 19-01-2020 14:45:00 4.9 C 6.08 g/m*3 2.99 C 8.1 km/h
3055 19-01-2020 14:50:00 4.9 C 6.08 g/m*3 3.48 C 6.4 km/h
3056 19-01-2020 14:55:00 5 C 6.12 g/m*3 3.59 C 6.4 km/h
3057 19-01-2020 15:00:00 4.9 C 6.08 g/m*3 3.48 C 6.4 km/h
3058 19-01-2020 15:05:00 4.9 C 6.08 g/m*3 4.9 C 4.8 km/h
3059 19-01-2020 15:10:00 4.9 C 6.08 g/m*3 4.9 C 4.8 km/h
3060 19-01-2020 15:15:00 4.9 C 6.08 g/m*3 4.9 C 3.2 km/h
3061 19-01-2020 15:20:00 5 C 6.05 g/m*3 5 C 4.8 km/h
3062 19-01-2020 15:25:00 5 C 6.05 g/m*3 5 C 4.8 km/h
3063 19-01-2020 15:30:00 5 C 6.12 g/m*3 5 C 4.8 km/h
3064 19-01-2020 15:35:00 5.1 C 6.09 g/m*3 3.23 C 8.1 km/h
3065 19-01-2020 15:40:00 5.1 C 6.09 g/m*3 5.1 C 4.8 km/h
3066 19-01-2020 15:45:00 5.1 C 6.09 g/m*3 5.1 C 3.2 km/h
3067 19-01-2020 15:50:00 5.1 C 6.09 g/m*3 3.71 C 6.4 km/h
3068 19-01-2020 15:55:00 5.1 C 6.09 g/m*3 2.84 C 9.7 km/h
3069 19-01-2020 16:00:00 5.1 C 6.09 g/m*3 3.71 C 6.4 km/h
3070 19-01-2020 16:05:00 5.1 C 6.09 g/m*3 5.1 C 4.8 km/h
3071 19-01-2020 16:10:00 5.1 C 6.09 g/m*3 5.1 C 4.8 km/h
3072 19-01-2020 16:15:00 5 C 6.05 g/m*3 5 C 4.8 km/h
3073 19-01-2020 16:20:00 5 C 6.05 g/m*3 5 C 3.2 km/h
3074 19-01-2020 16:25:00 5 C 6.12 g/m*3 5 C 1.6 km/h
3075 19-01-2020 16:30:00 5 C 6.12 g/m*3 5 C 0 km/h
Sensor: Nr:Datum:Temp:Abs-Feuchte:Windchill:Wind:
Aussen-T/F 3076 19-01-2020 16:35:00 5 C 6.12 g/m*3 5 C 4.8 km/h
3077 19-01-2020 16:40:00 4.9 C 6.08 g/m*3 2.99 C 8.1 km/h
3078 19-01-2020 16:45:00 4.9 C 6.14 g/m*3 4.9 C 3.2 km/h
3079 19-01-2020 16:50:00 4.8 C 6.1 g/m*3 4.8 C 0 km/h
3080 19-01-2020 16:55:00 4.8 C 6.17 g/m*3 4.8 C 0 km/h
3081 19-01-2020 17:00:00 4.8 C 6.17 g/m*3 4.8 C 3.2 km/h
3082 19-01-2020 17:05:00 4.7 C 6.13 g/m*3 4.7 C 0 km/h
3083 19-01-2020 17:10:00 4.6 C 6.09 g/m*3 4.6 C 0 km/h
3084 19-01-2020 17:15:00 4.6 C 6.09 g/m*3 4.6 C 0 km/h
3085 19-01-2020 17:20:00 4.6 C 6.15 g/m*3 4.6 C 0 km/h
3086 19-01-2020 17:25:00 4.5 C 6.11 g/m*3 4.5 C 0 km/h
3087 19-01-2020 17:30:00 4.4 C 6.07 g/m*3 4.4 C 0 km/h
3088 19-01-2020 17:35:00 4.4 C 6.07 g/m*3 4.4 C 0 km/h
3089 19-01-2020 17:40:00 4.3 C 6.03 g/m*3 4.3 C 0 km/h
3090 19-01-2020 17:45:00 4.3 C 6.1 g/m*3 4.3 C 3.2 km/h
3091 19-01-2020 17:50:00 4.3 C 6.1 g/m*3 4.3 C 0 km/h
3092 19-01-2020 17:55:00 4.3 C 6.1 g/m*3 4.3 C 1.6 km/h
3093 19-01-2020 18:00:00 4.3 C 6.1 g/m*3 4.3 C 1.6 km/h
3094 19-01-2020 18:05:00 4.3 C 6.1 g/m*3 4.3 C 3.2 km/h
3095 19-01-2020 18:10:00 4.3 C 6.1 g/m*3 4.3 C 3.2 km/h
3096 19-01-2020 18:15:00 4.3 C 6.16 g/m*3 4.3 C 1.6 km/h
3097 19-01-2020 18:20:00 4.2 C 6.12 g/m*3 4.2 C 0 km/h
3098 19-01-2020 18:25:00 4.2 C 6.12 g/m*3 4.2 C 0 km/h
3099 19-01-2020 18:30:00 4.2 C 6.12 g/m*3 4.2 C 0 km/h
3100 19-01-2020 18:35:00 4.2 C 6.12 g/m*3 4.2 C 1.6 km/h
Sensor: Nr:Datum:Temp:Abs-Feuchte:Windchill:Wind:
Aussen-T/F 3101 19-01-2020 18:40:00 4.2 C 6.12 g/m*3 4.2 C 0 km/h
3102 19-01-2020 18:45:00 4.2 C 6.12 g/m*3 4.2 C 1.6 km/h
3103 19-01-2020 18:50:00 4.2 C 6.12 g/m*3 4.2 C 0 km/h
3104 19-01-2020 18:55:00 4.2 C 6.12 g/m*3 4.2 C 0 km/h
3105 19-01-2020 19:00:00 4.2 C 6.12 g/m*3 4.2 C 0 km/h
3106 19-01-2020 19:05:00 4.2 C 6.12 g/m*3 4.2 C 3.2 km/h
3107 19-01-2020 19:10:00 4.2 C 6.12 g/m*3 4.2 C 3.2 km/h
3108 19-01-2020 19:15:00 4.2 C 6.12 g/m*3 4.2 C 1.6 km/h
3109 19-01-2020 19:20:00 4.2 C 6.12 g/m*3 4.2 C 4.8 km/h
3110 19-01-2020 19:25:00 4.2 C 6.19 g/m*3 4.2 C 0 km/h
3111 19-01-2020 19:30:00 4.2 C 6.12 g/m*3 4.2 C 0 km/h
3112 19-01-2020 19:35:00 4.2 C 6.19 g/m*3 4.2 C 0 km/h
3113 19-01-2020 19:40:00 4.2 C 6.19 g/m*3 4.2 C 0 km/h
3114 19-01-2020 19:45:00 4.2 C 6.19 g/m*3 4.2 C 0 km/h
3115 19-01-2020 19:50:00 4.2 C 6.19 g/m*3 4.2 C 0 km/h
3116 19-01-2020 19:55:00 4.2 C 6.19 g/m*3 4.2 C 0 km/h
3117 19-01-2020 20:00:00 4.2 C 6.19 g/m*3 4.2 C 0 km/h
3118 19-01-2020 20:05:00 4.1 C 6.08 g/m*3 4.1 C 0 km/h
3119 19-01-2020 20:10:00 4.1 C 6.08 g/m*3 4.1 C 0 km/h
3120 19-01-2020 20:15:00 4.1 C 6.08 g/m*3 4.1 C 0 km/h
3121 19-01-2020 20:20:00 4.1 C 6.14 g/m*3 4.1 C 0 km/h
3122 19-01-2020 20:25:00 4.1 C 6.14 g/m*3 4.1 C 0 km/h
3123 19-01-2020 20:30:00 4.1 C 6.14 g/m*3 4.1 C 0 km/h
3124 19-01-2020 20:35:00 4.1 C 6.14 g/m*3 4.1 C 0 km/h
3125 19-01-2020 20:40:00 4.1 C 6.14 g/m*3 4.1 C 0 km/h
Sensor: Nr:Datum:Temp:Abs-Feuchte:Windchill:Wind:
Aussen-T/F 3126 19-01-2020 20:45:00 4.1 C 6.14 g/m*3 4.1 C 0 km/h
3127 19-01-2020 20:50:00 4.1 C 6.14 g/m*3 4.1 C 0 km/h
3128 19-01-2020 20:55:00 4.1 C 6.14 g/m*3 4.1 C 0 km/h
3129 19-01-2020 21:00:00 4.1 C 6.14 g/m*3 4.1 C 0 km/h
3130 19-01-2020 21:05:00 4.1 C 6.14 g/m*3 4.1 C 0 km/h
3131 19-01-2020 21:10:00 4.1 C 6.14 g/m*3 4.1 C 0 km/h
3132 19-01-2020 21:15:00 4 C 6.1 g/m*3 4 C 0 km/h
3133 19-01-2020 21:20:00 3.9 C 6.06 g/m*3 3.9 C 0 km/h
3134 19-01-2020 21:25:00 3.9 C 6.06 g/m*3 3.9 C 0 km/h
3135 19-01-2020 21:30:00 3.9 C 6.06 g/m*3 3.9 C 0 km/h
3136 19-01-2020 21:35:00 4 C 6.1 g/m*3 4 C 0 km/h
3137 19-01-2020 21:40:00 4 C 6.1 g/m*3 4 C 0 km/h
3138 19-01-2020 21:45:00 4 C 6.1 g/m*3 4 C 0 km/h
3139 19-01-2020 21:50:00 4 C 6.1 g/m*3 4 C 0 km/h
3140 19-01-2020 21:55:00 3.9 C 6.06 g/m*3 3.9 C 0 km/h
3141 19-01-2020 22:00:00 3.9 C 6.06 g/m*3 3.9 C 0 km/h
3142 19-01-2020 22:05:00 3.9 C 6.06 g/m*3 3.9 C 0 km/h
3143 19-01-2020 22:10:00 3.9 C 6.06 g/m*3 3.9 C 0 km/h
3144 19-01-2020 22:15:00 3.9 C 6.06 g/m*3 3.9 C 0 km/h
3145 19-01-2020 22:20:00 3.9 C 6.06 g/m*3 3.9 C 0 km/h
3146 19-01-2020 22:25:00 3.9 C 6.06 g/m*3 3.9 C 0 km/h
3147 19-01-2020 22:30:00 3.9 C 6.06 g/m*3 3.9 C 0 km/h
3148 19-01-2020 22:35:00 3.9 C 6.06 g/m*3 3.9 C 0 km/h
3149 19-01-2020 22:40:00 4 C 6.1 g/m*3 4 C 0 km/h
3150 19-01-2020 22:45:00 4 C 6.1 g/m*3 4 C 0 km/h
Sensor: Nr:Datum:Temp:Abs-Feuchte:Windchill:Wind:
Aussen-T/F 3151 19-01-2020 22:50:00 4.1 C 6.14 g/m*3 4.1 C 0 km/h
3152 19-01-2020 22:55:00 4.1 C 6.14 g/m*3 4.1 C 0 km/h
3153 19-01-2020 23:00:00 4.1 C 6.14 g/m*3 4.1 C 0 km/h
3154 19-01-2020 23:05:00 4.1 C 6.14 g/m*3 4.1 C 0 km/h
3155 19-01-2020 23:10:00 4 C 6.1 g/m*3 4 C 0 km/h
3156 19-01-2020 23:15:00 3.8 C 6.02 g/m*3 3.8 C 0 km/h
3157 19-01-2020 23:20:00 3.6 C 5.94 g/m*3 3.6 C 0 km/h
3158 19-01-2020 23:25:00 3.4 C 5.8 g/m*3 3.4 C 1.6 km/h
3159 19-01-2020 23:30:00 3.2 C 5.72 g/m*3 3.2 C 0 km/h
3160 19-01-2020 23:35:00 3.2 C 5.79 g/m*3 3.2 C 3.2 km/h
3161 19-01-2020 23:40:00 3.1 C 5.75 g/m*3 3.1 C 1.6 km/h
3162 19-01-2020 23:45:00 3.1 C 5.75 g/m*3 3.1 C 0 km/h
3163 19-01-2020 23:50:00 3 C 5.71 g/m*3 3 C 0 km/h
3164 19-01-2020 23:55:00 2.9 C 5.67 g/m*3 2.9 C 3.2 km/h
3165 20-01-2020 00:00:00 2.9 C 5.67 g/m*3 2.9 C 3.2 km/h
3166 20-01-2020 00:05:00 2.9 C 5.67 g/m*3 2.9 C 1.6 km/h
3167 20-01-2020 00:10:00 3 C 5.71 g/m*3 3 C 0 km/h
3168 20-01-2020 00:15:00 3.1 C 5.75 g/m*3 3.1 C 0 km/h
3169 20-01-2020 00:20:00 3.1 C 5.75 g/m*3 3.1 C 0 km/h
3170 20-01-2020 00:25:00 3 C 5.71 g/m*3 3 C 0 km/h
3171 20-01-2020 00:30:00 2.9 C 5.67 g/m*3 2.9 C 0 km/h
3172 20-01-2020 00:35:00 3.1 C 5.75 g/m*3 3.1 C 0 km/h
3173 20-01-2020 00:40:00 3.2 C 5.79 g/m*3 3.2 C 0 km/h
3174 20-01-2020 00:45:00 3.2 C 5.79 g/m*3 3.2 C 0 km/h
3175 20-01-2020 00:50:00 3.3 C 5.82 g/m*3 3.3 C 0 km/h
Sensor: Nr:Datum:Temp:Abs-Feuchte:Windchill:Wind:
Aussen-T/F 3176 20-01-2020 00:55:00 3.3 C 5.82 g/m*3 3.3 C 0 km/h
3177 20-01-2020 01:00:00 3.3 C 5.82 g/m*3 3.3 C 0 km/h
3178 20-01-2020 01:05:00 3.3 C 5.82 g/m*3 3.3 C 0 km/h
3179 20-01-2020 01:10:00 3.2 C 5.79 g/m*3 3.2 C 0 km/h
3180 20-01-2020 01:15:00 3.2 C 5.79 g/m*3 3.2 C 0 km/h
3181 20-01-2020 01:20:00 3.2 C 5.79 g/m*3 3.2 C 0 km/h
3182 20-01-2020 01:25:00 3.2 C 5.79 g/m*3 3.2 C 0 km/h
3183 20-01-2020 01:30:00 3.2 C 5.79 g/m*3 3.2 C 0 km/h
3184 20-01-2020 01:35:00 3.2 C 5.79 g/m*3 3.2 C 0 km/h
3185 20-01-2020 01:40:00 3.2 C 5.79 g/m*3 3.2 C 0 km/h
3186 20-01-2020 01:45:00 3.2 C 5.79 g/m*3 3.2 C 0 km/h
3187 20-01-2020 01:50:00 3.2 C 5.79 g/m*3 3.2 C 0 km/h
3188 20-01-2020 01:55:00 3.2 C 5.79 g/m*3 3.2 C 0 km/h
3189 20-01-2020 02:00:00 3.1 C 5.75 g/m*3 3.1 C 0 km/h
3190 20-01-2020 02:05:00 3 C 5.71 g/m*3 3 C 0 km/h
3191 20-01-2020 02:10:00 2.9 C 5.67 g/m*3 2.9 C 0 km/h
3192 20-01-2020 02:15:00 2.8 C 5.63 g/m*3 2.8 C 0 km/h
3193 20-01-2020 02:20:00 2.7 C 5.59 g/m*3 2.7 C 0 km/h
3194 20-01-2020 02:25:00 2.7 C 5.59 g/m*3 2.7 C 1.6 km/h
3195 20-01-2020 02:30:00 2.7 C 5.59 g/m*3 2.7 C 1.6 km/h
3196 20-01-2020 02:35:00 2.7 C 5.59 g/m*3 2.7 C 0 km/h
3197 20-01-2020 02:40:00 2.7 C 5.59 g/m*3 2.7 C 0 km/h
3198 20-01-2020 02:45:00 2.7 C 5.59 g/m*3 2.7 C 0 km/h
3199 20-01-2020 02:50:00 2.8 C 5.63 g/m*3 2.8 C 0 km/h
3200 20-01-2020 02:55:00 2.8 C 5.69 g/m*3 2.8 C 0 km/h
Sensor: Nr:Datum:Temp:Abs-Feuchte:Windchill:Wind:
Aussen-T/F 3201 20-01-2020 03:00:00 2.8 C 5.69 g/m*3 2.8 C 4.8 km/h
3202 20-01-2020 03:05:00 2.9 C 5.73 g/m*3 2.9 C 4.8 km/h
3203 20-01-2020 03:10:00 2.9 C 5.73 g/m*3 2.9 C 0 km/h
3204 20-01-2020 03:15:00 2.7 C 5.59 g/m*3 2.7 C 0 km/h
3205 20-01-2020 03:20:00 2.5 C 5.52 g/m*3 2.5 C 0 km/h
3206 20-01-2020 03:25:00 2.4 C 5.48 g/m*3 2.4 C 0 km/h
3207 20-01-2020 03:30:00 2.3 C 5.44 g/m*3 2.3 C 0 km/h
3208 20-01-2020 03:35:00 2.2 C 5.41 g/m*3 2.2 C 1.6 km/h
3209 20-01-2020 03:40:00 2.2 C 5.41 g/m*3 2.2 C 3.2 km/h
3210 20-01-2020 03:45:00 2.1 C 5.37 g/m*3 2.1 C 0 km/h
3211 20-01-2020 03:50:00 2.1 C 5.37 g/m*3 2.1 C 0 km/h
3212 20-01-2020 03:55:00 2 C 5.33 g/m*3 2 C 0 km/h
3213 20-01-2020 04:00:00 2 C 5.33 g/m*3 2 C 1.6 km/h
3214 20-01-2020 04:05:00 2.1 C 5.37 g/m*3 2.1 C 1.6 km/h
3215 20-01-2020 04:10:00 2.1 C 5.37 g/m*3 2.1 C 0 km/h
3216 20-01-2020 04:15:00 2.2 C 5.46 g/m*3 2.2 C 0 km/h
3217 20-01-2020 04:20:00 2.3 C 5.5 g/m*3 2.3 C 0 km/h
3218 20-01-2020 04:25:00 2.3 C 5.5 g/m*3 2.3 C 0 km/h
3219 20-01-2020 04:30:00 2.4 C 5.54 g/m*3 2.4 C 0 km/h
3220 20-01-2020 04:35:00 2.4 C 5.54 g/m*3 2.4 C 0 km/h
3221 20-01-2020 04:40:00 2.5 C 5.58 g/m*3 2.5 C 0 km/h
3222 20-01-2020 04:45:00 2.5 C 5.58 g/m*3 2.5 C 0 km/h
3223 20-01-2020 04:50:00 2.4 C 5.54 g/m*3 2.4 C 0 km/h
3224 20-01-2020 04:55:00 2.4 C 5.54 g/m*3 2.4 C 0 km/h
3225 20-01-2020 05:00:00 2.4 C 5.48 g/m*3 2.4 C 0 km/h
Sensor: Nr:Datum:Temp:Abs-Feuchte:Windchill:Wind:
Aussen-T/F 3226 20-01-2020 05:05:00 2.3 C 5.5 g/m*3 2.3 C 0 km/h
3227 20-01-2020 05:10:00 2.4 C 5.54 g/m*3 2.4 C 0 km/h
3228 20-01-2020 05:15:00 2.4 C 5.54 g/m*3 2.4 C <